<?xml version="1.0" encoding="UTF-8"?>
<gpx xmlns="http://www.topografix.com/GPX/1/1" xmlns:gpsies="http://www.gpsies.com/GPX/1/0" creator="GPSies http://www.gpsies.com - &amp;#1042;&amp;#1076;&amp;#1086;&amp;#1083;&amp;#1100; &amp;#1044;&amp;#1086;&amp;#1085;&amp;#1072; 2016" version="1.1" xmlns:xsi="http://www.w3.org/2001/XMLSchema-instance" xsi:schemaLocation="http://www.topografix.com/GPX/1/1 http://www.topografix.com/GPX/1/1/gpx.xsd http://www.gpsies.com/GPX/1/0 http://www.gpsies.com/gpsies.xsd">
  <metadata>
    <name>Вдоль Дона 2016</name>
    <link href="http://www.gpsies.com/">
      <text>Вдоль Дона 2016 on GPSies.com</text>
    </link>
    <time>2016-04-04T20:59:00Z</time>
  </metadata>
  <trk>
    <name>Вдоль Дона 2016 on GPSies.com</name>
    <trkseg>
      <trkpt lat="50.98463240" lon="39.19333978">
        <ele>0.0000000</ele>
        <time>2010-01-01T00:00:00Z</time>
      </trkpt>
      <trkpt lat="50.98398401" lon="39.19593616">
        <ele>0.0000000</ele>
        <time>2010-01-01T00:01:10Z</time>
      </trkpt>
      <trkpt lat="50.98367331" lon="39.19714852">
        <ele>0.0000000</ele>
        <time>2010-01-01T00:01:43Z</time>
      </trkpt>
      <trkpt lat="50.98315323" lon="39.19789953">
        <ele>0.0000000</ele>
        <time>2010-01-01T00:02:11Z</time>
      </trkpt>
      <trkpt lat="50.98263990" lon="39.19811411">
        <ele>0.0000000</ele>
        <time>2010-01-01T00:02:32Z</time>
      </trkpt>
      <trkpt lat="50.98236297" lon="39.19877930">
        <ele>0.0000000</ele>
        <time>2010-01-01T00:02:52Z</time>
      </trkpt>
      <trkpt lat="50.98211305" lon="39.20029207">
        <ele>0.0000000</ele>
        <time>2010-01-01T00:03:32Z</time>
      </trkpt>
      <trkpt lat="50.98173480" lon="39.20260949">
        <ele>0.0000000</ele>
        <time>2010-01-01T00:04:32Z</time>
      </trkpt>
      <trkpt lat="50.98074863" lon="39.20512541">
        <ele>0.0000000</ele>
        <time>2010-01-01T00:05:47Z</time>
      </trkpt>
      <trkpt lat="50.97774945" lon="39.21018942">
        <ele>0.0000000</ele>
        <time>2010-01-01T00:08:42Z</time>
      </trkpt>
      <trkpt lat="50.97453391" lon="39.21557529">
        <ele>0.0000000</ele>
        <time>2010-01-01T00:11:49Z</time>
      </trkpt>
      <trkpt lat="50.97261529" lon="39.21860082">
        <ele>0.0000000</ele>
        <time>2010-01-01T00:13:37Z</time>
      </trkpt>
      <trkpt lat="50.97246666" lon="39.21892269">
        <ele>0.0000000</ele>
        <time>2010-01-01T00:13:47Z</time>
      </trkpt>
      <trkpt lat="50.97251395" lon="39.21929820">
        <ele>0.0000000</ele>
        <time>2010-01-01T00:13:57Z</time>
      </trkpt>
      <trkpt lat="50.97254773" lon="39.21953423">
        <ele>0.0000000</ele>
        <time>2010-01-01T00:14:03Z</time>
      </trkpt>
      <trkpt lat="50.97248017" lon="39.21987756">
        <ele>0.0000000</ele>
        <time>2010-01-01T00:14:12Z</time>
      </trkpt>
      <trkpt lat="50.97227749" lon="39.22044618">
        <ele>0.0000000</ele>
        <time>2010-01-01T00:14:29Z</time>
      </trkpt>
      <trkpt lat="50.97217615" lon="39.22068222">
        <ele>0.0000000</ele>
        <time>2010-01-01T00:14:36Z</time>
      </trkpt>
      <trkpt lat="50.97202752" lon="39.22093971">
        <ele>0.0000000</ele>
        <time>2010-01-01T00:14:45Z</time>
      </trkpt>
      <trkpt lat="50.97186538" lon="39.22136886">
        <ele>0.0000000</ele>
        <time>2010-01-01T00:14:57Z</time>
      </trkpt>
      <trkpt lat="50.97171675" lon="39.22176583">
        <ele>0.0000000</ele>
        <time>2010-01-01T00:15:09Z</time>
      </trkpt>
      <trkpt lat="50.97162892" lon="39.22208770">
        <ele>0.0000000</ele>
        <time>2010-01-01T00:15:18Z</time>
      </trkpt>
      <trkpt lat="50.97159514" lon="39.22239883">
        <ele>0.0000000</ele>
        <time>2010-01-01T00:15:26Z</time>
      </trkpt>
      <trkpt lat="50.97157487" lon="39.22283871">
        <ele>0.0000000</ele>
        <time>2010-01-01T00:15:37Z</time>
      </trkpt>
      <trkpt lat="50.97148704" lon="39.22333224">
        <ele>0.0000000</ele>
        <time>2010-01-01T00:15:50Z</time>
      </trkpt>
      <trkpt lat="50.97137219" lon="39.22365411">
        <ele>0.0000000</ele>
        <time>2010-01-01T00:15:59Z</time>
      </trkpt>
      <trkpt lat="50.97131139" lon="39.22395451">
        <ele>0.0000000</ele>
        <time>2010-01-01T00:16:07Z</time>
      </trkpt>
      <trkpt lat="50.97129787" lon="39.22442658">
        <ele>0.0000000</ele>
        <time>2010-01-01T00:16:19Z</time>
      </trkpt>
      <trkpt lat="50.97131139" lon="39.22480209">
        <ele>0.0000000</ele>
        <time>2010-01-01T00:16:28Z</time>
      </trkpt>
      <trkpt lat="50.97144651" lon="39.22520979">
        <ele>0.0000000</ele>
        <time>2010-01-01T00:16:40Z</time>
      </trkpt>
      <trkpt lat="50.97160190" lon="39.22546728">
        <ele>0.0000000</ele>
        <time>2010-01-01T00:16:49Z</time>
      </trkpt>
      <trkpt lat="50.97168297" lon="39.22581060">
        <ele>0.0000000</ele>
        <time>2010-01-01T00:16:58Z</time>
      </trkpt>
      <trkpt lat="50.97180458" lon="39.22620757">
        <ele>0.0000000</ele>
        <time>2010-01-01T00:17:09Z</time>
      </trkpt>
      <trkpt lat="50.97196672" lon="39.22646506">
        <ele>0.0000000</ele>
        <time>2010-01-01T00:17:19Z</time>
      </trkpt>
      <trkpt lat="50.97210859" lon="39.22675474">
        <ele>0.0000000</ele>
        <time>2010-01-01T00:17:28Z</time>
      </trkpt>
      <trkpt lat="50.97214913" lon="39.22690494">
        <ele>0.0000000</ele>
        <time>2010-01-01T00:17:32Z</time>
      </trkpt>
      <trkpt lat="50.97252070" lon="39.22821386">
        <ele>0.0000000</ele>
        <time>2010-01-01T00:18:08Z</time>
      </trkpt>
      <trkpt lat="50.97284498" lon="39.23004849">
        <ele>0.0000000</ele>
        <time>2010-01-01T00:18:56Z</time>
      </trkpt>
      <trkpt lat="50.97318953" lon="39.23160417">
        <ele>0.0000000</ele>
        <time>2010-01-01T00:19:38Z</time>
      </trkpt>
      <trkpt lat="50.97348678" lon="39.23270924">
        <ele>0.0000000</ele>
        <time>2010-01-01T00:20:08Z</time>
      </trkpt>
      <trkpt lat="50.97366919" lon="39.23361047">
        <ele>0.0000000</ele>
        <time>2010-01-01T00:20:32Z</time>
      </trkpt>
      <trkpt lat="50.97383132" lon="39.23381431">
        <ele>0.0000000</ele>
        <time>2010-01-01T00:20:40Z</time>
      </trkpt>
      <trkpt lat="50.97406102" lon="39.23412545">
        <ele>0.0000000</ele>
        <time>2010-01-01T00:20:52Z</time>
      </trkpt>
      <trkpt lat="50.97418937" lon="39.23440440">
        <ele>0.0000000</ele>
        <time>2010-01-01T00:21:01Z</time>
      </trkpt>
      <trkpt lat="50.97425693" lon="39.23481210">
        <ele>0.0000000</ele>
        <time>2010-01-01T00:21:12Z</time>
      </trkpt>
      <trkpt lat="50.97425017" lon="39.23533781">
        <ele>0.0000000</ele>
        <time>2010-01-01T00:21:25Z</time>
      </trkpt>
      <trkpt lat="50.97416911" lon="39.23574550">
        <ele>0.0000000</ele>
        <time>2010-01-01T00:21:36Z</time>
      </trkpt>
      <trkpt lat="50.97411506" lon="39.23609956">
        <ele>0.0000000</ele>
        <time>2010-01-01T00:21:45Z</time>
      </trkpt>
      <trkpt lat="50.97410831" lon="39.23637851">
        <ele>0.0000000</ele>
        <time>2010-01-01T00:21:52Z</time>
      </trkpt>
      <trkpt lat="50.97414208" lon="39.23671110">
        <ele>0.0000000</ele>
        <time>2010-01-01T00:22:00Z</time>
      </trkpt>
      <trkpt lat="50.97418937" lon="39.23699005">
        <ele>0.0000000</ele>
        <time>2010-01-01T00:22:08Z</time>
      </trkpt>
      <trkpt lat="50.97415560" lon="39.23737629">
        <ele>0.0000000</ele>
        <time>2010-01-01T00:22:17Z</time>
      </trkpt>
      <trkpt lat="50.97415560" lon="39.23763378">
        <ele>0.0000000</ele>
        <time>2010-01-01T00:22:24Z</time>
      </trkpt>
      <trkpt lat="50.97415560" lon="39.23797710">
        <ele>0.0000000</ele>
        <time>2010-01-01T00:22:33Z</time>
      </trkpt>
      <trkpt lat="50.97418262" lon="39.23823459">
        <ele>0.0000000</ele>
        <time>2010-01-01T00:22:39Z</time>
      </trkpt>
      <trkpt lat="50.97422991" lon="39.23879249">
        <ele>0.0000000</ele>
        <time>2010-01-01T00:22:53Z</time>
      </trkpt>
      <trkpt lat="50.97429746" lon="39.23911436">
        <ele>0.0000000</ele>
        <time>2010-01-01T00:23:02Z</time>
      </trkpt>
      <trkpt lat="50.97441231" lon="39.23933966">
        <ele>0.0000000</ele>
        <time>2010-01-01T00:23:09Z</time>
      </trkpt>
      <trkpt lat="50.97456769" lon="39.23955424">
        <ele>0.0000000</ele>
        <time>2010-01-01T00:23:17Z</time>
      </trkpt>
      <trkpt lat="50.97470280" lon="39.23974736">
        <ele>0.0000000</ele>
        <time>2010-01-01T00:23:25Z</time>
      </trkpt>
      <trkpt lat="50.97479062" lon="39.23990829">
        <ele>0.0000000</ele>
        <time>2010-01-01T00:23:30Z</time>
      </trkpt>
      <trkpt lat="50.97486493" lon="39.24017651">
        <ele>0.0000000</ele>
        <time>2010-01-01T00:23:38Z</time>
      </trkpt>
      <trkpt lat="50.97490547" lon="39.24046619">
        <ele>0.0000000</ele>
        <time>2010-01-01T00:23:45Z</time>
      </trkpt>
      <trkpt lat="50.97494600" lon="39.24076660">
        <ele>0.0000000</ele>
        <time>2010-01-01T00:23:53Z</time>
      </trkpt>
      <trkpt lat="50.97504058" lon="39.24147470">
        <ele>0.0000000</ele>
        <time>2010-01-01T00:24:11Z</time>
      </trkpt>
      <trkpt lat="50.97514191" lon="39.24208625">
        <ele>0.0000000</ele>
        <time>2010-01-01T00:24:27Z</time>
      </trkpt>
      <trkpt lat="50.97525000" lon="39.24261196">
        <ele>0.0000000</ele>
        <time>2010-01-01T00:24:41Z</time>
      </trkpt>
      <trkpt lat="50.97523648" lon="39.24293382">
        <ele>0.0000000</ele>
        <time>2010-01-01T00:24:49Z</time>
      </trkpt>
      <trkpt lat="50.97517569" lon="39.24341662">
        <ele>0.0000000</ele>
        <time>2010-01-01T00:25:01Z</time>
      </trkpt>
      <trkpt lat="50.97528377" lon="39.24382432">
        <ele>0.0000000</ele>
        <time>2010-01-01T00:25:13Z</time>
      </trkpt>
      <trkpt lat="50.97533782" lon="39.24421056">
        <ele>0.0000000</ele>
        <time>2010-01-01T00:25:23Z</time>
      </trkpt>
      <trkpt lat="50.97526351" lon="39.24468262">
        <ele>0.0000000</ele>
        <time>2010-01-01T00:25:35Z</time>
      </trkpt>
      <trkpt lat="50.97520271" lon="39.24562676">
        <ele>0.0000000</ele>
        <time>2010-01-01T00:25:59Z</time>
      </trkpt>
      <trkpt lat="50.97518244" lon="39.24585207">
        <ele>0.0000000</ele>
        <time>2010-01-01T00:26:04Z</time>
      </trkpt>
      <trkpt lat="50.97506760" lon="39.24650653">
        <ele>0.0000000</ele>
        <time>2010-01-01T00:26:22Z</time>
      </trkpt>
      <trkpt lat="50.97500680" lon="39.24727900">
        <ele>0.0000000</ele>
        <time>2010-01-01T00:26:41Z</time>
      </trkpt>
      <trkpt lat="50.97497302" lon="39.24784763">
        <ele>0.0000000</ele>
        <time>2010-01-01T00:26:56Z</time>
      </trkpt>
      <trkpt lat="50.97489195" lon="39.24833043">
        <ele>0.0000000</ele>
        <time>2010-01-01T00:27:08Z</time>
      </trkpt>
      <trkpt lat="50.97468929" lon="39.24893124">
        <ele>0.0000000</ele>
        <time>2010-01-01T00:27:25Z</time>
      </trkpt>
      <trkpt lat="50.97448662" lon="39.24925311">
        <ele>0.0000000</ele>
        <time>2010-01-01T00:27:37Z</time>
      </trkpt>
      <trkpt lat="50.97431773" lon="39.24957497">
        <ele>0.0000000</ele>
        <time>2010-01-01T00:27:47Z</time>
      </trkpt>
      <trkpt lat="50.97418262" lon="39.25003631">
        <ele>0.0000000</ele>
        <time>2010-01-01T00:28:00Z</time>
      </trkpt>
      <trkpt lat="50.97404751" lon="39.25056203">
        <ele>0.0000000</ele>
        <time>2010-01-01T00:28:15Z</time>
      </trkpt>
      <trkpt lat="50.97385835" lon="39.25131305">
        <ele>0.0000000</ele>
        <time>2010-01-01T00:28:35Z</time>
      </trkpt>
      <trkpt lat="50.97378403" lon="39.25184949">
        <ele>0.0000000</ele>
        <time>2010-01-01T00:28:49Z</time>
      </trkpt>
      <trkpt lat="50.97362865" lon="39.25242884">
        <ele>0.0000000</ele>
        <time>2010-01-01T00:29:05Z</time>
      </trkpt>
      <trkpt lat="50.97352732" lon="39.25297601">
        <ele>0.0000000</ele>
        <time>2010-01-01T00:29:19Z</time>
      </trkpt>
      <trkpt lat="50.97342936" lon="39.25351246">
        <ele>0.0000000</ele>
        <time>2010-01-01T00:29:33Z</time>
      </trkpt>
      <trkpt lat="50.97327060" lon="39.25389333">
        <ele>0.0000000</ele>
        <time>2010-01-01T00:29:45Z</time>
      </trkpt>
      <trkpt lat="50.97309157" lon="39.25412400">
        <ele>0.0000000</ele>
        <time>2010-01-01T00:29:54Z</time>
      </trkpt>
      <trkpt lat="50.97291930" lon="39.25440831">
        <ele>0.0000000</ele>
        <time>2010-01-01T00:30:04Z</time>
      </trkpt>
      <trkpt lat="50.97286525" lon="39.25463898">
        <ele>0.0000000</ele>
        <time>2010-01-01T00:30:10Z</time>
      </trkpt>
      <trkpt lat="50.97281458" lon="39.25501986">
        <ele>0.0000000</ele>
        <time>2010-01-01T00:30:20Z</time>
      </trkpt>
      <trkpt lat="50.97276729" lon="39.25547583">
        <ele>0.0000000</ele>
        <time>2010-01-01T00:30:31Z</time>
      </trkpt>
      <trkpt lat="50.97275378" lon="39.25586744">
        <ele>0.0000000</ele>
        <time>2010-01-01T00:30:41Z</time>
      </trkpt>
      <trkpt lat="50.97275378" lon="39.25626977">
        <ele>0.0000000</ele>
        <time>2010-01-01T00:30:51Z</time>
      </trkpt>
      <trkpt lat="50.97275378" lon="39.25659700">
        <ele>0.0000000</ele>
        <time>2010-01-01T00:31:00Z</time>
      </trkpt>
      <trkpt lat="50.97275716" lon="39.25700469">
        <ele>0.0000000</ele>
        <time>2010-01-01T00:31:10Z</time>
      </trkpt>
      <trkpt lat="50.97283147" lon="39.25727828">
        <ele>0.0000000</ele>
        <time>2010-01-01T00:31:18Z</time>
      </trkpt>
      <trkpt lat="50.97287539" lon="39.25758941">
        <ele>0.0000000</ele>
        <time>2010-01-01T00:31:26Z</time>
      </trkpt>
      <trkpt lat="50.97291254" lon="39.25787909">
        <ele>0.0000000</ele>
        <time>2010-01-01T00:31:33Z</time>
      </trkpt>
      <trkpt lat="50.97281120" lon="39.25885005">
        <ele>0.0000000</ele>
        <time>2010-01-01T00:31:58Z</time>
      </trkpt>
      <trkpt lat="50.97264231" lon="39.25986929">
        <ele>0.0000000</ele>
        <time>2010-01-01T00:32:24Z</time>
      </trkpt>
      <trkpt lat="50.97253421" lon="39.26051302">
        <ele>0.0000000</ele>
        <time>2010-01-01T00:32:41Z</time>
      </trkpt>
      <trkpt lat="50.97244639" lon="39.26101728">
        <ele>0.0000000</ele>
        <time>2010-01-01T00:32:54Z</time>
      </trkpt>
      <trkpt lat="50.97244639" lon="39.26140352">
        <ele>0.0000000</ele>
        <time>2010-01-01T00:33:04Z</time>
      </trkpt>
      <trkpt lat="50.97248017" lon="39.26192923">
        <ele>0.0000000</ele>
        <time>2010-01-01T00:33:17Z</time>
      </trkpt>
      <trkpt lat="50.97246666" lon="39.26232620">
        <ele>0.0000000</ele>
        <time>2010-01-01T00:33:27Z</time>
      </trkpt>
      <trkpt lat="50.97246666" lon="39.26272316">
        <ele>0.0000000</ele>
        <time>2010-01-01T00:33:37Z</time>
      </trkpt>
      <trkpt lat="50.97248692" lon="39.26331325">
        <ele>0.0000000</ele>
        <time>2010-01-01T00:33:52Z</time>
      </trkpt>
      <trkpt lat="50.97254097" lon="39.26369949">
        <ele>0.0000000</ele>
        <time>2010-01-01T00:34:02Z</time>
      </trkpt>
      <trkpt lat="50.97260853" lon="39.26413937">
        <ele>0.0000000</ele>
        <time>2010-01-01T00:34:14Z</time>
      </trkpt>
      <trkpt lat="50.97261529" lon="39.26454706">
        <ele>0.0000000</ele>
        <time>2010-01-01T00:34:24Z</time>
      </trkpt>
      <trkpt lat="50.97263555" lon="39.26500840">
        <ele>0.0000000</ele>
        <time>2010-01-01T00:34:36Z</time>
      </trkpt>
      <trkpt lat="50.97266258" lon="39.26545902">
        <ele>0.0000000</ele>
        <time>2010-01-01T00:34:47Z</time>
      </trkpt>
      <trkpt lat="50.97266933" lon="39.26586671">
        <ele>0.0000000</ele>
        <time>2010-01-01T00:34:57Z</time>
      </trkpt>
      <trkpt lat="50.97264906" lon="39.26619931">
        <ele>0.0000000</ele>
        <time>2010-01-01T00:35:06Z</time>
      </trkpt>
      <trkpt lat="50.97264231" lon="39.26670356">
        <ele>0.0000000</ele>
        <time>2010-01-01T00:35:18Z</time>
      </trkpt>
      <trkpt lat="50.97256799" lon="39.26702543">
        <ele>0.0000000</ele>
        <time>2010-01-01T00:35:27Z</time>
      </trkpt>
      <trkpt lat="50.97250044" lon="39.26726146">
        <ele>0.0000000</ele>
        <time>2010-01-01T00:35:34Z</time>
      </trkpt>
      <trkpt lat="50.97235856" lon="39.26757260">
        <ele>0.0000000</ele>
        <time>2010-01-01T00:35:43Z</time>
      </trkpt>
      <trkpt lat="50.97223020" lon="39.26785155">
        <ele>0.0000000</ele>
        <time>2010-01-01T00:35:52Z</time>
      </trkpt>
      <trkpt lat="50.97207481" lon="39.26824851">
        <ele>0.0000000</ele>
        <time>2010-01-01T00:36:04Z</time>
      </trkpt>
      <trkpt lat="50.97198699" lon="39.26857038">
        <ele>0.0000000</ele>
        <time>2010-01-01T00:36:13Z</time>
      </trkpt>
      <trkpt lat="50.97190591" lon="39.26890297">
        <ele>0.0000000</ele>
        <time>2010-01-01T00:36:22Z</time>
      </trkpt>
      <trkpt lat="50.97182484" lon="39.26933213">
        <ele>0.0000000</ele>
        <time>2010-01-01T00:36:33Z</time>
      </trkpt>
      <trkpt lat="50.97175728" lon="39.26983638">
        <ele>0.0000000</ele>
        <time>2010-01-01T00:36:46Z</time>
      </trkpt>
      <trkpt lat="50.97172350" lon="39.27025481">
        <ele>0.0000000</ele>
        <time>2010-01-01T00:36:57Z</time>
      </trkpt>
      <trkpt lat="50.97171675" lon="39.27043720">
        <ele>0.0000000</ele>
        <time>2010-01-01T00:37:01Z</time>
      </trkpt>
      <trkpt lat="50.97166946" lon="39.27049084">
        <ele>0.0000000</ele>
        <time>2010-01-01T00:37:04Z</time>
      </trkpt>
      <trkpt lat="50.97158838" lon="39.27107020">
        <ele>0.0000000</ele>
        <time>2010-01-01T00:37:18Z</time>
      </trkpt>
      <trkpt lat="50.97158838" lon="39.27153154">
        <ele>0.0000000</ele>
        <time>2010-01-01T00:37:30Z</time>
      </trkpt>
      <trkpt lat="50.97156136" lon="39.27196069">
        <ele>0.0000000</ele>
        <time>2010-01-01T00:37:41Z</time>
      </trkpt>
      <trkpt lat="50.97141948" lon="39.27251859">
        <ele>0.0000000</ele>
        <time>2010-01-01T00:37:56Z</time>
      </trkpt>
      <trkpt lat="50.97129112" lon="39.27299066">
        <ele>0.0000000</ele>
        <time>2010-01-01T00:38:09Z</time>
      </trkpt>
      <trkpt lat="50.97118978" lon="39.27332325">
        <ele>0.0000000</ele>
        <time>2010-01-01T00:38:18Z</time>
      </trkpt>
      <trkpt lat="50.97112897" lon="39.27365585">
        <ele>0.0000000</ele>
        <time>2010-01-01T00:38:27Z</time>
      </trkpt>
      <trkpt lat="50.97110870" lon="39.27398844">
        <ele>0.0000000</ele>
        <time>2010-01-01T00:38:36Z</time>
      </trkpt>
      <trkpt lat="50.97112222" lon="39.27432103">
        <ele>0.0000000</ele>
        <time>2010-01-01T00:38:44Z</time>
      </trkpt>
      <trkpt lat="50.97121005" lon="39.27492185">
        <ele>0.0000000</ele>
        <time>2010-01-01T00:39:00Z</time>
      </trkpt>
      <trkpt lat="50.97132490" lon="39.27519007">
        <ele>0.0000000</ele>
        <time>2010-01-01T00:39:08Z</time>
      </trkpt>
      <trkpt lat="50.97147353" lon="39.27566214">
        <ele>0.0000000</ele>
        <time>2010-01-01T00:39:21Z</time>
      </trkpt>
      <trkpt lat="50.97148029" lon="39.27601619">
        <ele>0.0000000</ele>
        <time>2010-01-01T00:39:30Z</time>
      </trkpt>
      <trkpt lat="50.97136543" lon="39.27669211">
        <ele>0.0000000</ele>
        <time>2010-01-01T00:39:48Z</time>
      </trkpt>
      <trkpt lat="50.97120329" lon="39.27708907">
        <ele>0.0000000</ele>
        <time>2010-01-01T00:40:00Z</time>
      </trkpt>
      <trkpt lat="50.97099385" lon="39.27756114">
        <ele>0.0000000</ele>
        <time>2010-01-01T00:40:14Z</time>
      </trkpt>
      <trkpt lat="50.97073712" lon="39.27800102">
        <ele>0.0000000</ele>
        <time>2010-01-01T00:40:29Z</time>
      </trkpt>
      <trkpt lat="50.97052768" lon="39.27840872">
        <ele>0.0000000</ele>
        <time>2010-01-01T00:40:42Z</time>
      </trkpt>
      <trkpt lat="50.97030472" lon="39.27891298">
        <ele>0.0000000</ele>
        <time>2010-01-01T00:40:58Z</time>
      </trkpt>
      <trkpt lat="50.97020338" lon="39.27951379">
        <ele>0.0000000</ele>
        <time>2010-01-01T00:41:14Z</time>
      </trkpt>
      <trkpt lat="50.97019662" lon="39.27982493">
        <ele>0.0000000</ele>
        <time>2010-01-01T00:41:22Z</time>
      </trkpt>
      <trkpt lat="50.97020338" lon="39.28095145">
        <ele>0.0000000</ele>
        <time>2010-01-01T00:41:50Z</time>
      </trkpt>
      <trkpt lat="50.97028446" lon="39.28173466">
        <ele>0.0000000</ele>
        <time>2010-01-01T00:42:10Z</time>
      </trkpt>
      <trkpt lat="50.97050065" lon="39.28235693">
        <ele>0.0000000</ele>
        <time>2010-01-01T00:42:28Z</time>
      </trkpt>
      <trkpt lat="50.97068307" lon="39.28267880">
        <ele>0.0000000</ele>
        <time>2010-01-01T00:42:39Z</time>
      </trkpt>
      <trkpt lat="50.97090602" lon="39.28320451">
        <ele>0.0000000</ele>
        <time>2010-01-01T00:42:55Z</time>
      </trkpt>
      <trkpt lat="50.97100061" lon="39.28367658">
        <ele>0.0000000</ele>
        <time>2010-01-01T00:43:07Z</time>
      </trkpt>
      <trkpt lat="50.97108168" lon="39.28409500">
        <ele>0.0000000</ele>
        <time>2010-01-01T00:43:18Z</time>
      </trkpt>
      <trkpt lat="50.97154109" lon="39.28552194">
        <ele>0.0000000</ele>
        <time>2010-01-01T00:43:59Z</time>
      </trkpt>
      <trkpt lat="50.97172350" lon="39.28614421">
        <ele>0.0000000</ele>
        <time>2010-01-01T00:44:16Z</time>
      </trkpt>
      <trkpt lat="50.97191943" lon="39.28656264">
        <ele>0.0000000</ele>
        <time>2010-01-01T00:44:29Z</time>
      </trkpt>
      <trkpt lat="50.97216940" lon="39.28713126">
        <ele>0.0000000</ele>
        <time>2010-01-01T00:44:47Z</time>
      </trkpt>
      <trkpt lat="50.97238559" lon="39.28759260">
        <ele>0.0000000</ele>
        <time>2010-01-01T00:45:01Z</time>
      </trkpt>
      <trkpt lat="50.97263555" lon="39.28821488">
        <ele>0.0000000</ele>
        <time>2010-01-01T00:45:20Z</time>
      </trkpt>
      <trkpt lat="50.97291254" lon="39.28913756">
        <ele>0.0000000</ele>
        <time>2010-01-01T00:45:45Z</time>
      </trkpt>
      <trkpt lat="50.97302064" lon="39.28956671">
        <ele>0.0000000</ele>
        <time>2010-01-01T00:45:57Z</time>
      </trkpt>
      <trkpt lat="50.97320304" lon="39.28999586">
        <ele>0.0000000</ele>
        <time>2010-01-01T00:46:10Z</time>
      </trkpt>
      <trkpt lat="50.97372999" lon="39.29057522">
        <ele>0.0000000</ele>
        <time>2010-01-01T00:46:36Z</time>
      </trkpt>
      <trkpt lat="50.97406102" lon="39.29094000">
        <ele>0.0000000</ele>
        <time>2010-01-01T00:46:52Z</time>
      </trkpt>
      <trkpt lat="50.97452715" lon="39.29158373">
        <ele>0.0000000</ele>
        <time>2010-01-01T00:47:17Z</time>
      </trkpt>
      <trkpt lat="50.97477035" lon="39.29219527">
        <ele>0.0000000</ele>
        <time>2010-01-01T00:47:35Z</time>
      </trkpt>
      <trkpt lat="50.97493924" lon="39.29290338">
        <ele>0.0000000</ele>
        <time>2010-01-01T00:47:54Z</time>
      </trkpt>
      <trkpt lat="50.97511489" lon="39.29354711">
        <ele>0.0000000</ele>
        <time>2010-01-01T00:48:12Z</time>
      </trkpt>
      <trkpt lat="50.97529728" lon="39.29415865">
        <ele>0.0000000</ele>
        <time>2010-01-01T00:48:29Z</time>
      </trkpt>
      <trkpt lat="50.97545266" lon="39.29479165">
        <ele>0.0000000</ele>
        <time>2010-01-01T00:48:46Z</time>
      </trkpt>
      <trkpt lat="50.97559452" lon="39.29521008">
        <ele>0.0000000</ele>
        <time>2010-01-01T00:48:58Z</time>
      </trkpt>
      <trkpt lat="50.97581745" lon="39.29578943">
        <ele>0.0000000</ele>
        <time>2010-01-01T00:49:15Z</time>
      </trkpt>
      <trkpt lat="50.97610118" lon="39.29640098">
        <ele>0.0000000</ele>
        <time>2010-01-01T00:49:34Z</time>
      </trkpt>
      <trkpt lat="50.97624304" lon="39.29684086">
        <ele>0.0000000</ele>
        <time>2010-01-01T00:49:47Z</time>
      </trkpt>
      <trkpt lat="50.97637815" lon="39.29762407">
        <ele>0.0000000</ele>
        <time>2010-01-01T00:50:07Z</time>
      </trkpt>
      <trkpt lat="50.97646597" lon="39.29826780">
        <ele>0.0000000</ele>
        <time>2010-01-01T00:50:24Z</time>
      </trkpt>
      <trkpt lat="50.97663823" lon="39.29881497">
        <ele>0.0000000</ele>
        <time>2010-01-01T00:50:39Z</time>
      </trkpt>
      <trkpt lat="50.97692884" lon="39.29912848">
        <ele>0.0000000</ele>
        <time>2010-01-01T00:50:53Z</time>
      </trkpt>
      <trkpt lat="50.97720580" lon="39.29943425">
        <ele>0.0000000</ele>
        <time>2010-01-01T00:51:07Z</time>
      </trkpt>
      <trkpt lat="50.97744223" lon="39.29984194">
        <ele>0.0000000</ele>
        <time>2010-01-01T00:51:21Z</time>
      </trkpt>
      <trkpt lat="50.97759422" lon="39.30012089">
        <ele>0.0000000</ele>
        <time>2010-01-01T00:51:30Z</time>
      </trkpt>
      <trkpt lat="50.97769893" lon="39.30046422">
        <ele>0.0000000</ele>
        <time>2010-01-01T00:51:39Z</time>
      </trkpt>
      <trkpt lat="50.97775297" lon="39.30073244">
        <ele>0.0000000</ele>
        <time>2010-01-01T00:51:47Z</time>
      </trkpt>
      <trkpt lat="50.97780025" lon="39.30104357">
        <ele>0.0000000</ele>
        <time>2010-01-01T00:51:55Z</time>
      </trkpt>
      <trkpt lat="50.97782052" lon="39.30128497">
        <ele>0.0000000</ele>
        <time>2010-01-01T00:52:01Z</time>
      </trkpt>
      <trkpt lat="50.97783741" lon="39.30154247">
        <ele>0.0000000</ele>
        <time>2010-01-01T00:52:07Z</time>
      </trkpt>
      <trkpt lat="50.97781714" lon="39.30173022">
        <ele>0.0000000</ele>
        <time>2010-01-01T00:52:12Z</time>
      </trkpt>
      <trkpt lat="50.97773270" lon="39.30198235">
        <ele>0.0000000</ele>
        <time>2010-01-01T00:52:19Z</time>
      </trkpt>
      <trkpt lat="50.97764826" lon="39.30215401">
        <ele>0.0000000</ele>
        <time>2010-01-01T00:52:25Z</time>
      </trkpt>
      <trkpt lat="50.97749290" lon="39.30226666">
        <ele>0.0000000</ele>
        <time>2010-01-01T00:52:32Z</time>
      </trkpt>
      <trkpt lat="50.97732739" lon="39.30232031">
        <ele>0.0000000</ele>
        <time>2010-01-01T00:52:38Z</time>
      </trkpt>
      <trkpt lat="50.97716865" lon="39.30236859">
        <ele>0.0000000</ele>
        <time>2010-01-01T00:52:45Z</time>
      </trkpt>
      <trkpt lat="50.97695586" lon="39.30227203">
        <ele>0.0000000</ele>
        <time>2010-01-01T00:52:54Z</time>
      </trkpt>
      <trkpt lat="50.97679373" lon="39.30215401">
        <ele>0.0000000</ele>
        <time>2010-01-01T00:53:01Z</time>
      </trkpt>
      <trkpt lat="50.97664849" lon="39.30207354">
        <ele>0.0000000</ele>
        <time>2010-01-01T00:53:07Z</time>
      </trkpt>
      <trkpt lat="50.97649650" lon="39.30200381">
        <ele>0.0000000</ele>
        <time>2010-01-01T00:53:13Z</time>
      </trkpt>
      <trkpt lat="50.97632762" lon="39.30184824">
        <ele>0.0000000</ele>
        <time>2010-01-01T00:53:21Z</time>
      </trkpt>
      <trkpt lat="50.97616887" lon="39.30183214">
        <ele>0.0000000</ele>
        <time>2010-01-01T00:53:28Z</time>
      </trkpt>
      <trkpt lat="50.97604727" lon="39.30197698">
        <ele>0.0000000</ele>
        <time>2010-01-01T00:53:34Z</time>
      </trkpt>
      <trkpt lat="50.97602025" lon="39.30226666">
        <ele>0.0000000</ele>
        <time>2010-01-01T00:53:41Z</time>
      </trkpt>
      <trkpt lat="50.97601012" lon="39.30254561">
        <ele>0.0000000</ele>
        <time>2010-01-01T00:53:48Z</time>
      </trkpt>
      <trkpt lat="50.97597296" lon="39.30276555">
        <ele>0.0000000</ele>
        <time>2010-01-01T00:53:54Z</time>
      </trkpt>
      <trkpt lat="50.97587839" lon="39.30304987">
        <ele>0.0000000</ele>
        <time>2010-01-01T00:54:02Z</time>
      </trkpt>
      <trkpt lat="50.97582434" lon="39.30328054">
        <ele>0.0000000</ele>
        <time>2010-01-01T00:54:08Z</time>
      </trkpt>
      <trkpt lat="50.97588514" lon="39.30380625">
        <ele>0.0000000</ele>
        <time>2010-01-01T00:54:22Z</time>
      </trkpt>
      <trkpt lat="50.97602701" lon="39.30403692">
        <ele>0.0000000</ele>
        <time>2010-01-01T00:54:30Z</time>
      </trkpt>
      <trkpt lat="50.97612834" lon="39.30433733">
        <ele>0.0000000</ele>
        <time>2010-01-01T00:54:38Z</time>
      </trkpt>
      <trkpt lat="50.97621953" lon="39.30454654">
        <ele>0.0000000</ele>
        <time>2010-01-01T00:54:45Z</time>
      </trkpt>
      <trkpt lat="50.97626090" lon="39.30479415">
        <ele>0.0000000</ele>
        <time>2010-01-01T00:54:51Z</time>
      </trkpt>
      <trkpt lat="50.97638588" lon="39.30472441">
        <ele>0.0000000</ele>
        <time>2010-01-01T00:54:56Z</time>
      </trkpt>
      <trkpt lat="50.97655138" lon="39.30462249">
        <ele>0.0000000</ele>
        <time>2010-01-01T00:55:04Z</time>
      </trkpt>
      <trkpt lat="50.97668987" lon="39.30454202">
        <ele>0.0000000</ele>
        <time>2010-01-01T00:55:09Z</time>
      </trkpt>
      <trkpt lat="50.97679457" lon="39.30450447">
        <ele>0.0000000</ele>
        <time>2010-01-01T00:55:14Z</time>
      </trkpt>
      <trkpt lat="50.97686888" lon="39.30460103">
        <ele>0.0000000</ele>
        <time>2010-01-01T00:55:18Z</time>
      </trkpt>
      <trkpt lat="50.97698372" lon="39.30471905">
        <ele>0.0000000</ele>
        <time>2010-01-01T00:55:23Z</time>
      </trkpt>
      <trkpt lat="50.97700398" lon="39.30481024">
        <ele>0.0000000</ele>
        <time>2010-01-01T00:55:26Z</time>
      </trkpt>
      <trkpt lat="50.97701412" lon="39.30497118">
        <ele>0.0000000</ele>
        <time>2010-01-01T00:55:30Z</time>
      </trkpt>
      <trkpt lat="50.97700736" lon="39.30518039">
        <ele>0.0000000</ele>
        <time>2010-01-01T00:55:35Z</time>
      </trkpt>
      <trkpt lat="50.97697021" lon="39.30535205">
        <ele>0.0000000</ele>
        <time>2010-01-01T00:55:39Z</time>
      </trkpt>
      <trkpt lat="50.97691617" lon="39.30549153">
        <ele>0.0000000</ele>
        <time>2010-01-01T00:55:44Z</time>
      </trkpt>
      <trkpt lat="50.97673377" lon="39.30580266">
        <ele>0.0000000</ele>
        <time>2010-01-01T00:55:54Z</time>
      </trkpt>
      <trkpt lat="50.97671351" lon="39.30595287">
        <ele>0.0000000</ele>
        <time>2010-01-01T00:55:58Z</time>
      </trkpt>
      <trkpt lat="50.97671689" lon="39.30617817">
        <ele>0.0000000</ele>
        <time>2010-01-01T00:56:04Z</time>
      </trkpt>
      <trkpt lat="50.97677093" lon="39.30646785">
        <ele>0.0000000</ele>
        <time>2010-01-01T00:56:11Z</time>
      </trkpt>
      <trkpt lat="50.97685199" lon="39.30683263">
        <ele>0.0000000</ele>
        <time>2010-01-01T00:56:21Z</time>
      </trkpt>
      <trkpt lat="50.97694319" lon="39.30717595">
        <ele>0.0000000</ele>
        <time>2010-01-01T00:56:31Z</time>
      </trkpt>
      <trkpt lat="50.97705803" lon="39.30756756">
        <ele>0.0000000</ele>
        <time>2010-01-01T00:56:41Z</time>
      </trkpt>
      <trkpt lat="50.97713233" lon="39.30776067">
        <ele>0.0000000</ele>
        <time>2010-01-01T00:56:47Z</time>
      </trkpt>
      <trkpt lat="50.97723028" lon="39.30808254">
        <ele>0.0000000</ele>
        <time>2010-01-01T00:56:56Z</time>
      </trkpt>
      <trkpt lat="50.97729784" lon="39.30826493">
        <ele>0.0000000</ele>
        <time>2010-01-01T00:57:02Z</time>
      </trkpt>
      <trkpt lat="50.97762546" lon="39.30928953">
        <ele>0.0000000</ele>
        <time>2010-01-01T00:57:30Z</time>
      </trkpt>
      <trkpt lat="50.97788891" lon="39.31030877">
        <ele>0.0000000</ele>
        <time>2010-01-01T00:57:58Z</time>
      </trkpt>
      <trkpt lat="50.97815911" lon="39.31113489">
        <ele>0.0000000</ele>
        <time>2010-01-01T00:58:22Z</time>
      </trkpt>
      <trkpt lat="50.97842931" lon="39.31196638">
        <ele>0.0000000</ele>
        <time>2010-01-01T00:58:45Z</time>
      </trkpt>
      <trkpt lat="50.97888528" lon="39.31289442">
        <ele>0.0000000</ele>
        <time>2010-01-01T00:59:15Z</time>
      </trkpt>
      <trkpt lat="50.97919600" lon="39.31351669">
        <ele>0.0000000</ele>
        <time>2010-01-01T00:59:35Z</time>
      </trkpt>
      <trkpt lat="50.97966547" lon="39.31428917">
        <ele>0.0000000</ele>
        <time>2010-01-01T01:00:02Z</time>
      </trkpt>
      <trkpt lat="50.98006738" lon="39.31502946">
        <ele>0.0000000</ele>
        <time>2010-01-01T01:00:27Z</time>
      </trkpt>
      <trkpt lat="50.98061789" lon="39.31589313">
        <ele>0.0000000</ele>
        <time>2010-01-01T01:00:58Z</time>
      </trkpt>
      <trkpt lat="50.98091172" lon="39.31641884">
        <ele>0.0000000</ele>
        <time>2010-01-01T01:01:15Z</time>
      </trkpt>
      <trkpt lat="50.98106707" lon="39.31665488">
        <ele>0.0000000</ele>
        <time>2010-01-01T01:01:24Z</time>
      </trkpt>
      <trkpt lat="50.98120216" lon="39.31667097">
        <ele>0.0000000</ele>
        <time>2010-01-01T01:01:29Z</time>
      </trkpt>
      <trkpt lat="50.98140818" lon="39.31661196">
        <ele>0.0000000</ele>
        <time>2010-01-01T01:01:38Z</time>
      </trkpt>
      <trkpt lat="50.98155932" lon="39.31647164">
        <ele>0.0000000</ele>
        <time>2010-01-01T01:01:45Z</time>
      </trkpt>
      <trkpt lat="50.98166739" lon="39.31648237">
        <ele>0.0000000</ele>
        <time>2010-01-01T01:01:49Z</time>
      </trkpt>
      <trkpt lat="50.98183625" lon="39.31658966">
        <ele>0.0000000</ele>
        <time>2010-01-01T01:01:56Z</time>
      </trkpt>
      <trkpt lat="50.98249819" lon="39.31713146">
        <ele>0.0000000</ele>
        <time>2010-01-01T01:02:26Z</time>
      </trkpt>
      <trkpt lat="50.98302841" lon="39.31772155">
        <ele>0.0000000</ele>
        <time>2010-01-01T01:02:52Z</time>
      </trkpt>
      <trkpt lat="50.98340328" lon="39.31818289">
        <ele>0.0000000</ele>
        <time>2010-01-01T01:03:11Z</time>
      </trkpt>
      <trkpt lat="50.98358902" lon="39.31849403">
        <ele>0.0000000</ele>
        <time>2010-01-01T01:03:22Z</time>
      </trkpt>
      <trkpt lat="50.98368358" lon="39.31875152">
        <ele>0.0000000</ele>
        <time>2010-01-01T01:03:29Z</time>
      </trkpt>
      <trkpt lat="50.98376801" lon="39.31921286">
        <ele>0.0000000</ele>
        <time>2010-01-01T01:03:42Z</time>
      </trkpt>
      <trkpt lat="50.98384568" lon="39.31984586">
        <ele>0.0000000</ele>
        <time>2010-01-01T01:03:58Z</time>
      </trkpt>
      <trkpt lat="50.98393686" lon="39.32057006">
        <ele>0.0000000</ele>
        <time>2010-01-01T01:04:16Z</time>
      </trkpt>
      <trkpt lat="50.98403480" lon="39.32108504">
        <ele>0.0000000</ele>
        <time>2010-01-01T01:04:30Z</time>
      </trkpt>
      <trkpt lat="50.98438601" lon="39.32180924">
        <ele>0.0000000</ele>
        <time>2010-01-01T01:04:53Z</time>
      </trkpt>
      <trkpt lat="50.98488582" lon="39.32256562">
        <ele>0.0000000</ele>
        <time>2010-01-01T01:05:21Z</time>
      </trkpt>
      <trkpt lat="50.98528768" lon="39.32326299">
        <ele>0.0000000</ele>
        <time>2010-01-01T01:05:44Z</time>
      </trkpt>
      <trkpt lat="50.98560175" lon="39.32397110">
        <ele>0.0000000</ele>
        <time>2010-01-01T01:06:06Z</time>
      </trkpt>
      <trkpt lat="50.98632779" lon="39.32539803">
        <ele>0.0000000</ele>
        <time>2010-01-01T01:06:53Z</time>
      </trkpt>
      <trkpt lat="50.98668912" lon="39.32618660">
        <ele>0.0000000</ele>
        <time>2010-01-01T01:07:17Z</time>
      </trkpt>
      <trkpt lat="50.98689849" lon="39.32690007">
        <ele>0.0000000</ele>
        <time>2010-01-01T01:07:37Z</time>
      </trkpt>
      <trkpt lat="50.98699642" lon="39.32723266">
        <ele>0.0000000</ele>
        <time>2010-01-01T01:07:46Z</time>
      </trkpt>
      <trkpt lat="50.98713149" lon="39.32758135">
        <ele>0.0000000</ele>
        <time>2010-01-01T01:07:57Z</time>
      </trkpt>
      <trkpt lat="50.98725644" lon="39.32795150">
        <ele>0.0000000</ele>
        <time>2010-01-01T01:08:07Z</time>
      </trkpt>
      <trkpt lat="50.98740164" lon="39.32834846">
        <ele>0.0000000</ele>
        <time>2010-01-01T01:08:19Z</time>
      </trkpt>
      <trkpt lat="50.98806013" lon="39.32956618">
        <ele>0.0000000</ele>
        <time>2010-01-01T01:08:59Z</time>
      </trkpt>
      <trkpt lat="50.98910355" lon="39.33193189">
        <ele>0.0000000</ele>
        <time>2010-01-01T01:10:12Z</time>
      </trkpt>
      <trkpt lat="50.98968772" lon="39.33295650">
        <ele>0.0000000</ele>
        <time>2010-01-01T01:10:47Z</time>
      </trkpt>
      <trkpt lat="50.98994097" lon="39.33336419">
        <ele>0.0000000</ele>
        <time>2010-01-01T01:11:01Z</time>
      </trkpt>
      <trkpt lat="50.99021110" lon="39.33391673">
        <ele>0.0000000</ele>
        <time>2010-01-01T01:11:19Z</time>
      </trkpt>
      <trkpt lat="50.99039344" lon="39.33464092">
        <ele>0.0000000</ele>
        <time>2010-01-01T01:11:38Z</time>
      </trkpt>
      <trkpt lat="50.99056565" lon="39.33531148">
        <ele>0.0000000</ele>
        <time>2010-01-01T01:11:57Z</time>
      </trkpt>
      <trkpt lat="50.99075136" lon="39.33612687">
        <ele>0.0000000</ele>
        <time>2010-01-01T01:12:19Z</time>
      </trkpt>
      <trkpt lat="50.99093032" lon="39.33686716">
        <ele>0.0000000</ele>
        <time>2010-01-01T01:12:39Z</time>
      </trkpt>
      <trkpt lat="50.99099448" lon="39.33731240">
        <ele>0.0000000</ele>
        <time>2010-01-01T01:12:50Z</time>
      </trkpt>
      <trkpt lat="50.99101474" lon="39.33788103">
        <ele>0.0000000</ele>
        <time>2010-01-01T01:13:04Z</time>
      </trkpt>
      <trkpt lat="50.99106201" lon="39.33843893">
        <ele>0.0000000</ele>
        <time>2010-01-01T01:13:19Z</time>
      </trkpt>
      <trkpt lat="50.99107214" lon="39.33877153">
        <ele>0.0000000</ele>
        <time>2010-01-01T01:13:27Z</time>
      </trkpt>
      <trkpt lat="50.99104175" lon="39.33917386">
        <ele>0.0000000</ele>
        <time>2010-01-01T01:13:37Z</time>
      </trkpt>
      <trkpt lat="50.99105188" lon="39.33966202">
        <ele>0.0000000</ele>
        <time>2010-01-01T01:13:49Z</time>
      </trkpt>
      <trkpt lat="50.99107214" lon="39.33982832">
        <ele>0.0000000</ele>
        <time>2010-01-01T01:13:54Z</time>
      </trkpt>
      <trkpt lat="50.99113292" lon="39.34038085">
        <ele>0.0000000</ele>
        <time>2010-01-01T01:14:08Z</time>
      </trkpt>
      <trkpt lat="50.99099785" lon="39.34136790">
        <ele>0.0000000</ele>
        <time>2010-01-01T01:14:33Z</time>
      </trkpt>
      <trkpt lat="50.99084928" lon="39.34177560">
        <ele>0.0000000</ele>
        <time>2010-01-01T01:14:45Z</time>
      </trkpt>
      <trkpt lat="50.99078513" lon="39.34210283">
        <ele>0.0000000</ele>
        <time>2010-01-01T01:14:54Z</time>
      </trkpt>
      <trkpt lat="50.99076487" lon="39.34251053">
        <ele>0.0000000</ele>
        <time>2010-01-01T01:15:04Z</time>
      </trkpt>
      <trkpt lat="50.99072097" lon="39.34308988">
        <ele>0.0000000</ele>
        <time>2010-01-01T01:15:19Z</time>
      </trkpt>
      <trkpt lat="50.99067370" lon="39.34331519">
        <ele>0.0000000</ele>
        <time>2010-01-01T01:15:25Z</time>
      </trkpt>
      <trkpt lat="50.99054539" lon="39.34333665">
        <ele>0.0000000</ele>
        <time>2010-01-01T01:15:30Z</time>
      </trkpt>
      <trkpt lat="50.99033266" lon="39.34321863">
        <ele>0.0000000</ele>
        <time>2010-01-01T01:15:39Z</time>
      </trkpt>
      <trkpt lat="50.98981941" lon="39.34319181">
        <ele>0.0000000</ele>
        <time>2010-01-01T01:16:00Z</time>
      </trkpt>
      <trkpt lat="50.98963707" lon="39.34314889">
        <ele>0.0000000</ele>
        <time>2010-01-01T01:16:07Z</time>
      </trkpt>
      <trkpt lat="50.98950200" lon="39.34342248">
        <ele>0.0000000</ele>
        <time>2010-01-01T01:16:16Z</time>
      </trkpt>
      <trkpt lat="50.98937706" lon="39.34382481">
        <ele>0.0000000</ele>
        <time>2010-01-01T01:16:27Z</time>
      </trkpt>
      <trkpt lat="50.98934329" lon="39.34408766">
        <ele>0.0000000</ele>
        <time>2010-01-01T01:16:34Z</time>
      </trkpt>
      <trkpt lat="50.98941758" lon="39.34454900">
        <ele>0.0000000</ele>
        <time>2010-01-01T01:16:46Z</time>
      </trkpt>
      <trkpt lat="50.98942096" lon="39.34487623">
        <ele>0.0000000</ele>
        <time>2010-01-01T01:16:54Z</time>
      </trkpt>
      <trkpt lat="50.98938044" lon="39.34509081">
        <ele>0.0000000</ele>
        <time>2010-01-01T01:17:00Z</time>
      </trkpt>
      <trkpt lat="50.98932641" lon="39.34531612">
        <ele>0.0000000</ele>
        <time>2010-01-01T01:17:06Z</time>
      </trkpt>
      <trkpt lat="50.98927576" lon="39.34562189">
        <ele>0.0000000</ele>
        <time>2010-01-01T01:17:14Z</time>
      </trkpt>
      <trkpt lat="50.98926225" lon="39.34589547">
        <ele>0.0000000</ele>
        <time>2010-01-01T01:17:21Z</time>
      </trkpt>
      <trkpt lat="50.98922173" lon="39.34601349">
        <ele>0.0000000</ele>
        <time>2010-01-01T01:17:24Z</time>
      </trkpt>
      <trkpt lat="50.98916095" lon="39.34675914">
        <ele>0.0000000</ele>
        <time>2010-01-01T01:17:43Z</time>
      </trkpt>
      <trkpt lat="50.98917108" lon="39.34721512">
        <ele>0.0000000</ele>
        <time>2010-01-01T01:17:54Z</time>
      </trkpt>
      <trkpt lat="50.98921498" lon="39.34770328">
        <ele>0.0000000</ele>
        <time>2010-01-01T01:18:07Z</time>
      </trkpt>
      <trkpt lat="50.98924537" lon="39.34810561">
        <ele>0.0000000</ele>
        <time>2010-01-01T01:18:17Z</time>
      </trkpt>
      <trkpt lat="50.98926901" lon="39.34850258">
        <ele>0.0000000</ele>
        <time>2010-01-01T01:18:27Z</time>
      </trkpt>
      <trkpt lat="50.98930615" lon="39.34881908">
        <ele>0.0000000</ele>
        <time>2010-01-01T01:18:35Z</time>
      </trkpt>
      <trkpt lat="50.98936355" lon="39.34924287">
        <ele>0.0000000</ele>
        <time>2010-01-01T01:18:46Z</time>
      </trkpt>
      <trkpt lat="50.98935005" lon="39.34953255">
        <ele>0.0000000</ele>
        <time>2010-01-01T01:18:53Z</time>
      </trkpt>
      <trkpt lat="50.98914069" lon="39.34965057">
        <ele>0.0000000</ele>
        <time>2010-01-01T01:19:02Z</time>
      </trkpt>
      <trkpt lat="50.98862743" lon="39.34956474">
        <ele>0.0000000</ele>
        <time>2010-01-01T01:19:23Z</time>
      </trkpt>
      <trkpt lat="50.98818844" lon="39.34946818">
        <ele>0.0000000</ele>
        <time>2010-01-01T01:19:41Z</time>
      </trkpt>
      <trkpt lat="50.98768192" lon="39.34963984">
        <ele>0.0000000</ele>
        <time>2010-01-01T01:20:02Z</time>
      </trkpt>
      <trkpt lat="50.98735099" lon="39.34984369">
        <ele>0.0000000</ele>
        <time>2010-01-01T01:20:16Z</time>
      </trkpt>
      <trkpt lat="50.98714163" lon="39.34994024">
        <ele>0.0000000</ele>
        <time>2010-01-01T01:20:24Z</time>
      </trkpt>
      <trkpt lat="50.98705383" lon="39.35007972">
        <ele>0.0000000</ele>
        <time>2010-01-01T01:20:29Z</time>
      </trkpt>
      <trkpt lat="50.98702006" lon="39.35036940">
        <ele>0.0000000</ele>
        <time>2010-01-01T01:20:37Z</time>
      </trkpt>
      <trkpt lat="50.98698629" lon="39.35057325">
        <ele>0.0000000</ele>
        <time>2010-01-01T01:20:42Z</time>
      </trkpt>
      <trkpt lat="50.98691875" lon="39.35070199">
        <ele>0.0000000</ele>
        <time>2010-01-01T01:20:46Z</time>
      </trkpt>
      <trkpt lat="50.98674315" lon="39.35078782">
        <ele>0.0000000</ele>
        <time>2010-01-01T01:20:54Z</time>
      </trkpt>
      <trkpt lat="50.98608127" lon="39.35073418">
        <ele>0.0000000</ele>
        <time>2010-01-01T01:21:20Z</time>
      </trkpt>
      <trkpt lat="50.98531808" lon="39.35060543">
        <ele>0.0000000</ele>
        <time>2010-01-01T01:21:51Z</time>
      </trkpt>
      <trkpt lat="50.98349784" lon="39.35045255">
        <ele>0.0000000</ele>
        <time>2010-01-01T01:23:04Z</time>
      </trkpt>
      <trkpt lat="50.98203889" lon="39.35025943">
        <ele>0.0000000</ele>
        <time>2010-01-01T01:24:03Z</time>
      </trkpt>
      <trkpt lat="50.98109325" lon="39.35009849">
        <ele>0.0000000</ele>
        <time>2010-01-01T01:24:41Z</time>
      </trkpt>
      <trkpt lat="50.98048533" lon="39.35017360">
        <ele>0.0000000</ele>
        <time>2010-01-01T01:25:05Z</time>
      </trkpt>
      <trkpt lat="50.98001250" lon="39.35042036">
        <ele>0.0000000</ele>
        <time>2010-01-01T01:25:25Z</time>
      </trkpt>
      <trkpt lat="50.97873152" lon="39.35146884">
        <ele>0.0000000</ele>
        <time>2010-01-01T01:26:23Z</time>
      </trkpt>
      <trkpt lat="50.97631824" lon="39.35378895">
        <ele>0.0000000</ele>
        <time>2010-01-01T01:28:16Z</time>
      </trkpt>
      <trkpt lat="50.97625069" lon="39.35404644">
        <ele>0.0000000</ele>
        <time>2010-01-01T01:28:23Z</time>
      </trkpt>
      <trkpt lat="50.97637904" lon="39.35437904">
        <ele>0.0000000</ele>
        <time>2010-01-01T01:28:32Z</time>
      </trkpt>
      <trkpt lat="50.97657495" lon="39.35494766">
        <ele>0.0000000</ele>
        <time>2010-01-01T01:28:49Z</time>
      </trkpt>
      <trkpt lat="50.97671681" lon="39.35513005">
        <ele>0.0000000</ele>
        <time>2010-01-01T01:28:56Z</time>
      </trkpt>
      <trkpt lat="50.97683840" lon="39.35553775">
        <ele>0.0000000</ele>
        <time>2010-01-01T01:29:07Z</time>
      </trkpt>
      <trkpt lat="50.97695324" lon="39.35613857">
        <ele>0.0000000</ele>
        <time>2010-01-01T01:29:23Z</time>
      </trkpt>
      <trkpt lat="50.97706808" lon="39.35701833">
        <ele>0.0000000</ele>
        <time>2010-01-01T01:29:46Z</time>
      </trkpt>
      <trkpt lat="50.97716941" lon="39.35812340">
        <ele>0.0000000</ele>
        <time>2010-01-01T01:30:14Z</time>
      </trkpt>
      <trkpt lat="50.97730451" lon="39.35942159">
        <ele>0.0000000</ele>
        <time>2010-01-01T01:30:47Z</time>
      </trkpt>
      <trkpt lat="50.97747339" lon="39.36060176">
        <ele>0.0000000</ele>
        <time>2010-01-01T01:31:18Z</time>
      </trkpt>
      <trkpt lat="50.97752068" lon="39.36119185">
        <ele>0.0000000</ele>
        <time>2010-01-01T01:31:33Z</time>
      </trkpt>
      <trkpt lat="50.97746663" lon="39.36166392">
        <ele>0.0000000</ele>
        <time>2010-01-01T01:31:45Z</time>
      </trkpt>
      <trkpt lat="50.97750717" lon="39.36222182">
        <ele>0.0000000</ele>
        <time>2010-01-01T01:31:59Z</time>
      </trkpt>
      <trkpt lat="50.97766929" lon="39.36296211">
        <ele>0.0000000</ele>
        <time>2010-01-01T01:32:19Z</time>
      </trkpt>
      <trkpt lat="50.97777062" lon="39.36372385">
        <ele>0.0000000</ele>
        <time>2010-01-01T01:32:38Z</time>
      </trkpt>
      <trkpt lat="50.97800704" lon="39.36486111">
        <ele>0.0000000</ele>
        <time>2010-01-01T01:33:09Z</time>
      </trkpt>
      <trkpt lat="50.97811513" lon="39.36559067">
        <ele>0.0000000</ele>
        <time>2010-01-01T01:33:27Z</time>
      </trkpt>
      <trkpt lat="50.97823672" lon="39.36671720">
        <ele>0.0000000</ele>
        <time>2010-01-01T01:33:56Z</time>
      </trkpt>
      <trkpt lat="50.97834480" lon="39.36731801">
        <ele>0.0000000</ele>
        <time>2010-01-01T01:34:12Z</time>
      </trkpt>
      <trkpt lat="50.97861500" lon="39.36957107">
        <ele>0.0000000</ele>
        <time>2010-01-01T01:35:10Z</time>
      </trkpt>
      <trkpt lat="50.97880414" lon="39.37118039">
        <ele>0.0000000</ele>
        <time>2010-01-01T01:35:51Z</time>
      </trkpt>
      <trkpt lat="50.97892573" lon="39.37226401">
        <ele>0.0000000</ele>
        <time>2010-01-01T01:36:19Z</time>
      </trkpt>
      <trkpt lat="50.97902705" lon="39.37313304">
        <ele>0.0000000</ele>
        <time>2010-01-01T01:36:41Z</time>
      </trkpt>
      <trkpt lat="50.97912837" lon="39.37412009">
        <ele>0.0000000</ele>
        <time>2010-01-01T01:37:06Z</time>
      </trkpt>
      <trkpt lat="50.97916890" lon="39.37488184">
        <ele>0.0000000</ele>
        <time>2010-01-01T01:37:26Z</time>
      </trkpt>
      <trkpt lat="50.97928374" lon="39.37558995">
        <ele>0.0000000</ele>
        <time>2010-01-01T01:37:44Z</time>
      </trkpt>
      <trkpt lat="50.97928374" lon="39.37591181">
        <ele>0.0000000</ele>
        <time>2010-01-01T01:37:52Z</time>
      </trkpt>
      <trkpt lat="50.97949314" lon="39.37665210">
        <ele>0.0000000</ele>
        <time>2010-01-01T01:38:13Z</time>
      </trkpt>
      <trkpt lat="50.97960797" lon="39.37814341">
        <ele>0.0000000</ele>
        <time>2010-01-01T01:38:50Z</time>
      </trkpt>
      <trkpt lat="50.97966201" lon="39.37935577">
        <ele>0.0000000</ele>
        <time>2010-01-01T01:39:21Z</time>
      </trkpt>
      <trkpt lat="50.97960121" lon="39.38148008">
        <ele>0.0000000</ele>
        <time>2010-01-01T01:40:15Z</time>
      </trkpt>
      <trkpt lat="50.97965525" lon="39.38367949">
        <ele>0.0000000</ele>
        <time>2010-01-01T01:41:10Z</time>
      </trkpt>
      <trkpt lat="50.97976333" lon="39.38507424">
        <ele>0.0000000</ele>
        <time>2010-01-01T01:41:46Z</time>
      </trkpt>
      <trkpt lat="50.97978359" lon="39.38607202">
        <ele>0.0000000</ele>
        <time>2010-01-01T01:42:11Z</time>
      </trkpt>
      <trkpt lat="50.97974982" lon="39.38694105">
        <ele>0.0000000</ele>
        <time>2010-01-01T01:42:33Z</time>
      </trkpt>
      <trkpt lat="50.97970929" lon="39.38820706">
        <ele>0.0000000</ele>
        <time>2010-01-01T01:43:05Z</time>
      </trkpt>
      <trkpt lat="50.97949989" lon="39.38992367">
        <ele>0.0000000</ele>
        <time>2010-01-01T01:43:49Z</time>
      </trkpt>
      <trkpt lat="50.97930400" lon="39.39099655">
        <ele>0.0000000</ele>
        <time>2010-01-01T01:44:17Z</time>
      </trkpt>
      <trkpt lat="50.97897301" lon="39.39173684">
        <ele>0.0000000</ele>
        <time>2010-01-01T01:44:40Z</time>
      </trkpt>
      <trkpt lat="50.97861500" lon="39.39236984">
        <ele>0.0000000</ele>
        <time>2010-01-01T01:45:01Z</time>
      </trkpt>
      <trkpt lat="50.97827725" lon="39.39302430">
        <ele>0.0000000</ele>
        <time>2010-01-01T01:45:22Z</time>
      </trkpt>
      <trkpt lat="50.97798002" lon="39.39372168">
        <ele>0.0000000</ele>
        <time>2010-01-01T01:45:44Z</time>
      </trkpt>
      <trkpt lat="50.97767604" lon="39.39463363">
        <ele>0.0000000</ele>
        <time>2010-01-01T01:46:10Z</time>
      </trkpt>
      <trkpt lat="50.97742610" lon="39.39556704">
        <ele>0.0000000</ele>
        <time>2010-01-01T01:46:35Z</time>
      </trkpt>
      <trkpt lat="50.97722345" lon="39.39639316">
        <ele>0.0000000</ele>
        <time>2010-01-01T01:46:58Z</time>
      </trkpt>
      <trkpt lat="50.97693973" lon="39.39707980">
        <ele>0.0000000</ele>
        <time>2010-01-01T01:47:18Z</time>
      </trkpt>
      <trkpt lat="50.97660872" lon="39.39788447">
        <ele>0.0000000</ele>
        <time>2010-01-01T01:47:43Z</time>
      </trkpt>
      <trkpt lat="50.97633851" lon="39.39881788">
        <ele>0.0000000</ele>
        <time>2010-01-01T01:48:08Z</time>
      </trkpt>
      <trkpt lat="50.97605479" lon="39.39966545">
        <ele>0.0000000</ele>
        <time>2010-01-01T01:48:33Z</time>
      </trkpt>
      <trkpt lat="50.97563933" lon="39.40093146">
        <ele>0.0000000</ele>
        <time>2010-01-01T01:49:09Z</time>
      </trkpt>
      <trkpt lat="50.97553124" lon="39.40170393">
        <ele>0.0000000</ele>
        <time>2010-01-01T01:49:29Z</time>
      </trkpt>
      <trkpt lat="50.97546369" lon="39.40213845">
        <ele>0.0000000</ele>
        <time>2010-01-01T01:49:40Z</time>
      </trkpt>
      <trkpt lat="50.97532182" lon="39.40266953">
        <ele>0.0000000</ele>
        <time>2010-01-01T01:49:54Z</time>
      </trkpt>
      <trkpt lat="50.97522725" lon="39.40336154">
        <ele>0.0000000</ele>
        <time>2010-01-01T01:50:12Z</time>
      </trkpt>
      <trkpt lat="50.97516307" lon="39.40368877">
        <ele>0.0000000</ele>
        <time>2010-01-01T01:50:21Z</time>
      </trkpt>
      <trkpt lat="50.97505836" lon="39.40408037">
        <ele>0.0000000</ele>
        <time>2010-01-01T01:50:32Z</time>
      </trkpt>
      <trkpt lat="50.97492325" lon="39.40443442">
        <ele>0.0000000</ele>
        <time>2010-01-01T01:50:42Z</time>
      </trkpt>
      <trkpt lat="50.97483205" lon="39.40476701">
        <ele>0.0000000</ele>
        <time>2010-01-01T01:50:51Z</time>
      </trkpt>
      <trkpt lat="50.97469356" lon="39.40499768">
        <ele>0.0000000</ele>
        <time>2010-01-01T01:50:59Z</time>
      </trkpt>
      <trkpt lat="50.97456858" lon="39.40508352">
        <ele>0.0000000</ele>
        <time>2010-01-01T01:51:05Z</time>
      </trkpt>
      <trkpt lat="50.97450441" lon="39.40508352">
        <ele>0.0000000</ele>
        <time>2010-01-01T01:51:07Z</time>
      </trkpt>
      <trkpt lat="50.97438280" lon="39.40504596">
        <ele>0.0000000</ele>
        <time>2010-01-01T01:51:12Z</time>
      </trkpt>
      <trkpt lat="50.97428823" lon="39.40503524">
        <ele>0.0000000</ele>
        <time>2010-01-01T01:51:16Z</time>
      </trkpt>
      <trkpt lat="50.97416325" lon="39.40508352">
        <ele>0.0000000</ele>
        <time>2010-01-01T01:51:21Z</time>
      </trkpt>
      <trkpt lat="50.97406191" lon="39.40514789">
        <ele>0.0000000</ele>
        <time>2010-01-01T01:51:25Z</time>
      </trkpt>
      <trkpt lat="50.97397409" lon="39.40527127">
        <ele>0.0000000</ele>
        <time>2010-01-01T01:51:30Z</time>
      </trkpt>
      <trkpt lat="50.97392680" lon="39.40550730">
        <ele>0.0000000</ele>
        <time>2010-01-01T01:51:36Z</time>
      </trkpt>
      <trkpt lat="50.97390653" lon="39.40571652">
        <ele>0.0000000</ele>
        <time>2010-01-01T01:51:42Z</time>
      </trkpt>
      <trkpt lat="50.97392604" lon="39.40593136">
        <ele>0.0000000</ele>
        <time>2010-01-01T01:51:47Z</time>
      </trkpt>
      <trkpt lat="50.97394631" lon="39.40613521">
        <ele>0.0000000</ele>
        <time>2010-01-01T01:51:52Z</time>
      </trkpt>
      <trkpt lat="50.97400035" lon="39.40639270">
        <ele>0.0000000</ele>
        <time>2010-01-01T01:51:59Z</time>
      </trkpt>
      <trkpt lat="50.97400711" lon="39.40656436">
        <ele>0.0000000</ele>
        <time>2010-01-01T01:52:04Z</time>
      </trkpt>
      <trkpt lat="50.97382470" lon="39.40652144">
        <ele>0.0000000</ele>
        <time>2010-01-01T01:52:11Z</time>
      </trkpt>
      <trkpt lat="50.97364230" lon="39.40651071">
        <ele>0.0000000</ele>
        <time>2010-01-01T01:52:18Z</time>
      </trkpt>
      <trkpt lat="50.97345990" lon="39.40678966">
        <ele>0.0000000</ele>
        <time>2010-01-01T01:52:28Z</time>
      </trkpt>
      <trkpt lat="50.97337207" lon="39.40704716">
        <ele>0.0000000</ele>
        <time>2010-01-01T01:52:36Z</time>
      </trkpt>
      <trkpt lat="50.97327074" lon="39.40742267">
        <ele>0.0000000</ele>
        <time>2010-01-01T01:52:46Z</time>
      </trkpt>
      <trkpt lat="50.97307482" lon="39.40802348">
        <ele>0.0000000</ele>
        <time>2010-01-01T01:53:03Z</time>
      </trkpt>
      <trkpt lat="50.97293970" lon="39.40830243">
        <ele>0.0000000</ele>
        <time>2010-01-01T01:53:12Z</time>
      </trkpt>
      <trkpt lat="50.97274378" lon="39.40868867">
        <ele>0.0000000</ele>
        <time>2010-01-01T01:53:25Z</time>
      </trkpt>
      <trkpt lat="50.97252760" lon="39.40912855">
        <ele>0.0000000</ele>
        <time>2010-01-01T01:53:39Z</time>
      </trkpt>
      <trkpt lat="50.97231141" lon="39.40961135">
        <ele>0.0000000</ele>
        <time>2010-01-01T01:53:54Z</time>
      </trkpt>
      <trkpt lat="50.97203441" lon="39.41016925">
        <ele>0.0000000</ele>
        <time>2010-01-01T01:54:11Z</time>
      </trkpt>
      <trkpt lat="50.97185876" lon="39.41057694">
        <ele>0.0000000</ele>
        <time>2010-01-01T01:54:24Z</time>
      </trkpt>
      <trkpt lat="50.97169662" lon="39.41090954">
        <ele>0.0000000</ele>
        <time>2010-01-01T01:54:34Z</time>
      </trkpt>
      <trkpt lat="50.97155474" lon="39.41125286">
        <ele>0.0000000</ele>
        <time>2010-01-01T01:54:45Z</time>
      </trkpt>
      <trkpt lat="50.97139935" lon="39.41162837">
        <ele>0.0000000</ele>
        <time>2010-01-01T01:54:56Z</time>
      </trkpt>
      <trkpt lat="50.97126423" lon="39.41185368">
        <ele>0.0000000</ele>
        <time>2010-01-01T01:55:04Z</time>
      </trkpt>
      <trkpt lat="50.97114938" lon="39.41216481">
        <ele>0.0000000</ele>
        <time>2010-01-01T01:55:13Z</time>
      </trkpt>
      <trkpt lat="50.97109533" lon="39.41244376">
        <ele>0.0000000</ele>
        <time>2010-01-01T01:55:20Z</time>
      </trkpt>
      <trkpt lat="50.97106155" lon="39.41262615">
        <ele>0.0000000</ele>
        <time>2010-01-01T01:55:25Z</time>
      </trkpt>
      <trkpt lat="50.97098385" lon="39.41298557">
        <ele>0.0000000</ele>
        <time>2010-01-01T01:55:35Z</time>
      </trkpt>
      <trkpt lat="50.97094332" lon="39.41336108">
        <ele>0.0000000</ele>
        <time>2010-01-01T01:55:44Z</time>
      </trkpt>
      <trkpt lat="50.97093656" lon="39.41360784">
        <ele>0.0000000</ele>
        <time>2010-01-01T01:55:51Z</time>
      </trkpt>
      <trkpt lat="50.97087576" lon="39.41386533">
        <ele>0.0000000</ele>
        <time>2010-01-01T01:55:58Z</time>
      </trkpt>
      <trkpt lat="50.97081833" lon="39.41407454">
        <ele>0.0000000</ele>
        <time>2010-01-01T01:56:03Z</time>
      </trkpt>
      <trkpt lat="50.97069672" lon="39.41424621">
        <ele>0.0000000</ele>
        <time>2010-01-01T01:56:10Z</time>
      </trkpt>
      <trkpt lat="50.97061902" lon="39.41418720">
        <ele>0.0000000</ele>
        <time>2010-01-01T01:56:13Z</time>
      </trkpt>
      <trkpt lat="50.97053795" lon="39.41402090">
        <ele>0.0000000</ele>
        <time>2010-01-01T01:56:19Z</time>
      </trkpt>
      <trkpt lat="50.97045687" lon="39.41395116">
        <ele>0.0000000</ele>
        <time>2010-01-01T01:56:22Z</time>
      </trkpt>
      <trkpt lat="50.97031837" lon="39.41394043">
        <ele>0.0000000</ele>
        <time>2010-01-01T01:56:28Z</time>
      </trkpt>
      <trkpt lat="50.97016974" lon="39.41400481">
        <ele>0.0000000</ele>
        <time>2010-01-01T01:56:34Z</time>
      </trkpt>
      <trkpt lat="50.97003799" lon="39.41412819">
        <ele>0.0000000</ele>
        <time>2010-01-01T01:56:40Z</time>
      </trkpt>
      <trkpt lat="50.96987922" lon="39.41449833">
        <ele>0.0000000</ele>
        <time>2010-01-01T01:56:51Z</time>
      </trkpt>
      <trkpt lat="50.96980828" lon="39.41472364">
        <ele>0.0000000</ele>
        <time>2010-01-01T01:56:58Z</time>
      </trkpt>
      <trkpt lat="50.96975423" lon="39.41499722">
        <ele>0.0000000</ele>
        <time>2010-01-01T01:57:05Z</time>
      </trkpt>
      <trkpt lat="50.96971031" lon="39.41526545">
        <ele>0.0000000</ele>
        <time>2010-01-01T01:57:12Z</time>
      </trkpt>
      <trkpt lat="50.96964950" lon="39.41553367">
        <ele>0.0000000</ele>
        <time>2010-01-01T01:57:19Z</time>
      </trkpt>
      <trkpt lat="50.96956843" lon="39.41566241">
        <ele>0.0000000</ele>
        <time>2010-01-01T01:57:24Z</time>
      </trkpt>
      <trkpt lat="50.96947384" lon="39.41575361">
        <ele>0.0000000</ele>
        <time>2010-01-01T01:57:28Z</time>
      </trkpt>
      <trkpt lat="50.96939276" lon="39.41590918">
        <ele>0.0000000</ele>
        <time>2010-01-01T01:57:33Z</time>
      </trkpt>
      <trkpt lat="50.96920359" lon="39.41643489">
        <ele>0.0000000</ele>
        <time>2010-01-01T01:57:49Z</time>
      </trkpt>
      <trkpt lat="50.96896374" lon="39.41726101">
        <ele>0.0000000</ele>
        <time>2010-01-01T01:58:11Z</time>
      </trkpt>
      <trkpt lat="50.96874077" lon="39.41791010">
        <ele>0.0000000</ele>
        <time>2010-01-01T01:58:30Z</time>
      </trkpt>
      <trkpt lat="50.96851781" lon="39.41870940">
        <ele>0.0000000</ele>
        <time>2010-01-01T01:58:52Z</time>
      </trkpt>
      <trkpt lat="50.96820026" lon="39.41974473">
        <ele>0.0000000</ele>
        <time>2010-01-01T01:59:21Z</time>
      </trkpt>
      <trkpt lat="50.96788608" lon="39.42052794">
        <ele>0.0000000</ele>
        <time>2010-01-01T01:59:45Z</time>
      </trkpt>
      <trkpt lat="50.96765973" lon="39.42091954">
        <ele>0.0000000</ele>
        <time>2010-01-01T01:59:58Z</time>
      </trkpt>
      <trkpt lat="50.96750771" lon="39.42120386">
        <ele>0.0000000</ele>
        <time>2010-01-01T02:00:07Z</time>
      </trkpt>
      <trkpt lat="50.96741312" lon="39.42139697">
        <ele>0.0000000</ele>
        <time>2010-01-01T02:00:14Z</time>
      </trkpt>
      <trkpt lat="50.96732866" lon="39.42155791">
        <ele>0.0000000</ele>
        <time>2010-01-01T02:00:19Z</time>
      </trkpt>
      <trkpt lat="50.96721042" lon="39.42183686">
        <ele>0.0000000</ele>
        <time>2010-01-01T02:00:27Z</time>
      </trkpt>
      <trkpt lat="50.96715974" lon="39.42197633">
        <ele>0.0000000</ele>
        <time>2010-01-01T02:00:31Z</time>
      </trkpt>
      <trkpt lat="50.96713272" lon="39.42205680">
        <ele>0.0000000</ele>
        <time>2010-01-01T02:00:34Z</time>
      </trkpt>
      <trkpt lat="50.96714623" lon="39.42221505">
        <ele>0.0000000</ele>
        <time>2010-01-01T02:00:38Z</time>
      </trkpt>
      <trkpt lat="50.96727292" lon="39.42240549">
        <ele>0.0000000</ele>
        <time>2010-01-01T02:00:45Z</time>
      </trkpt>
      <trkpt lat="50.96741143" lon="39.42261470">
        <ele>0.0000000</ele>
        <time>2010-01-01T02:00:52Z</time>
      </trkpt>
      <trkpt lat="50.96751953" lon="39.42279172">
        <ele>0.0000000</ele>
        <time>2010-01-01T02:00:59Z</time>
      </trkpt>
      <trkpt lat="50.96761413" lon="39.42294461">
        <ele>0.0000000</ele>
        <time>2010-01-01T02:01:04Z</time>
      </trkpt>
      <trkpt lat="50.96766649" lon="39.42308408">
        <ele>0.0000000</ele>
        <time>2010-01-01T02:01:08Z</time>
      </trkpt>
      <trkpt lat="50.96779655" lon="39.42340327">
        <ele>0.0000000</ele>
        <time>2010-01-01T02:01:18Z</time>
      </trkpt>
      <trkpt lat="50.96789115" lon="39.42351324">
        <ele>0.0000000</ele>
        <time>2010-01-01T02:01:22Z</time>
      </trkpt>
      <trkpt lat="50.96797898" lon="39.42356420">
        <ele>0.0000000</ele>
        <time>2010-01-01T02:01:26Z</time>
      </trkpt>
      <trkpt lat="50.96800939" lon="39.42366344">
        <ele>0.0000000</ele>
        <time>2010-01-01T02:01:29Z</time>
      </trkpt>
      <trkpt lat="50.96801276" lon="39.42389143">
        <ele>0.0000000</ele>
        <time>2010-01-01T02:01:35Z</time>
      </trkpt>
      <trkpt lat="50.96797222" lon="39.42406041">
        <ele>0.0000000</ele>
        <time>2010-01-01T02:01:39Z</time>
      </trkpt>
      <trkpt lat="50.96792155" lon="39.42427767">
        <ele>0.0000000</ele>
        <time>2010-01-01T02:01:45Z</time>
      </trkpt>
      <trkpt lat="50.96794351" lon="39.42450834">
        <ele>0.0000000</ele>
        <time>2010-01-01T02:01:51Z</time>
      </trkpt>
      <trkpt lat="50.96798067" lon="39.42472560">
        <ele>0.0000000</ele>
        <time>2010-01-01T02:01:57Z</time>
      </trkpt>
      <trkpt lat="50.96799418" lon="39.42490530">
        <ele>0.0000000</ele>
        <time>2010-01-01T02:02:01Z</time>
      </trkpt>
      <trkpt lat="50.96803134" lon="39.42507697">
        <ele>0.0000000</ele>
        <time>2010-01-01T02:02:06Z</time>
      </trkpt>
      <trkpt lat="50.96808877" lon="39.42518962">
        <ele>0.0000000</ele>
        <time>2010-01-01T02:02:09Z</time>
      </trkpt>
      <trkpt lat="50.96811411" lon="39.42531568">
        <ele>0.0000000</ele>
        <time>2010-01-01T02:02:13Z</time>
      </trkpt>
      <trkpt lat="50.96809046" lon="39.42546052">
        <ele>0.0000000</ele>
        <time>2010-01-01T02:02:16Z</time>
      </trkpt>
      <trkpt lat="50.96807019" lon="39.42556781">
        <ele>0.0000000</ele>
        <time>2010-01-01T02:02:19Z</time>
      </trkpt>
      <trkpt lat="50.96803303" lon="39.42598355">
        <ele>0.0000000</ele>
        <time>2010-01-01T02:02:30Z</time>
      </trkpt>
      <trkpt lat="50.96805668" lon="39.42641807">
        <ele>0.0000000</ele>
        <time>2010-01-01T02:02:41Z</time>
      </trkpt>
      <trkpt lat="50.96808371" lon="39.42676139">
        <ele>0.0000000</ele>
        <time>2010-01-01T02:02:50Z</time>
      </trkpt>
      <trkpt lat="50.96810736" lon="39.42707253">
        <ele>0.0000000</ele>
        <time>2010-01-01T02:02:57Z</time>
      </trkpt>
      <trkpt lat="50.96812425" lon="39.42740512">
        <ele>0.0000000</ele>
        <time>2010-01-01T02:03:06Z</time>
      </trkpt>
      <trkpt lat="50.96813100" lon="39.42766262">
        <ele>0.0000000</ele>
        <time>2010-01-01T02:03:12Z</time>
      </trkpt>
      <trkpt lat="50.96814789" lon="39.42795229">
        <ele>0.0000000</ele>
        <time>2010-01-01T02:03:20Z</time>
      </trkpt>
      <trkpt lat="50.96812762" lon="39.42811323">
        <ele>0.0000000</ele>
        <time>2010-01-01T02:03:24Z</time>
      </trkpt>
      <trkpt lat="50.96804655" lon="39.42822051">
        <ele>0.0000000</ele>
        <time>2010-01-01T02:03:28Z</time>
      </trkpt>
      <trkpt lat="50.96787088" lon="39.42832244">
        <ele>0.0000000</ele>
        <time>2010-01-01T02:03:36Z</time>
      </trkpt>
      <trkpt lat="50.96772223" lon="39.42833317">
        <ele>0.0000000</ele>
        <time>2010-01-01T02:03:42Z</time>
      </trkpt>
      <trkpt lat="50.96748575" lon="39.42833853">
        <ele>0.0000000</ele>
        <time>2010-01-01T02:03:51Z</time>
      </trkpt>
      <trkpt lat="50.96724927" lon="39.42837072">
        <ele>0.0000000</ele>
        <time>2010-01-01T02:04:00Z</time>
      </trkpt>
      <trkpt lat="50.96703306" lon="39.42838145">
        <ele>0.0000000</ele>
        <time>2010-01-01T02:04:09Z</time>
      </trkpt>
      <trkpt lat="50.96681346" lon="39.42833853">
        <ele>0.0000000</ele>
        <time>2010-01-01T02:04:18Z</time>
      </trkpt>
      <trkpt lat="50.96648239" lon="39.42825807">
        <ele>0.0000000</ele>
        <time>2010-01-01T02:04:31Z</time>
      </trkpt>
      <trkpt lat="50.96620536" lon="39.42808640">
        <ele>0.0000000</ele>
        <time>2010-01-01T02:04:43Z</time>
      </trkpt>
      <trkpt lat="50.96581008" lon="39.42789329">
        <ele>0.0000000</ele>
        <time>2010-01-01T02:05:00Z</time>
      </trkpt>
      <trkpt lat="50.96531345" lon="39.42788792">
        <ele>0.0000000</ele>
        <time>2010-01-01T02:05:20Z</time>
      </trkpt>
      <trkpt lat="50.96486411" lon="39.42776454">
        <ele>0.0000000</ele>
        <time>2010-01-01T02:05:38Z</time>
      </trkpt>
      <trkpt lat="50.96450937" lon="39.42783964">
        <ele>0.0000000</ele>
        <time>2010-01-01T02:05:52Z</time>
      </trkpt>
      <trkpt lat="50.96405665" lon="39.42807031">
        <ele>0.0000000</ele>
        <time>2010-01-01T02:06:11Z</time>
      </trkpt>
      <trkpt lat="50.96347215" lon="39.42839754">
        <ele>0.0000000</ele>
        <time>2010-01-01T02:06:36Z</time>
      </trkpt>
      <trkpt lat="50.96283697" lon="39.42860675">
        <ele>0.0000000</ele>
        <time>2010-01-01T02:07:02Z</time>
      </trkpt>
      <trkpt lat="50.96197203" lon="39.42915929">
        <ele>0.0000000</ele>
        <time>2010-01-01T02:07:39Z</time>
      </trkpt>
      <trkpt lat="50.96155983" lon="39.42953480">
        <ele>0.0000000</ele>
        <time>2010-01-01T02:07:58Z</time>
      </trkpt>
      <trkpt lat="50.96133683" lon="39.42969573">
        <ele>0.0000000</ele>
        <time>2010-01-01T02:08:08Z</time>
      </trkpt>
      <trkpt lat="50.96121182" lon="39.42972792">
        <ele>0.0000000</ele>
        <time>2010-01-01T02:08:13Z</time>
      </trkpt>
      <trkpt lat="50.96109356" lon="39.42984057">
        <ele>0.0000000</ele>
        <time>2010-01-01T02:08:19Z</time>
      </trkpt>
      <trkpt lat="50.96099558" lon="39.43001223">
        <ele>0.0000000</ele>
        <time>2010-01-01T02:08:25Z</time>
      </trkpt>
      <trkpt lat="50.96080637" lon="39.43045748">
        <ele>0.0000000</ele>
        <time>2010-01-01T02:08:38Z</time>
      </trkpt>
      <trkpt lat="50.96046173" lon="39.43087590">
        <ele>0.0000000</ele>
        <time>2010-01-01T02:08:56Z</time>
      </trkpt>
      <trkpt lat="50.96014412" lon="39.43118167">
        <ele>0.0000000</ele>
        <time>2010-01-01T02:09:11Z</time>
      </trkpt>
      <trkpt lat="50.95990760" lon="39.43139089">
        <ele>0.0000000</ele>
        <time>2010-01-01T02:09:21Z</time>
      </trkpt>
      <trkpt lat="50.95957985" lon="39.43168593">
        <ele>0.0000000</ele>
        <time>2010-01-01T02:09:36Z</time>
      </trkpt>
      <trkpt lat="50.95936360" lon="39.43178249">
        <ele>0.0000000</ele>
        <time>2010-01-01T02:09:45Z</time>
      </trkpt>
      <trkpt lat="50.95912708" lon="39.43187905">
        <ele>0.0000000</ele>
        <time>2010-01-01T02:09:55Z</time>
      </trkpt>
      <trkpt lat="50.95901895" lon="39.43195415">
        <ele>0.0000000</ele>
        <time>2010-01-01T02:10:00Z</time>
      </trkpt>
      <trkpt lat="50.95891083" lon="39.43213654">
        <ele>0.0000000</ele>
        <time>2010-01-01T02:10:06Z</time>
      </trkpt>
      <trkpt lat="50.95893110" lon="39.43249059">
        <ele>0.0000000</ele>
        <time>2010-01-01T02:10:15Z</time>
      </trkpt>
      <trkpt lat="50.95896489" lon="39.43273735">
        <ele>0.0000000</ele>
        <time>2010-01-01T02:10:22Z</time>
      </trkpt>
      <trkpt lat="50.95899192" lon="39.43302703">
        <ele>0.0000000</ele>
        <time>2010-01-01T02:10:29Z</time>
      </trkpt>
      <trkpt lat="50.95900544" lon="39.43330598">
        <ele>0.0000000</ele>
        <time>2010-01-01T02:10:36Z</time>
      </trkpt>
      <trkpt lat="50.95899868" lon="39.43356348">
        <ele>0.0000000</ele>
        <time>2010-01-01T02:10:43Z</time>
      </trkpt>
      <trkpt lat="50.95894462" lon="39.43397117">
        <ele>0.0000000</ele>
        <time>2010-01-01T02:10:53Z</time>
      </trkpt>
      <trkpt lat="50.95886352" lon="39.43465782">
        <ele>0.0000000</ele>
        <time>2010-01-01T02:11:11Z</time>
      </trkpt>
      <trkpt lat="50.95878919" lon="39.43520499">
        <ele>0.0000000</ele>
        <time>2010-01-01T02:11:25Z</time>
      </trkpt>
      <trkpt lat="50.95872161" lon="39.43556977">
        <ele>0.0000000</ele>
        <time>2010-01-01T02:11:34Z</time>
      </trkpt>
      <trkpt lat="50.95862700" lon="39.43585945">
        <ele>0.0000000</ele>
        <time>2010-01-01T02:11:43Z</time>
      </trkpt>
      <trkpt lat="50.95847157" lon="39.43619204">
        <ele>0.0000000</ele>
        <time>2010-01-01T02:11:53Z</time>
      </trkpt>
      <trkpt lat="50.95836344" lon="39.43656755">
        <ele>0.0000000</ele>
        <time>2010-01-01T02:12:03Z</time>
      </trkpt>
      <trkpt lat="50.95815394" lon="39.43721128">
        <ele>0.0000000</ele>
        <time>2010-01-01T02:12:22Z</time>
      </trkpt>
      <trkpt lat="50.95805933" lon="39.43734003">
        <ele>0.0000000</ele>
        <time>2010-01-01T02:12:27Z</time>
      </trkpt>
      <trkpt lat="50.95785659" lon="39.43741513">
        <ele>0.0000000</ele>
        <time>2010-01-01T02:12:35Z</time>
      </trkpt>
      <trkpt lat="50.95761330" lon="39.43755460">
        <ele>0.0000000</ele>
        <time>2010-01-01T02:12:45Z</time>
      </trkpt>
      <trkpt lat="50.95737001" lon="39.43766189">
        <ele>0.0000000</ele>
        <time>2010-01-01T02:12:55Z</time>
      </trkpt>
      <trkpt lat="50.95716727" lon="39.43799448">
        <ele>0.0000000</ele>
        <time>2010-01-01T02:13:07Z</time>
      </trkpt>
      <trkpt lat="50.95726188" lon="39.43844510">
        <ele>0.0000000</ele>
        <time>2010-01-01T02:13:19Z</time>
      </trkpt>
      <trkpt lat="50.95744435" lon="39.43869186">
        <ele>0.0000000</ele>
        <time>2010-01-01T02:13:29Z</time>
      </trkpt>
      <trkpt lat="50.95758627" lon="39.43902445">
        <ele>0.0000000</ele>
        <time>2010-01-01T02:13:39Z</time>
      </trkpt>
      <trkpt lat="50.95772143" lon="39.43942142">
        <ele>0.0000000</ele>
        <time>2010-01-01T02:13:50Z</time>
      </trkpt>
      <trkpt lat="50.95776874" lon="39.43967891">
        <ele>0.0000000</ele>
        <time>2010-01-01T02:13:57Z</time>
      </trkpt>
      <trkpt lat="50.95776874" lon="39.44004369">
        <ele>0.0000000</ele>
        <time>2010-01-01T02:14:06Z</time>
      </trkpt>
      <trkpt lat="50.95778225" lon="39.44059086">
        <ele>0.0000000</ele>
        <time>2010-01-01T02:14:20Z</time>
      </trkpt>
      <trkpt lat="50.95786335" lon="39.44161010">
        <ele>0.0000000</ele>
        <time>2010-01-01T02:14:46Z</time>
      </trkpt>
      <trkpt lat="50.95788362" lon="39.44209290">
        <ele>0.0000000</ele>
        <time>2010-01-01T02:14:58Z</time>
      </trkpt>
      <trkpt lat="50.95786335" lon="39.44229675">
        <ele>0.0000000</ele>
        <time>2010-01-01T02:15:03Z</time>
      </trkpt>
      <trkpt lat="50.95768088" lon="39.44272590">
        <ele>0.0000000</ele>
        <time>2010-01-01T02:15:16Z</time>
      </trkpt>
      <trkpt lat="50.95772819" lon="39.44312287">
        <ele>0.0000000</ele>
        <time>2010-01-01T02:15:27Z</time>
      </trkpt>
      <trkpt lat="50.95784307" lon="39.44351983">
        <ele>0.0000000</ele>
        <time>2010-01-01T02:15:38Z</time>
      </trkpt>
      <trkpt lat="50.95799851" lon="39.44403482">
        <ele>0.0000000</ele>
        <time>2010-01-01T02:15:52Z</time>
      </trkpt>
      <trkpt lat="50.95812691" lon="39.44461418">
        <ele>0.0000000</ele>
        <time>2010-01-01T02:16:07Z</time>
      </trkpt>
      <trkpt lat="50.95837695" lon="39.44600892">
        <ele>0.0000000</ele>
        <time>2010-01-01T02:16:44Z</time>
      </trkpt>
      <trkpt lat="50.95843778" lon="39.44728566">
        <ele>0.0000000</ele>
        <time>2010-01-01T02:17:16Z</time>
      </trkpt>
      <trkpt lat="50.95854590" lon="39.44820834">
        <ele>0.0000000</ele>
        <time>2010-01-01T02:17:40Z</time>
      </trkpt>
      <trkpt lat="50.95862024" lon="39.44874478">
        <ele>0.0000000</ele>
        <time>2010-01-01T02:17:54Z</time>
      </trkpt>
      <trkpt lat="50.95870133" lon="39.44914175">
        <ele>0.0000000</ele>
        <time>2010-01-01T02:18:04Z</time>
      </trkpt>
      <trkpt lat="50.95880270" lon="39.44946361">
        <ele>0.0000000</ele>
        <time>2010-01-01T02:18:13Z</time>
      </trkpt>
      <trkpt lat="50.95888380" lon="39.44975329">
        <ele>0.0000000</ele>
        <time>2010-01-01T02:18:21Z</time>
      </trkpt>
      <trkpt lat="50.95892434" lon="39.45003224">
        <ele>0.0000000</ele>
        <time>2010-01-01T02:18:29Z</time>
      </trkpt>
      <trkpt lat="50.95892434" lon="39.45024682">
        <ele>0.0000000</ele>
        <time>2010-01-01T02:18:34Z</time>
      </trkpt>
      <trkpt lat="50.95885001" lon="39.45052576">
        <ele>0.0000000</ele>
        <time>2010-01-01T02:18:42Z</time>
      </trkpt>
      <trkpt lat="50.95880946" lon="39.45106221">
        <ele>0.0000000</ele>
        <time>2010-01-01T02:18:55Z</time>
      </trkpt>
      <trkpt lat="50.95878243" lon="39.45165229">
        <ele>0.0000000</ele>
        <time>2010-01-01T02:19:10Z</time>
      </trkpt>
      <trkpt lat="50.95879594" lon="39.45193124">
        <ele>0.0000000</ele>
        <time>2010-01-01T02:19:17Z</time>
      </trkpt>
      <trkpt lat="50.95880270" lon="39.45232821">
        <ele>0.0000000</ele>
        <time>2010-01-01T02:19:27Z</time>
      </trkpt>
      <trkpt lat="50.95887028" lon="39.45269299">
        <ele>0.0000000</ele>
        <time>2010-01-01T02:19:37Z</time>
      </trkpt>
      <trkpt lat="50.95894462" lon="39.45299340">
        <ele>0.0000000</ele>
        <time>2010-01-01T02:19:45Z</time>
      </trkpt>
      <trkpt lat="50.95912199" lon="39.45333626">
        <ele>0.0000000</ele>
        <time>2010-01-01T02:19:56Z</time>
      </trkpt>
      <trkpt lat="50.95925039" lon="39.45372250">
        <ele>0.0000000</ele>
        <time>2010-01-01T02:20:07Z</time>
      </trkpt>
      <trkpt lat="50.95929094" lon="39.45415165">
        <ele>0.0000000</ele>
        <time>2010-01-01T02:20:18Z</time>
      </trkpt>
      <trkpt lat="50.95930616" lon="39.45448427">
        <ele>0.0000000</ele>
        <time>2010-01-01T02:20:27Z</time>
      </trkpt>
      <trkpt lat="50.95924197" lon="39.45470421">
        <ele>0.0000000</ele>
        <time>2010-01-01T02:20:33Z</time>
      </trkpt>
      <trkpt lat="50.95927238" lon="39.45483295">
        <ele>0.0000000</ele>
        <time>2010-01-01T02:20:36Z</time>
      </trkpt>
      <trkpt lat="50.95936698" lon="39.45479004">
        <ele>0.0000000</ele>
        <time>2010-01-01T02:20:40Z</time>
      </trkpt>
      <trkpt lat="50.95945821" lon="39.45480613">
        <ele>0.0000000</ele>
        <time>2010-01-01T02:20:44Z</time>
      </trkpt>
      <trkpt lat="50.95960013" lon="39.45492951">
        <ele>0.0000000</ele>
        <time>2010-01-01T02:20:50Z</time>
      </trkpt>
      <trkpt lat="50.95964405" lon="39.45501534">
        <ele>0.0000000</ele>
        <time>2010-01-01T02:20:53Z</time>
      </trkpt>
      <trkpt lat="50.95969474" lon="39.45514945">
        <ele>0.0000000</ele>
        <time>2010-01-01T02:20:57Z</time>
      </trkpt>
      <trkpt lat="50.95973866" lon="39.45527284">
        <ele>0.0000000</ele>
        <time>2010-01-01T02:21:00Z</time>
      </trkpt>
      <trkpt lat="50.95980962" lon="39.45549278">
        <ele>0.0000000</ele>
        <time>2010-01-01T02:21:07Z</time>
      </trkpt>
      <trkpt lat="50.95987382" lon="39.45575563">
        <ele>0.0000000</ele>
        <time>2010-01-01T02:21:14Z</time>
      </trkpt>
      <trkpt lat="50.95992450" lon="39.45603458">
        <ele>0.0000000</ele>
        <time>2010-01-01T02:21:21Z</time>
      </trkpt>
      <trkpt lat="50.95998870" lon="39.45621161">
        <ele>0.0000000</ele>
        <time>2010-01-01T02:21:26Z</time>
      </trkpt>
      <trkpt lat="50.96008330" lon="39.45642619">
        <ele>0.0000000</ele>
        <time>2010-01-01T02:21:33Z</time>
      </trkpt>
      <trkpt lat="50.96021846" lon="39.45664613">
        <ele>0.0000000</ele>
        <time>2010-01-01T02:21:41Z</time>
      </trkpt>
      <trkpt lat="50.96034685" lon="39.45681779">
        <ele>0.0000000</ele>
        <time>2010-01-01T02:21:47Z</time>
      </trkpt>
      <trkpt lat="50.96044822" lon="39.45699481">
        <ele>0.0000000</ele>
        <time>2010-01-01T02:21:53Z</time>
      </trkpt>
      <trkpt lat="50.96054620" lon="39.45722012">
        <ele>0.0000000</ele>
        <time>2010-01-01T02:22:00Z</time>
      </trkpt>
      <trkpt lat="50.96064419" lon="39.45753662">
        <ele>0.0000000</ele>
        <time>2010-01-01T02:22:09Z</time>
      </trkpt>
      <trkpt lat="50.96069487" lon="39.45771901">
        <ele>0.0000000</ele>
        <time>2010-01-01T02:22:14Z</time>
      </trkpt>
      <trkpt lat="50.96082326" lon="39.45810525">
        <ele>0.0000000</ele>
        <time>2010-01-01T02:22:25Z</time>
      </trkpt>
      <trkpt lat="50.96094152" lon="39.45859341">
        <ele>0.0000000</ele>
        <time>2010-01-01T02:22:38Z</time>
      </trkpt>
      <trkpt lat="50.96102261" lon="39.45897965">
        <ele>0.0000000</ele>
        <time>2010-01-01T02:22:49Z</time>
      </trkpt>
      <trkpt lat="50.96111722" lon="39.45939271">
        <ele>0.0000000</ele>
        <time>2010-01-01T02:23:00Z</time>
      </trkpt>
      <trkpt lat="50.96120844" lon="39.45966093">
        <ele>0.0000000</ele>
        <time>2010-01-01T02:23:07Z</time>
      </trkpt>
      <trkpt lat="50.96129629" lon="39.45984332">
        <ele>0.0000000</ele>
        <time>2010-01-01T02:23:13Z</time>
      </trkpt>
      <trkpt lat="50.96141793" lon="39.46002035">
        <ele>0.0000000</ele>
        <time>2010-01-01T02:23:20Z</time>
      </trkpt>
      <trkpt lat="50.96148888" lon="39.46022419">
        <ele>0.0000000</ele>
        <time>2010-01-01T02:23:26Z</time>
      </trkpt>
      <trkpt lat="50.96152267" lon="39.46050314">
        <ele>0.0000000</ele>
        <time>2010-01-01T02:23:33Z</time>
      </trkpt>
      <trkpt lat="50.96153280" lon="39.46085719">
        <ele>0.0000000</ele>
        <time>2010-01-01T02:23:42Z</time>
      </trkpt>
      <trkpt lat="50.96158011" lon="39.46144728">
        <ele>0.0000000</ele>
        <time>2010-01-01T02:23:57Z</time>
      </trkpt>
      <trkpt lat="50.96167133" lon="39.46179060">
        <ele>0.0000000</ele>
        <time>2010-01-01T02:24:06Z</time>
      </trkpt>
      <trkpt lat="50.96176932" lon="39.46202664">
        <ele>0.0000000</ele>
        <time>2010-01-01T02:24:13Z</time>
      </trkpt>
      <trkpt lat="50.96185716" lon="39.46228413">
        <ele>0.0000000</ele>
        <time>2010-01-01T02:24:21Z</time>
      </trkpt>
      <trkpt lat="50.96204975" lon="39.46284203">
        <ele>0.0000000</ele>
        <time>2010-01-01T02:24:37Z</time>
      </trkpt>
      <trkpt lat="50.96223558" lon="39.46327118">
        <ele>0.0000000</ele>
        <time>2010-01-01T02:24:50Z</time>
      </trkpt>
      <trkpt lat="50.96233018" lon="39.46353940">
        <ele>0.0000000</ele>
        <time>2010-01-01T02:24:58Z</time>
      </trkpt>
      <trkpt lat="50.96241465" lon="39.46375935">
        <ele>0.0000000</ele>
        <time>2010-01-01T02:25:04Z</time>
      </trkpt>
      <trkpt lat="50.96247208" lon="39.46396319">
        <ele>0.0000000</ele>
        <time>2010-01-01T02:25:10Z</time>
      </trkpt>
      <trkpt lat="50.96250587" lon="39.46412413">
        <ele>0.0000000</ele>
        <time>2010-01-01T02:25:14Z</time>
      </trkpt>
      <trkpt lat="50.96250587" lon="39.46427433">
        <ele>0.0000000</ele>
        <time>2010-01-01T02:25:18Z</time>
      </trkpt>
      <trkpt lat="50.96250587" lon="39.46450500">
        <ele>0.0000000</ele>
        <time>2010-01-01T02:25:24Z</time>
      </trkpt>
      <trkpt lat="50.96256669" lon="39.46480541">
        <ele>0.0000000</ele>
        <time>2010-01-01T02:25:32Z</time>
      </trkpt>
      <trkpt lat="50.96265453" lon="39.46503608">
        <ele>0.0000000</ele>
        <time>2010-01-01T02:25:38Z</time>
      </trkpt>
      <trkpt lat="50.96278968" lon="39.46525065">
        <ele>0.0000000</ele>
        <time>2010-01-01T02:25:46Z</time>
      </trkpt>
      <trkpt lat="50.96295523" lon="39.46538476">
        <ele>0.0000000</ele>
        <time>2010-01-01T02:25:53Z</time>
      </trkpt>
      <trkpt lat="50.96305321" lon="39.46556179">
        <ele>0.0000000</ele>
        <time>2010-01-01T02:25:59Z</time>
      </trkpt>
      <trkpt lat="50.96311740" lon="39.46572809">
        <ele>0.0000000</ele>
        <time>2010-01-01T02:26:04Z</time>
      </trkpt>
      <trkpt lat="50.96327282" lon="39.46605532">
        <ele>0.0000000</ele>
        <time>2010-01-01T02:26:15Z</time>
      </trkpt>
      <trkpt lat="50.96337418" lon="39.46640937">
        <ele>0.0000000</ele>
        <time>2010-01-01T02:26:24Z</time>
      </trkpt>
      <trkpt lat="50.96348229" lon="39.46663467">
        <ele>0.0000000</ele>
        <time>2010-01-01T02:26:32Z</time>
      </trkpt>
      <trkpt lat="50.96358027" lon="39.46676342">
        <ele>0.0000000</ele>
        <time>2010-01-01T02:26:37Z</time>
      </trkpt>
      <trkpt lat="50.96371204" lon="39.46688680">
        <ele>0.0000000</ele>
        <time>2010-01-01T02:26:43Z</time>
      </trkpt>
      <trkpt lat="50.96381677" lon="39.46693508">
        <ele>0.0000000</ele>
        <time>2010-01-01T02:26:47Z</time>
      </trkpt>
      <trkpt lat="50.96390799" lon="39.46698872">
        <ele>0.0000000</ele>
        <time>2010-01-01T02:26:51Z</time>
      </trkpt>
      <trkpt lat="50.96397557" lon="39.46702091">
        <ele>0.0000000</ele>
        <time>2010-01-01T02:26:54Z</time>
      </trkpt>
      <trkpt lat="50.96406003" lon="39.46709601">
        <ele>0.0000000</ele>
        <time>2010-01-01T02:26:58Z</time>
      </trkpt>
      <trkpt lat="50.96413774" lon="39.46716575">
        <ele>0.0000000</ele>
        <time>2010-01-01T02:27:01Z</time>
      </trkpt>
      <trkpt lat="50.96416477" lon="39.46724622">
        <ele>0.0000000</ele>
        <time>2010-01-01T02:27:04Z</time>
      </trkpt>
      <trkpt lat="50.96408030" lon="39.46822254">
        <ele>0.0000000</ele>
        <time>2010-01-01T02:27:29Z</time>
      </trkpt>
      <trkpt lat="50.96403638" lon="39.46939735">
        <ele>0.0000000</ele>
        <time>2010-01-01T02:27:58Z</time>
      </trkpt>
      <trkpt lat="50.96404314" lon="39.47068481">
        <ele>0.0000000</ele>
        <time>2010-01-01T02:28:31Z</time>
      </trkpt>
      <trkpt lat="50.96408368" lon="39.47244970">
        <ele>0.0000000</ele>
        <time>2010-01-01T02:29:15Z</time>
      </trkpt>
      <trkpt lat="50.96419855" lon="39.47403221">
        <ele>0.0000000</ele>
        <time>2010-01-01T02:29:55Z</time>
      </trkpt>
      <trkpt lat="50.96435734" lon="39.47690753">
        <ele>0.0000000</ele>
        <time>2010-01-01T02:31:08Z</time>
      </trkpt>
      <trkpt lat="50.96451275" lon="39.47967557">
        <ele>0.0000000</ele>
        <time>2010-01-01T02:32:18Z</time>
      </trkpt>
      <trkpt lat="50.96464114" lon="39.48206810">
        <ele>0.0000000</ele>
        <time>2010-01-01T02:33:19Z</time>
      </trkpt>
      <trkpt lat="50.96451951" lon="39.48463230">
        <ele>0.0000000</ele>
        <time>2010-01-01T02:34:24Z</time>
      </trkpt>
      <trkpt lat="50.96425599" lon="39.48650984">
        <ele>0.0000000</ele>
        <time>2010-01-01T02:35:12Z</time>
      </trkpt>
      <trkpt lat="50.96414112" lon="39.48851613">
        <ele>0.0000000</ele>
        <time>2010-01-01T02:36:03Z</time>
      </trkpt>
      <trkpt lat="50.96411409" lon="39.49028639">
        <ele>0.0000000</ele>
        <time>2010-01-01T02:36:47Z</time>
      </trkpt>
      <trkpt lat="50.96377623" lon="39.49340848">
        <ele>0.0000000</ele>
        <time>2010-01-01T02:38:07Z</time>
      </trkpt>
      <trkpt lat="50.96328971" lon="39.49570445">
        <ele>0.0000000</ele>
        <time>2010-01-01T02:39:08Z</time>
      </trkpt>
      <trkpt lat="50.96299915" lon="39.49689536">
        <ele>0.0000000</ele>
        <time>2010-01-01T02:39:41Z</time>
      </trkpt>
      <trkpt lat="50.96293158" lon="39.49728159">
        <ele>0.0000000</ele>
        <time>2010-01-01T02:39:51Z</time>
      </trkpt>
      <trkpt lat="50.96322214" lon="39.49736742">
        <ele>0.0000000</ele>
        <time>2010-01-01T02:40:03Z</time>
      </trkpt>
      <trkpt lat="50.96351270" lon="39.49748544">
        <ele>0.0000000</ele>
        <time>2010-01-01T02:40:15Z</time>
      </trkpt>
      <trkpt lat="50.96370866" lon="39.49773220">
        <ele>0.0000000</ele>
        <time>2010-01-01T02:40:25Z</time>
      </trkpt>
      <trkpt lat="50.96378299" lon="39.49805407">
        <ele>0.0000000</ele>
        <time>2010-01-01T02:40:33Z</time>
      </trkpt>
      <trkpt lat="50.96366136" lon="39.49987797">
        <ele>0.0000000</ele>
        <time>2010-01-01T02:41:19Z</time>
      </trkpt>
      <trkpt lat="50.96349919" lon="39.50173406">
        <ele>0.0000000</ele>
        <time>2010-01-01T02:42:07Z</time>
      </trkpt>
      <trkpt lat="50.96344513" lon="39.50336484">
        <ele>0.0000000</ele>
        <time>2010-01-01T02:42:48Z</time>
      </trkpt>
      <trkpt lat="50.96315457" lon="39.50563936">
        <ele>0.0000000</ele>
        <time>2010-01-01T02:43:46Z</time>
      </trkpt>
      <trkpt lat="50.96295861" lon="39.50742034">
        <ele>0.0000000</ele>
        <time>2010-01-01T02:44:32Z</time>
      </trkpt>
      <trkpt lat="50.96293834" lon="39.50938372">
        <ele>0.0000000</ele>
        <time>2010-01-01T02:45:21Z</time>
      </trkpt>
      <trkpt lat="50.96294509" lon="39.51073555">
        <ele>0.0000000</ele>
        <time>2010-01-01T02:45:56Z</time>
      </trkpt>
      <trkpt lat="50.96297212" lon="39.51170115">
        <ele>0.0000000</ele>
        <time>2010-01-01T02:46:20Z</time>
      </trkpt>
      <trkpt lat="50.96307348" lon="39.51237707">
        <ele>0.0000000</ele>
        <time>2010-01-01T02:46:37Z</time>
      </trkpt>
      <trkpt lat="50.96316133" lon="39.51291351">
        <ele>0.0000000</ele>
        <time>2010-01-01T02:46:51Z</time>
      </trkpt>
      <trkpt lat="50.96321538" lon="39.51357870">
        <ele>0.0000000</ele>
        <time>2010-01-01T02:47:08Z</time>
      </trkpt>
      <trkpt lat="50.96320863" lon="39.51401858">
        <ele>0.0000000</ele>
        <time>2010-01-01T02:47:19Z</time>
      </trkpt>
      <trkpt lat="50.96322214" lon="39.51473741">
        <ele>0.0000000</ele>
        <time>2010-01-01T02:47:38Z</time>
      </trkpt>
      <trkpt lat="50.96316808" lon="39.51537041">
        <ele>0.0000000</ele>
        <time>2010-01-01T02:47:54Z</time>
      </trkpt>
      <trkpt lat="50.96286401" lon="39.51583175">
        <ele>0.0000000</ele>
        <time>2010-01-01T02:48:10Z</time>
      </trkpt>
      <trkpt lat="50.96270859" lon="39.51632528">
        <ele>0.0000000</ele>
        <time>2010-01-01T02:48:24Z</time>
      </trkpt>
      <trkpt lat="50.96266805" lon="39.51664714">
        <ele>0.0000000</ele>
        <time>2010-01-01T02:48:33Z</time>
      </trkpt>
      <trkpt lat="50.96264777" lon="39.51688318">
        <ele>0.0000000</ele>
        <time>2010-01-01T02:48:39Z</time>
      </trkpt>
      <trkpt lat="50.96261399" lon="39.51722650">
        <ele>0.0000000</ele>
        <time>2010-01-01T02:48:47Z</time>
      </trkpt>
      <trkpt lat="50.96253966" lon="39.51746253">
        <ele>0.0000000</ele>
        <time>2010-01-01T02:48:54Z</time>
      </trkpt>
      <trkpt lat="50.96247208" lon="39.51768784">
        <ele>0.0000000</ele>
        <time>2010-01-01T02:49:00Z</time>
      </trkpt>
      <trkpt lat="50.96245857" lon="39.51806335">
        <ele>0.0000000</ele>
        <time>2010-01-01T02:49:10Z</time>
      </trkpt>
      <trkpt lat="50.96247208" lon="39.51836376">
        <ele>0.0000000</ele>
        <time>2010-01-01T02:49:17Z</time>
      </trkpt>
      <trkpt lat="50.96247208" lon="39.51849250">
        <ele>0.0000000</ele>
        <time>2010-01-01T02:49:21Z</time>
      </trkpt>
      <trkpt lat="50.96249236" lon="39.51911477">
        <ele>0.0000000</ele>
        <time>2010-01-01T02:49:36Z</time>
      </trkpt>
      <trkpt lat="50.96239100" lon="39.51995162">
        <ele>0.0000000</ele>
        <time>2010-01-01T02:49:58Z</time>
      </trkpt>
      <trkpt lat="50.96229639" lon="39.52050952">
        <ele>0.0000000</ele>
        <time>2010-01-01T02:50:12Z</time>
      </trkpt>
      <trkpt lat="50.96218827" lon="39.52096013">
        <ele>0.0000000</ele>
        <time>2010-01-01T02:50:25Z</time>
      </trkpt>
      <trkpt lat="50.96208016" lon="39.52149658">
        <ele>0.0000000</ele>
        <time>2010-01-01T02:50:39Z</time>
      </trkpt>
      <trkpt lat="50.96194501" lon="39.52192573">
        <ele>0.0000000</ele>
        <time>2010-01-01T02:50:51Z</time>
      </trkpt>
      <trkpt lat="50.96180986" lon="39.52236561">
        <ele>0.0000000</ele>
        <time>2010-01-01T02:51:03Z</time>
      </trkpt>
      <trkpt lat="50.96167471" lon="39.52267675">
        <ele>0.0000000</ele>
        <time>2010-01-01T02:51:13Z</time>
      </trkpt>
      <trkpt lat="50.96149902" lon="39.52332048">
        <ele>0.0000000</ele>
        <time>2010-01-01T02:51:30Z</time>
      </trkpt>
      <trkpt lat="50.96141793" lon="39.52365307">
        <ele>0.0000000</ele>
        <time>2010-01-01T02:51:39Z</time>
      </trkpt>
      <trkpt lat="50.96131656" lon="39.52381400">
        <ele>0.0000000</ele>
        <time>2010-01-01T02:51:45Z</time>
      </trkpt>
      <trkpt lat="50.96106654" lon="39.52398567">
        <ele>0.0000000</ele>
        <time>2010-01-01T02:51:56Z</time>
      </trkpt>
      <trkpt lat="50.96070839" lon="39.52423243">
        <ele>0.0000000</ele>
        <time>2010-01-01T02:52:12Z</time>
      </trkpt>
      <trkpt lat="50.96043132" lon="39.52446846">
        <ele>0.0000000</ele>
        <time>2010-01-01T02:52:24Z</time>
      </trkpt>
      <trkpt lat="50.96013399" lon="39.52473668">
        <ele>0.0000000</ele>
        <time>2010-01-01T02:52:38Z</time>
      </trkpt>
      <trkpt lat="50.95990423" lon="39.52491907">
        <ele>0.0000000</ele>
        <time>2010-01-01T02:52:48Z</time>
      </trkpt>
      <trkpt lat="50.95968122" lon="39.52512292">
        <ele>0.0000000</ele>
        <time>2010-01-01T02:52:59Z</time>
      </trkpt>
      <trkpt lat="50.95947173" lon="39.52540187">
        <ele>0.0000000</ele>
        <time>2010-01-01T02:53:10Z</time>
      </trkpt>
      <trkpt lat="50.95988395" lon="39.52612070">
        <ele>0.0000000</ele>
        <time>2010-01-01T02:53:34Z</time>
      </trkpt>
      <trkpt lat="50.96070839" lon="39.52745108">
        <ele>0.0000000</ele>
        <time>2010-01-01T02:54:21Z</time>
      </trkpt>
      <trkpt lat="50.96122196" lon="39.52822356">
        <ele>0.0000000</ele>
        <time>2010-01-01T02:54:49Z</time>
      </trkpt>
      <trkpt lat="50.96143820" lon="39.52865271">
        <ele>0.0000000</ele>
        <time>2010-01-01T02:55:03Z</time>
      </trkpt>
      <trkpt lat="50.96160038" lon="39.52899603">
        <ele>0.0000000</ele>
        <time>2010-01-01T02:55:14Z</time>
      </trkpt>
      <trkpt lat="50.96170850" lon="39.52944664">
        <ele>0.0000000</ele>
        <time>2010-01-01T02:55:26Z</time>
      </trkpt>
      <trkpt lat="50.96177607" lon="39.52978997">
        <ele>0.0000000</ele>
        <time>2010-01-01T02:55:35Z</time>
      </trkpt>
      <trkpt lat="50.96147874" lon="39.53015475">
        <ele>0.0000000</ele>
        <time>2010-01-01T02:55:50Z</time>
      </trkpt>
      <trkpt lat="50.96100572" lon="39.52978997">
        <ele>0.0000000</ele>
        <time>2010-01-01T02:56:11Z</time>
      </trkpt>
      <trkpt lat="50.96069487" lon="39.52998309">
        <ele>0.0000000</ele>
        <time>2010-01-01T02:56:25Z</time>
      </trkpt>
      <trkpt lat="50.96041105" lon="39.53043370">
        <ele>0.0000000</ele>
        <time>2010-01-01T02:56:41Z</time>
      </trkpt>
      <trkpt lat="50.96016778" lon="39.53092722">
        <ele>0.0000000</ele>
        <time>2010-01-01T02:56:57Z</time>
      </trkpt>
      <trkpt lat="50.96004614" lon="39.53135638">
        <ele>0.0000000</ele>
        <time>2010-01-01T02:57:09Z</time>
      </trkpt>
      <trkpt lat="50.95988395" lon="39.53225760">
        <ele>0.0000000</ele>
        <time>2010-01-01T02:57:32Z</time>
      </trkpt>
      <trkpt lat="50.95976231" lon="39.53350214">
        <ele>0.0000000</ele>
        <time>2010-01-01T02:58:04Z</time>
      </trkpt>
      <trkpt lat="50.95968122" lon="39.53472523">
        <ele>0.0000000</ele>
        <time>2010-01-01T02:58:35Z</time>
      </trkpt>
      <trkpt lat="50.95969474" lon="39.53579811">
        <ele>0.0000000</ele>
        <time>2010-01-01T02:59:02Z</time>
      </trkpt>
      <trkpt lat="50.95977583" lon="39.53768639">
        <ele>0.0000000</ele>
        <time>2010-01-01T02:59:50Z</time>
      </trkpt>
      <trkpt lat="50.95985692" lon="39.53882365">
        <ele>0.0000000</ele>
        <time>2010-01-01T03:00:19Z</time>
      </trkpt>
      <trkpt lat="50.95988395" lon="39.54008965">
        <ele>0.0000000</ele>
        <time>2010-01-01T03:00:50Z</time>
      </trkpt>
      <trkpt lat="50.95969474" lon="39.54148440">
        <ele>0.0000000</ele>
        <time>2010-01-01T03:01:26Z</time>
      </trkpt>
      <trkpt lat="50.95960013" lon="39.54294352">
        <ele>0.0000000</ele>
        <time>2010-01-01T03:02:03Z</time>
      </trkpt>
      <trkpt lat="50.95939739" lon="39.54442410">
        <ele>0.0000000</ele>
        <time>2010-01-01T03:02:42Z</time>
      </trkpt>
      <trkpt lat="50.95922169" lon="39.54586176">
        <ele>0.0000000</ele>
        <time>2010-01-01T03:03:19Z</time>
      </trkpt>
      <trkpt lat="50.95918114" lon="39.54676299">
        <ele>0.0000000</ele>
        <time>2010-01-01T03:03:41Z</time>
      </trkpt>
      <trkpt lat="50.95935685" lon="39.54750327">
        <ele>0.0000000</ele>
        <time>2010-01-01T03:04:01Z</time>
      </trkpt>
      <trkpt lat="50.95953255" lon="39.54857616">
        <ele>0.0000000</ele>
        <time>2010-01-01T03:04:29Z</time>
      </trkpt>
      <trkpt lat="50.95970825" lon="39.54930572">
        <ele>0.0000000</ele>
        <time>2010-01-01T03:04:49Z</time>
      </trkpt>
      <trkpt lat="50.95973528" lon="39.55008892">
        <ele>0.0000000</ele>
        <time>2010-01-01T03:05:09Z</time>
      </trkpt>
      <trkpt lat="50.95981637" lon="39.55074338">
        <ele>0.0000000</ele>
        <time>2010-01-01T03:05:26Z</time>
      </trkpt>
      <trkpt lat="50.95981637" lon="39.55124764">
        <ele>0.0000000</ele>
        <time>2010-01-01T03:05:38Z</time>
      </trkpt>
      <trkpt lat="50.95975556" lon="39.55154805">
        <ele>0.0000000</ele>
        <time>2010-01-01T03:05:46Z</time>
      </trkpt>
      <trkpt lat="50.95971501" lon="39.55190210">
        <ele>0.0000000</ele>
        <time>2010-01-01T03:05:55Z</time>
      </trkpt>
      <trkpt lat="50.95972177" lon="39.55220251">
        <ele>0.0000000</ele>
        <time>2010-01-01T03:06:03Z</time>
      </trkpt>
      <trkpt lat="50.95982989" lon="39.55249218">
        <ele>0.0000000</ele>
        <time>2010-01-01T03:06:11Z</time>
      </trkpt>
      <trkpt lat="50.95991774" lon="39.55261020">
        <ele>0.0000000</ele>
        <time>2010-01-01T03:06:16Z</time>
      </trkpt>
      <trkpt lat="50.96035699" lon="39.55301790">
        <ele>0.0000000</ele>
        <time>2010-01-01T03:06:36Z</time>
      </trkpt>
      <trkpt lat="50.96071514" lon="39.55285696">
        <ele>0.0000000</ele>
        <time>2010-01-01T03:06:51Z</time>
      </trkpt>
      <trkpt lat="50.96114087" lon="39.55265312">
        <ele>0.0000000</ele>
        <time>2010-01-01T03:07:09Z</time>
      </trkpt>
      <trkpt lat="50.96133684" lon="39.55258874">
        <ele>0.0000000</ele>
        <time>2010-01-01T03:07:17Z</time>
      </trkpt>
      <trkpt lat="50.96162065" lon="39.55287842">
        <ele>0.0000000</ele>
        <time>2010-01-01T03:07:31Z</time>
      </trkpt>
      <trkpt lat="50.96176256" lon="39.55332903">
        <ele>0.0000000</ele>
        <time>2010-01-01T03:07:43Z</time>
      </trkpt>
      <trkpt lat="50.96177607" lon="39.55388693">
        <ele>0.0000000</ele>
        <time>2010-01-01T03:07:57Z</time>
      </trkpt>
      <trkpt lat="50.96183013" lon="39.55441265">
        <ele>0.0000000</ele>
        <time>2010-01-01T03:08:11Z</time>
      </trkpt>
      <trkpt lat="50.96179297" lon="39.55475597">
        <ele>0.0000000</ele>
        <time>2010-01-01T03:08:20Z</time>
      </trkpt>
      <trkpt lat="50.96194501" lon="39.55482571">
        <ele>0.0000000</ele>
        <time>2010-01-01T03:08:26Z</time>
      </trkpt>
      <trkpt lat="50.96204637" lon="39.55486862">
        <ele>0.0000000</ele>
        <time>2010-01-01T03:08:30Z</time>
      </trkpt>
      <trkpt lat="50.96219503" lon="39.55492227">
        <ele>0.0000000</ele>
        <time>2010-01-01T03:08:36Z</time>
      </trkpt>
      <trkpt lat="50.96247884" lon="39.55497591">
        <ele>0.0000000</ele>
        <time>2010-01-01T03:08:48Z</time>
      </trkpt>
      <trkpt lat="50.96743675" lon="39.55694463">
        <ele>0.0000000</ele>
        <time>2010-01-01T03:12:12Z</time>
      </trkpt>
      <trkpt lat="50.96885561" lon="39.55747035">
        <ele>0.0000000</ele>
        <time>2010-01-01T03:13:11Z</time>
      </trkpt>
      <trkpt lat="50.97074737" lon="39.55831792">
        <ele>0.0000000</ele>
        <time>2010-01-01T03:14:29Z</time>
      </trkpt>
      <trkpt lat="50.97159863" lon="39.55911186">
        <ele>0.0000000</ele>
        <time>2010-01-01T03:15:09Z</time>
      </trkpt>
      <trkpt lat="50.97225227" lon="39.56012305">
        <ele>0.0000000</ele>
        <time>2010-01-01T03:15:45Z</time>
      </trkpt>
      <trkpt lat="50.97279612" lon="39.56094917">
        <ele>0.0000000</ele>
        <time>2010-01-01T03:16:15Z</time>
      </trkpt>
      <trkpt lat="50.97397838" lon="39.56273552">
        <ele>0.0000000</ele>
        <time>2010-01-01T03:17:21Z</time>
      </trkpt>
      <trkpt lat="50.97509980" lon="39.56433412">
        <ele>0.0000000</ele>
        <time>2010-01-01T03:18:21Z</time>
      </trkpt>
      <trkpt lat="50.97541055" lon="39.56485983">
        <ele>0.0000000</ele>
        <time>2010-01-01T03:18:39Z</time>
      </trkpt>
      <trkpt lat="50.97565544" lon="39.56527021">
        <ele>0.0000000</ele>
        <time>2010-01-01T03:18:53Z</time>
      </trkpt>
      <trkpt lat="50.97582770" lon="39.56524339">
        <ele>0.0000000</ele>
        <time>2010-01-01T03:19:00Z</time>
      </trkpt>
      <trkpt lat="50.97594254" lon="39.56502345">
        <ele>0.0000000</ele>
        <time>2010-01-01T03:19:08Z</time>
      </trkpt>
      <trkpt lat="50.97609792" lon="39.56456747">
        <ele>0.0000000</ele>
        <time>2010-01-01T03:19:21Z</time>
      </trkpt>
      <trkpt lat="50.97661132" lon="39.56354823">
        <ele>0.0000000</ele>
        <time>2010-01-01T03:19:54Z</time>
      </trkpt>
      <trkpt lat="50.97683762" lon="39.56290450">
        <ele>0.0000000</ele>
        <time>2010-01-01T03:20:12Z</time>
      </trkpt>
      <trkpt lat="50.97734426" lon="39.56172969">
        <ele>0.0000000</ele>
        <time>2010-01-01T03:20:48Z</time>
      </trkpt>
      <trkpt lat="50.97787116" lon="39.56008282">
        <ele>0.0000000</ele>
        <time>2010-01-01T03:21:35Z</time>
      </trkpt>
      <trkpt lat="50.97824945" lon="39.55892947">
        <ele>0.0000000</ele>
        <time>2010-01-01T03:22:07Z</time>
      </trkpt>
      <trkpt lat="50.97855004" lon="39.55807652">
        <ele>0.0000000</ele>
        <time>2010-01-01T03:22:32Z</time>
      </trkpt>
      <trkpt lat="50.97870541" lon="39.55744889">
        <ele>0.0000000</ele>
        <time>2010-01-01T03:22:49Z</time>
      </trkpt>
      <trkpt lat="50.97871554" lon="39.55721285">
        <ele>0.0000000</ele>
        <time>2010-01-01T03:22:55Z</time>
      </trkpt>
      <trkpt lat="50.97844196" lon="39.55498126">
        <ele>0.0000000</ele>
        <time>2010-01-01T03:23:52Z</time>
      </trkpt>
      <trkpt lat="50.97814812" lon="39.55258872">
        <ele>0.0000000</ele>
        <time>2010-01-01T03:24:54Z</time>
      </trkpt>
      <trkpt lat="50.97806368" lon="39.55191281">
        <ele>0.0000000</ele>
        <time>2010-01-01T03:25:11Z</time>
      </trkpt>
      <trkpt lat="50.97793871" lon="39.55154803">
        <ele>0.0000000</ele>
        <time>2010-01-01T03:25:22Z</time>
      </trkpt>
      <trkpt lat="50.97772255" lon="39.55116179">
        <ele>0.0000000</ele>
        <time>2010-01-01T03:25:35Z</time>
      </trkpt>
      <trkpt lat="50.97759420" lon="39.55096867">
        <ele>0.0000000</ele>
        <time>2010-01-01T03:25:42Z</time>
      </trkpt>
      <trkpt lat="50.97748612" lon="39.55055561">
        <ele>0.0000000</ele>
        <time>2010-01-01T03:25:53Z</time>
      </trkpt>
      <trkpt lat="50.97740168" lon="39.55031958">
        <ele>0.0000000</ele>
        <time>2010-01-01T03:26:00Z</time>
      </trkpt>
      <trkpt lat="50.97714498" lon="39.55004063">
        <ele>0.0000000</ele>
        <time>2010-01-01T03:26:12Z</time>
      </trkpt>
      <trkpt lat="50.97646270" lon="39.54983141">
        <ele>0.0000000</ele>
        <time>2010-01-01T03:26:40Z</time>
      </trkpt>
      <trkpt lat="50.97556762" lon="39.54968657">
        <ele>0.0000000</ele>
        <time>2010-01-01T03:27:16Z</time>
      </trkpt>
      <trkpt lat="50.97488531" lon="39.54960611">
        <ele>0.0000000</ele>
        <time>2010-01-01T03:27:43Z</time>
      </trkpt>
      <trkpt lat="50.97477723" lon="39.54956319">
        <ele>0.0000000</ele>
        <time>2010-01-01T03:27:48Z</time>
      </trkpt>
      <trkpt lat="50.97468940" lon="39.54956856">
        <ele>0.0000000</ele>
        <time>2010-01-01T03:27:51Z</time>
      </trkpt>
      <trkpt lat="50.97450700" lon="39.54943981">
        <ele>0.0000000</ele>
        <time>2010-01-01T03:27:59Z</time>
      </trkpt>
      <trkpt lat="50.97449349" lon="39.54928424">
        <ele>0.0000000</ele>
        <time>2010-01-01T03:28:03Z</time>
      </trkpt>
      <trkpt lat="50.97457456" lon="39.54873707">
        <ele>0.0000000</ele>
        <time>2010-01-01T03:28:18Z</time>
      </trkpt>
      <trkpt lat="50.97464211" lon="39.54818454">
        <ele>0.0000000</ele>
        <time>2010-01-01T03:28:32Z</time>
      </trkpt>
      <trkpt lat="50.97477047" lon="39.54707947">
        <ele>0.0000000</ele>
        <time>2010-01-01T03:29:00Z</time>
      </trkpt>
      <trkpt lat="50.97516905" lon="39.54346385">
        <ele>0.0000000</ele>
        <time>2010-01-01T03:30:33Z</time>
      </trkpt>
      <trkpt lat="50.97535144" lon="39.54077091">
        <ele>0.0000000</ele>
        <time>2010-01-01T03:31:41Z</time>
      </trkpt>
      <trkpt lat="50.97550344" lon="39.53811552">
        <ele>0.0000000</ele>
        <time>2010-01-01T03:32:48Z</time>
      </trkpt>
      <trkpt lat="50.97563179" lon="39.53578200">
        <ele>0.0000000</ele>
        <time>2010-01-01T03:33:47Z</time>
      </trkpt>
      <trkpt lat="50.97565882" lon="39.53475203">
        <ele>0.0000000</ele>
        <time>2010-01-01T03:34:13Z</time>
      </trkpt>
      <trkpt lat="50.97543646" lon="39.53249227">
        <ele>0.0000000</ele>
        <time>2010-01-01T03:35:11Z</time>
      </trkpt>
      <trkpt lat="50.97531486" lon="39.53004609">
        <ele>0.0000000</ele>
        <time>2010-01-01T03:36:13Z</time>
      </trkpt>
      <trkpt lat="50.97513922" lon="39.52809345">
        <ele>0.0000000</ele>
        <time>2010-01-01T03:37:02Z</time>
      </trkpt>
      <trkpt lat="50.97511220" lon="39.52558290">
        <ele>0.0000000</ele>
        <time>2010-01-01T03:38:06Z</time>
      </trkpt>
      <trkpt lat="50.97512571" lon="39.52378045">
        <ele>0.0000000</ele>
        <time>2010-01-01T03:38:51Z</time>
      </trkpt>
      <trkpt lat="50.97531486" lon="39.52139865">
        <ele>0.0000000</ele>
        <time>2010-01-01T03:39:51Z</time>
      </trkpt>
      <trkpt lat="50.97538242" lon="39.51985370">
        <ele>0.0000000</ele>
        <time>2010-01-01T03:40:31Z</time>
      </trkpt>
      <trkpt lat="50.97550401" lon="39.51873790">
        <ele>0.0000000</ele>
        <time>2010-01-01T03:40:59Z</time>
      </trkpt>
      <trkpt lat="50.97565263" lon="39.51783668">
        <ele>0.0000000</ele>
        <time>2010-01-01T03:41:23Z</time>
      </trkpt>
      <trkpt lat="50.97577423" lon="39.51740752">
        <ele>0.0000000</ele>
        <time>2010-01-01T03:41:34Z</time>
      </trkpt>
      <trkpt lat="50.97592285" lon="39.51691400">
        <ele>0.0000000</ele>
        <time>2010-01-01T03:41:48Z</time>
      </trkpt>
      <trkpt lat="50.97600391" lon="39.51639901">
        <ele>0.0000000</ele>
        <time>2010-01-01T03:42:02Z</time>
      </trkpt>
      <trkpt lat="50.97607147" lon="39.51569091">
        <ele>0.0000000</ele>
        <time>2010-01-01T03:42:20Z</time>
      </trkpt>
      <trkpt lat="50.97609849" lon="39.51524030">
        <ele>0.0000000</ele>
        <time>2010-01-01T03:42:31Z</time>
      </trkpt>
      <trkpt lat="50.97611200" lon="39.51463949">
        <ele>0.0000000</ele>
        <time>2010-01-01T03:42:46Z</time>
      </trkpt>
      <trkpt lat="50.97616604" lon="39.51408159">
        <ele>0.0000000</ele>
        <time>2010-01-01T03:43:00Z</time>
      </trkpt>
      <trkpt lat="50.97626399" lon="39.51333593">
        <ele>0.0000000</ele>
        <time>2010-01-01T03:43:20Z</time>
      </trkpt>
      <trkpt lat="50.97618293" lon="39.51304625">
        <ele>0.0000000</ele>
        <time>2010-01-01T03:43:28Z</time>
      </trkpt>
      <trkpt lat="50.97605120" lon="39.51288532">
        <ele>0.0000000</ele>
        <time>2010-01-01T03:43:34Z</time>
      </trkpt>
      <trkpt lat="50.97585867" lon="39.51286923">
        <ele>0.0000000</ele>
        <time>2010-01-01T03:43:42Z</time>
      </trkpt>
      <trkpt lat="50.97566952" lon="39.51287459">
        <ele>0.0000000</ele>
        <time>2010-01-01T03:43:50Z</time>
      </trkpt>
      <trkpt lat="50.97552766" lon="39.51291751">
        <ele>0.0000000</ele>
        <time>2010-01-01T03:43:55Z</time>
      </trkpt>
      <trkpt lat="50.97536215" lon="39.51283168">
        <ele>0.0000000</ele>
        <time>2010-01-01T03:44:02Z</time>
      </trkpt>
      <trkpt lat="50.97523042" lon="39.51270293">
        <ele>0.0000000</ele>
        <time>2010-01-01T03:44:08Z</time>
      </trkpt>
      <trkpt lat="50.97511220" lon="39.51217185">
        <ele>0.0000000</ele>
        <time>2010-01-01T03:44:23Z</time>
      </trkpt>
      <trkpt lat="50.97516624" lon="39.51193582">
        <ele>0.0000000</ele>
        <time>2010-01-01T03:44:29Z</time>
      </trkpt>
      <trkpt lat="50.97546010" lon="39.51164614">
        <ele>0.0000000</ele>
        <time>2010-01-01T03:44:43Z</time>
      </trkpt>
      <trkpt lat="50.97569654" lon="39.51145839">
        <ele>0.0000000</ele>
        <time>2010-01-01T03:44:53Z</time>
      </trkpt>
      <trkpt lat="50.97591272" lon="39.51125990">
        <ele>0.0000000</ele>
        <time>2010-01-01T03:45:03Z</time>
      </trkpt>
      <trkpt lat="50.97618631" lon="39.51106678">
        <ele>0.0000000</ele>
        <time>2010-01-01T03:45:15Z</time>
      </trkpt>
      <trkpt lat="50.97639572" lon="39.51097559">
        <ele>0.0000000</ele>
        <time>2010-01-01T03:45:24Z</time>
      </trkpt>
      <trkpt lat="50.97650381" lon="39.51076638">
        <ele>0.0000000</ele>
        <time>2010-01-01T03:45:31Z</time>
      </trkpt>
      <trkpt lat="50.97650043" lon="39.51043378">
        <ele>0.0000000</ele>
        <time>2010-01-01T03:45:39Z</time>
      </trkpt>
      <trkpt lat="50.97646328" lon="39.51015483">
        <ele>0.0000000</ele>
        <time>2010-01-01T03:45:47Z</time>
      </trkpt>
      <trkpt lat="50.97638221" lon="39.50984906">
        <ele>0.0000000</ele>
        <time>2010-01-01T03:45:55Z</time>
      </trkpt>
      <trkpt lat="50.97630453" lon="39.50942527">
        <ele>0.0000000</ele>
        <time>2010-01-01T03:46:06Z</time>
      </trkpt>
      <trkpt lat="50.97628426" lon="39.50916778">
        <ele>0.0000000</ele>
        <time>2010-01-01T03:46:13Z</time>
      </trkpt>
      <trkpt lat="50.97625048" lon="39.50884591">
        <ele>0.0000000</ele>
        <time>2010-01-01T03:46:21Z</time>
      </trkpt>
      <trkpt lat="50.97629102" lon="39.50842212">
        <ele>0.0000000</ele>
        <time>2010-01-01T03:46:32Z</time>
      </trkpt>
      <trkpt lat="50.97644977" lon="39.50817000">
        <ele>0.0000000</ele>
        <time>2010-01-01T03:46:41Z</time>
      </trkpt>
      <trkpt lat="50.97667607" lon="39.50796615">
        <ele>0.0000000</ele>
        <time>2010-01-01T03:46:51Z</time>
      </trkpt>
      <trkpt lat="50.97689561" lon="39.50784277">
        <ele>0.0000000</ele>
        <time>2010-01-01T03:47:00Z</time>
      </trkpt>
      <trkpt lat="50.97716920" lon="39.50771402">
        <ele>0.0000000</ele>
        <time>2010-01-01T03:47:12Z</time>
      </trkpt>
      <trkpt lat="50.97785822" lon="39.50729560">
        <ele>0.0000000</ele>
        <time>2010-01-01T03:47:41Z</time>
      </trkpt>
      <trkpt lat="50.97854048" lon="39.50678061">
        <ele>0.0000000</ele>
        <time>2010-01-01T03:48:11Z</time>
      </trkpt>
      <trkpt lat="50.97933757" lon="39.50609397">
        <ele>0.0000000</ele>
        <time>2010-01-01T03:48:48Z</time>
      </trkpt>
      <trkpt lat="50.97978001" lon="39.50569700">
        <ele>0.0000000</ele>
        <time>2010-01-01T03:49:08Z</time>
      </trkpt>
      <trkpt lat="50.98128631" lon="39.50473141">
        <ele>0.0000000</ele>
        <time>2010-01-01T03:50:13Z</time>
      </trkpt>
      <trkpt lat="50.98252914" lon="39.50391601">
        <ele>0.0000000</ele>
        <time>2010-01-01T03:51:07Z</time>
      </trkpt>
      <trkpt lat="50.98402860" lon="39.50374435">
        <ele>0.0000000</ele>
        <time>2010-01-01T03:52:07Z</time>
      </trkpt>
      <trkpt lat="50.98540643" lon="39.50374435">
        <ele>0.0000000</ele>
        <time>2010-01-01T03:53:02Z</time>
      </trkpt>
      <trkpt lat="50.98601429" lon="39.50372289">
        <ele>0.0000000</ele>
        <time>2010-01-01T03:53:27Z</time>
      </trkpt>
      <trkpt lat="50.98618989" lon="39.50316500">
        <ele>0.0000000</ele>
        <time>2010-01-01T03:53:42Z</time>
      </trkpt>
      <trkpt lat="50.98651407" lon="39.50138401">
        <ele>0.0000000</ele>
        <time>2010-01-01T03:54:29Z</time>
      </trkpt>
      <trkpt lat="50.98678423" lon="39.49971031">
        <ele>0.0000000</ele>
        <time>2010-01-01T03:55:13Z</time>
      </trkpt>
      <trkpt lat="50.98695983" lon="39.49870180">
        <ele>0.0000000</ele>
        <time>2010-01-01T03:55:39Z</time>
      </trkpt>
      <trkpt lat="50.98690580" lon="39.49713539">
        <ele>0.0000000</ele>
        <time>2010-01-01T03:56:19Z</time>
      </trkpt>
      <trkpt lat="50.98682475" lon="39.49438881">
        <ele>0.0000000</ele>
        <time>2010-01-01T03:57:28Z</time>
      </trkpt>
      <trkpt lat="50.98681124" lon="39.49267219">
        <ele>0.0000000</ele>
        <time>2010-01-01T03:58:11Z</time>
      </trkpt>
      <trkpt lat="50.98681124" lon="39.49177097">
        <ele>0.0000000</ele>
        <time>2010-01-01T03:58:34Z</time>
      </trkpt>
      <trkpt lat="50.98682475" lon="39.49093412">
        <ele>0.0000000</ele>
        <time>2010-01-01T03:58:55Z</time>
      </trkpt>
      <trkpt lat="50.98686527" lon="39.49014019">
        <ele>0.0000000</ele>
        <time>2010-01-01T03:59:15Z</time>
      </trkpt>
      <trkpt lat="50.98701386" lon="39.48968958">
        <ele>0.0000000</ele>
        <time>2010-01-01T03:59:28Z</time>
      </trkpt>
      <trkpt lat="50.98725699" lon="39.48958229">
        <ele>0.0000000</ele>
        <time>2010-01-01T03:59:38Z</time>
      </trkpt>
      <trkpt lat="50.98760818" lon="39.48958229">
        <ele>0.0000000</ele>
        <time>2010-01-01T03:59:52Z</time>
      </trkpt>
      <trkpt lat="50.98805392" lon="39.48945354">
        <ele>0.0000000</ele>
        <time>2010-01-01T04:00:10Z</time>
      </trkpt>
      <trkpt lat="50.98835108" lon="39.48941063">
        <ele>0.0000000</ele>
        <time>2010-01-01T04:00:22Z</time>
      </trkpt>
      <trkpt lat="50.98878331" lon="39.48945354">
        <ele>0.0000000</ele>
        <time>2010-01-01T04:00:39Z</time>
      </trkpt>
      <trkpt lat="50.98887786" lon="39.48857378">
        <ele>0.0000000</ele>
        <time>2010-01-01T04:01:02Z</time>
      </trkpt>
      <trkpt lat="50.98885084" lon="39.48786567">
        <ele>0.0000000</ele>
        <time>2010-01-01T04:01:20Z</time>
      </trkpt>
      <trkpt lat="50.98901293" lon="39.47722267">
        <ele>0.0000000</ele>
        <time>2010-01-01T04:05:48Z</time>
      </trkpt>
      <trkpt lat="50.98898591" lon="39.47612833">
        <ele>0.0000000</ele>
        <time>2010-01-01T04:06:16Z</time>
      </trkpt>
      <trkpt lat="50.98870227" lon="39.47471212">
        <ele>0.0000000</ele>
        <time>2010-01-01T04:06:53Z</time>
      </trkpt>
      <trkpt lat="50.98858070" lon="39.47357487">
        <ele>0.0000000</ele>
        <time>2010-01-01T04:07:22Z</time>
      </trkpt>
      <trkpt lat="50.98856720" lon="39.47250198">
        <ele>0.0000000</ele>
        <time>2010-01-01T04:07:49Z</time>
      </trkpt>
      <trkpt lat="50.98841862" lon="39.47035621">
        <ele>0.0000000</ele>
        <time>2010-01-01T04:08:43Z</time>
      </trkpt>
      <trkpt lat="50.98841862" lon="39.46917604">
        <ele>0.0000000</ele>
        <time>2010-01-01T04:09:13Z</time>
      </trkpt>
      <trkpt lat="50.98841862" lon="39.46786712">
        <ele>0.0000000</ele>
        <time>2010-01-01T04:09:46Z</time>
      </trkpt>
      <trkpt lat="50.98844563" lon="39.46724485">
        <ele>0.0000000</ele>
        <time>2010-01-01T04:10:02Z</time>
      </trkpt>
      <trkpt lat="50.98844563" lon="39.46617197">
        <ele>0.0000000</ele>
        <time>2010-01-01T04:10:29Z</time>
      </trkpt>
      <trkpt lat="50.98843212" lon="39.46546387">
        <ele>0.0000000</ele>
        <time>2010-01-01T04:10:47Z</time>
      </trkpt>
      <trkpt lat="50.98859421" lon="39.46456264">
        <ele>0.0000000</ele>
        <time>2010-01-01T04:11:10Z</time>
      </trkpt>
      <trkpt lat="50.98870227" lon="39.46327518">
        <ele>0.0000000</ele>
        <time>2010-01-01T04:11:43Z</time>
      </trkpt>
      <trkpt lat="50.98876980" lon="39.46243833">
        <ele>0.0000000</ele>
        <time>2010-01-01T04:12:04Z</time>
      </trkpt>
      <trkpt lat="50.98878331" lon="39.46177315">
        <ele>0.0000000</ele>
        <time>2010-01-01T04:12:21Z</time>
      </trkpt>
      <trkpt lat="50.98895890" lon="39.45827554">
        <ele>0.0000000</ele>
        <time>2010-01-01T04:13:50Z</time>
      </trkpt>
      <trkpt lat="50.98894539" lon="39.45497106">
        <ele>0.0000000</ele>
        <time>2010-01-01T04:15:13Z</time>
      </trkpt>
      <trkpt lat="50.98894539" lon="39.45273947">
        <ele>0.0000000</ele>
        <time>2010-01-01T04:16:09Z</time>
      </trkpt>
      <trkpt lat="50.98906695" lon="39.45076536">
        <ele>0.0000000</ele>
        <time>2010-01-01T04:16:59Z</time>
      </trkpt>
      <trkpt lat="50.98922904" lon="39.44949936">
        <ele>0.0000000</ele>
        <time>2010-01-01T04:17:32Z</time>
      </trkpt>
      <trkpt lat="50.98948567" lon="39.44859813">
        <ele>0.0000000</ele>
        <time>2010-01-01T04:17:57Z</time>
      </trkpt>
      <trkpt lat="50.98979632" lon="39.44743942">
        <ele>0.0000000</ele>
        <time>2010-01-01T04:18:28Z</time>
      </trkpt>
      <trkpt lat="50.99021503" lon="39.44647383">
        <ele>0.0000000</ele>
        <time>2010-01-01T04:18:58Z</time>
      </trkpt>
      <trkpt lat="50.99059321" lon="39.44552969">
        <ele>0.0000000</ele>
        <time>2010-01-01T04:19:26Z</time>
      </trkpt>
      <trkpt lat="50.99106594" lon="39.44366287">
        <ele>0.0000000</ele>
        <time>2010-01-01T04:20:17Z</time>
      </trkpt>
      <trkpt lat="50.99176826" lon="39.44198917">
        <ele>0.0000000</ele>
        <time>2010-01-01T04:21:07Z</time>
      </trkpt>
      <trkpt lat="50.99253811" lon="39.44040130">
        <ele>0.0000000</ele>
        <time>2010-01-01T04:21:58Z</time>
      </trkpt>
      <trkpt lat="50.99310535" lon="39.43973612">
        <ele>0.0000000</ele>
        <time>2010-01-01T04:22:26Z</time>
      </trkpt>
      <trkpt lat="50.99426683" lon="39.43883489">
        <ele>0.0000000</ele>
        <time>2010-01-01T04:23:18Z</time>
      </trkpt>
      <trkpt lat="50.99533375" lon="39.43881344">
        <ele>0.0000000</ele>
        <time>2010-01-01T04:24:01Z</time>
      </trkpt>
      <trkpt lat="50.99667073" lon="39.43889927">
        <ele>0.0000000</ele>
        <time>2010-01-01T04:24:54Z</time>
      </trkpt>
      <trkpt lat="50.99788614" lon="39.43862032">
        <ele>0.0000000</ele>
        <time>2010-01-01T04:25:43Z</time>
      </trkpt>
      <trkpt lat="50.99915554" lon="39.43797659">
        <ele>0.0000000</ele>
        <time>2010-01-01T04:26:37Z</time>
      </trkpt>
      <trkpt lat="51.00057343" lon="39.43701099">
        <ele>0.0000000</ele>
        <time>2010-01-01T04:27:38Z</time>
      </trkpt>
      <trkpt lat="51.00240989" lon="39.43628143">
        <ele>0.0000000</ele>
        <time>2010-01-01T04:28:54Z</time>
      </trkpt>
      <trkpt lat="51.00366565" lon="39.43525146">
        <ele>0.0000000</ele>
        <time>2010-01-01T04:29:51Z</time>
      </trkpt>
      <trkpt lat="51.00446230" lon="39.43439316">
        <ele>0.0000000</ele>
        <time>2010-01-01T04:30:29Z</time>
      </trkpt>
      <trkpt lat="51.00555599" lon="39.43379234">
        <ele>0.0000000</ele>
        <time>2010-01-01T04:31:16Z</time>
      </trkpt>
      <trkpt lat="51.00652813" lon="39.43306278">
        <ele>0.0000000</ele>
        <time>2010-01-01T04:31:59Z</time>
      </trkpt>
      <trkpt lat="51.00685218" lon="39.43235468">
        <ele>0.0000000</ele>
        <time>2010-01-01T04:32:21Z</time>
      </trkpt>
      <trkpt lat="51.00717622" lon="39.43136762">
        <ele>0.0000000</ele>
        <time>2010-01-01T04:32:49Z</time>
      </trkpt>
      <trkpt lat="51.00747325" lon="39.43078827">
        <ele>0.0000000</ele>
        <time>2010-01-01T04:33:08Z</time>
      </trkpt>
      <trkpt lat="51.00785130" lon="39.42937206">
        <ele>0.0000000</ele>
        <time>2010-01-01T04:33:46Z</time>
      </trkpt>
      <trkpt lat="51.00824284" lon="39.42836355">
        <ele>0.0000000</ele>
        <time>2010-01-01T04:34:16Z</time>
      </trkpt>
      <trkpt lat="51.00855337" lon="39.42744087">
        <ele>0.0000000</ele>
        <time>2010-01-01T04:34:43Z</time>
      </trkpt>
      <trkpt lat="51.00885039" lon="39.42666839">
        <ele>0.0000000</ele>
        <time>2010-01-01T04:35:05Z</time>
      </trkpt>
      <trkpt lat="51.00902591" lon="39.42596029">
        <ele>0.0000000</ele>
        <time>2010-01-01T04:35:24Z</time>
      </trkpt>
      <trkpt lat="51.00903941" lon="39.42473720">
        <ele>0.0000000</ele>
        <time>2010-01-01T04:35:55Z</time>
      </trkpt>
      <trkpt lat="51.00917442" lon="39.42413639">
        <ele>0.0000000</ele>
        <time>2010-01-01T04:36:11Z</time>
      </trkpt>
      <trkpt lat="51.00939044" lon="39.42340683">
        <ele>0.0000000</ele>
        <time>2010-01-01T04:36:32Z</time>
      </trkpt>
      <trkpt lat="51.00967396" lon="39.42297767">
        <ele>0.0000000</ele>
        <time>2010-01-01T04:36:47Z</time>
      </trkpt>
      <trkpt lat="51.00999798" lon="39.42248415">
        <ele>0.0000000</ele>
        <time>2010-01-01T04:37:05Z</time>
      </trkpt>
      <trkpt lat="51.01034900" lon="39.42164730">
        <ele>0.0000000</ele>
        <time>2010-01-01T04:37:31Z</time>
      </trkpt>
      <trkpt lat="51.01045700" lon="39.42093920">
        <ele>0.0000000</ele>
        <time>2010-01-01T04:37:49Z</time>
      </trkpt>
      <trkpt lat="51.01052451" lon="39.42035984">
        <ele>0.0000000</ele>
        <time>2010-01-01T04:38:04Z</time>
      </trkpt>
      <trkpt lat="51.01075402" lon="39.42008089">
        <ele>0.0000000</ele>
        <time>2010-01-01T04:38:15Z</time>
      </trkpt>
      <trkpt lat="51.01115904" lon="39.42027401">
        <ele>0.0000000</ele>
        <time>2010-01-01T04:38:32Z</time>
      </trkpt>
      <trkpt lat="51.01134804" lon="39.42016672">
        <ele>0.0000000</ele>
        <time>2010-01-01T04:38:40Z</time>
      </trkpt>
      <trkpt lat="51.01155055" lon="39.41898655">
        <ele>0.0000000</ele>
        <time>2010-01-01T04:39:11Z</time>
      </trkpt>
      <trkpt lat="51.01161805" lon="39.41823553">
        <ele>0.0000000</ele>
        <time>2010-01-01T04:39:30Z</time>
      </trkpt>
      <trkpt lat="51.01180706" lon="39.41744159">
        <ele>0.0000000</ele>
        <time>2010-01-01T04:39:52Z</time>
      </trkpt>
      <trkpt lat="51.01191506" lon="39.41696953">
        <ele>0.0000000</ele>
        <time>2010-01-01T04:40:04Z</time>
      </trkpt>
      <trkpt lat="51.01211756" lon="39.41516708">
        <ele>0.0000000</ele>
        <time>2010-01-01T04:40:50Z</time>
      </trkpt>
      <trkpt lat="51.01240107" lon="39.41413711">
        <ele>0.0000000</ele>
        <time>2010-01-01T04:41:19Z</time>
      </trkpt>
      <trkpt lat="51.01253607" lon="39.41342901">
        <ele>0.0000000</ele>
        <time>2010-01-01T04:41:37Z</time>
      </trkpt>
      <trkpt lat="51.01263057" lon="39.41246342">
        <ele>0.0000000</ele>
        <time>2010-01-01T04:42:02Z</time>
      </trkpt>
      <trkpt lat="51.01252257" lon="39.41089700">
        <ele>0.0000000</ele>
        <time>2010-01-01T04:42:42Z</time>
      </trkpt>
      <trkpt lat="51.01240107" lon="39.40971683">
        <ele>0.0000000</ele>
        <time>2010-01-01T04:43:12Z</time>
      </trkpt>
      <trkpt lat="51.01232007" lon="39.40765690">
        <ele>0.0000000</ele>
        <time>2010-01-01T04:44:04Z</time>
      </trkpt>
      <trkpt lat="51.01225256" lon="39.40707754">
        <ele>0.0000000</ele>
        <time>2010-01-01T04:44:19Z</time>
      </trkpt>
      <trkpt lat="51.01229306" lon="39.40594028">
        <ele>0.0000000</ele>
        <time>2010-01-01T04:44:47Z</time>
      </trkpt>
      <trkpt lat="51.01242807" lon="39.40445970">
        <ele>0.0000000</ele>
        <time>2010-01-01T04:45:25Z</time>
      </trkpt>
      <trkpt lat="51.01257657" lon="39.40276455">
        <ele>0.0000000</ele>
        <time>2010-01-01T04:46:08Z</time>
      </trkpt>
      <trkpt lat="51.01260357" lon="39.40207790">
        <ele>0.0000000</ele>
        <time>2010-01-01T04:46:25Z</time>
      </trkpt>
      <trkpt lat="51.01240686" lon="39.40065538">
        <ele>0.0000000</ele>
        <time>2010-01-01T04:47:02Z</time>
      </trkpt>
      <trkpt lat="51.01220435" lon="39.39949666">
        <ele>0.0000000</ele>
        <time>2010-01-01T04:47:32Z</time>
      </trkpt>
      <trkpt lat="51.01212335" lon="39.39870273">
        <ele>0.0000000</ele>
        <time>2010-01-01T04:47:53Z</time>
      </trkpt>
      <trkpt lat="51.01186685" lon="39.39762985">
        <ele>0.0000000</ele>
        <time>2010-01-01T04:48:22Z</time>
      </trkpt>
      <trkpt lat="51.01171159" lon="39.39690029">
        <ele>0.0000000</ele>
        <time>2010-01-01T04:48:41Z</time>
      </trkpt>
      <trkpt lat="51.01154284" lon="39.39610635">
        <ele>0.0000000</ele>
        <time>2010-01-01T04:49:02Z</time>
      </trkpt>
      <trkpt lat="51.01133358" lon="39.39504420">
        <ele>0.0000000</ele>
        <time>2010-01-01T04:49:30Z</time>
      </trkpt>
      <trkpt lat="51.01120533" lon="39.39452921">
        <ele>0.0000000</ele>
        <time>2010-01-01T04:49:44Z</time>
      </trkpt>
      <trkpt lat="51.01110407" lon="39.39341341">
        <ele>0.0000000</ele>
        <time>2010-01-01T04:50:12Z</time>
      </trkpt>
      <trkpt lat="51.01103657" lon="39.39270531">
        <ele>0.0000000</ele>
        <time>2010-01-01T04:50:30Z</time>
      </trkpt>
      <trkpt lat="51.01102982" lon="39.39191138">
        <ele>0.0000000</ele>
        <time>2010-01-01T04:50:50Z</time>
      </trkpt>
      <trkpt lat="51.01103657" lon="39.39126765">
        <ele>0.0000000</ele>
        <time>2010-01-01T04:51:07Z</time>
      </trkpt>
      <trkpt lat="51.01105007" lon="39.39033424">
        <ele>0.0000000</ele>
        <time>2010-01-01T04:51:30Z</time>
      </trkpt>
      <trkpt lat="51.01105007" lon="39.38973342">
        <ele>0.0000000</ele>
        <time>2010-01-01T04:51:45Z</time>
      </trkpt>
      <trkpt lat="51.01105682" lon="39.38929354">
        <ele>0.0000000</ele>
        <time>2010-01-01T04:51:56Z</time>
      </trkpt>
      <trkpt lat="51.01109732" lon="39.38885366">
        <ele>0.0000000</ele>
        <time>2010-01-01T04:52:08Z</time>
      </trkpt>
      <trkpt lat="51.01111082" lon="39.38841378">
        <ele>0.0000000</ele>
        <time>2010-01-01T04:52:19Z</time>
      </trkpt>
      <trkpt lat="51.01111757" lon="39.38815628">
        <ele>0.0000000</ele>
        <time>2010-01-01T04:52:25Z</time>
      </trkpt>
      <trkpt lat="51.01113783" lon="39.38799535">
        <ele>0.0000000</ele>
        <time>2010-01-01T04:52:29Z</time>
      </trkpt>
      <trkpt lat="51.01119183" lon="39.38784515">
        <ele>0.0000000</ele>
        <time>2010-01-01T04:52:34Z</time>
      </trkpt>
      <trkpt lat="51.01144834" lon="39.38763057">
        <ele>0.0000000</ele>
        <time>2010-01-01T04:52:45Z</time>
      </trkpt>
      <trkpt lat="51.01159009" lon="39.38754474">
        <ele>0.0000000</ele>
        <time>2010-01-01T04:52:51Z</time>
      </trkpt>
      <trkpt lat="51.01177910" lon="39.38746964">
        <ele>0.0000000</ele>
        <time>2010-01-01T04:52:59Z</time>
      </trkpt>
      <trkpt lat="51.01201535" lon="39.38739454">
        <ele>0.0000000</ele>
        <time>2010-01-01T04:53:09Z</time>
      </trkpt>
      <trkpt lat="51.01231235" lon="39.38727652">
        <ele>0.0000000</ele>
        <time>2010-01-01T04:53:21Z</time>
      </trkpt>
      <trkpt lat="51.01262286" lon="39.38709413">
        <ele>0.0000000</ele>
        <time>2010-01-01T04:53:34Z</time>
      </trkpt>
      <trkpt lat="51.01361510" lon="39.38683664">
        <ele>0.0000000</ele>
        <time>2010-01-01T04:54:15Z</time>
      </trkpt>
      <trkpt lat="51.01445208" lon="39.38664352">
        <ele>0.0000000</ele>
        <time>2010-01-01T04:54:48Z</time>
      </trkpt>
      <trkpt lat="51.01485707" lon="39.38652550">
        <ele>0.0000000</ele>
        <time>2010-01-01T04:55:05Z</time>
      </trkpt>
      <trkpt lat="51.01522830" lon="39.38653623">
        <ele>0.0000000</ele>
        <time>2010-01-01T04:55:20Z</time>
      </trkpt>
      <trkpt lat="51.01555228" lon="39.38670789">
        <ele>0.0000000</ele>
        <time>2010-01-01T04:55:33Z</time>
      </trkpt>
      <trkpt lat="51.01587626" lon="39.38695465">
        <ele>0.0000000</ele>
        <time>2010-01-01T04:55:48Z</time>
      </trkpt>
      <trkpt lat="51.01603825" lon="39.38707267">
        <ele>0.0000000</ele>
        <time>2010-01-01T04:55:55Z</time>
      </trkpt>
      <trkpt lat="51.01617324" lon="39.38682591">
        <ele>0.0000000</ele>
        <time>2010-01-01T04:56:03Z</time>
      </trkpt>
      <trkpt lat="51.01647697" lon="39.38668643">
        <ele>0.0000000</ele>
        <time>2010-01-01T04:56:16Z</time>
      </trkpt>
      <trkpt lat="51.01659171" lon="39.38649331">
        <ele>0.0000000</ele>
        <time>2010-01-01T04:56:23Z</time>
      </trkpt>
      <trkpt lat="51.01667945" lon="39.38622509">
        <ele>0.0000000</ele>
        <time>2010-01-01T04:56:30Z</time>
      </trkpt>
      <trkpt lat="51.01676045" lon="39.38611781">
        <ele>0.0000000</ele>
        <time>2010-01-01T04:56:34Z</time>
      </trkpt>
      <trkpt lat="51.01683469" lon="39.38605343">
        <ele>0.0000000</ele>
        <time>2010-01-01T04:56:38Z</time>
      </trkpt>
      <trkpt lat="51.01696293" lon="39.38593541">
        <ele>0.0000000</ele>
        <time>2010-01-01T04:56:44Z</time>
      </trkpt>
      <trkpt lat="51.01704392" lon="39.38590323">
        <ele>0.0000000</ele>
        <time>2010-01-01T04:56:47Z</time>
      </trkpt>
      <trkpt lat="51.01722616" lon="39.38549553">
        <ele>0.0000000</ele>
        <time>2010-01-01T04:57:00Z</time>
      </trkpt>
      <trkpt lat="51.01734089" lon="39.38522731">
        <ele>0.0000000</ele>
        <time>2010-01-01T04:57:08Z</time>
      </trkpt>
      <trkpt lat="51.01746913" lon="39.38499128">
        <ele>0.0000000</ele>
        <time>2010-01-01T04:57:16Z</time>
      </trkpt>
      <trkpt lat="51.01756362" lon="39.38470160">
        <ele>0.0000000</ele>
        <time>2010-01-01T04:57:24Z</time>
      </trkpt>
      <trkpt lat="51.01770536" lon="39.38429390">
        <ele>0.0000000</ele>
        <time>2010-01-01T04:57:36Z</time>
      </trkpt>
      <trkpt lat="51.01782010" lon="39.38400422">
        <ele>0.0000000</ele>
        <time>2010-01-01T04:57:44Z</time>
      </trkpt>
      <trkpt lat="51.01792133" lon="39.38374673">
        <ele>0.0000000</ele>
        <time>2010-01-01T04:57:52Z</time>
      </trkpt>
      <trkpt lat="51.01811031" lon="39.38339268">
        <ele>0.0000000</ele>
        <time>2010-01-01T04:58:04Z</time>
      </trkpt>
      <trkpt lat="51.01823855" lon="39.38316738">
        <ele>0.0000000</ele>
        <time>2010-01-01T04:58:11Z</time>
      </trkpt>
      <trkpt lat="51.01844103" lon="39.38280259">
        <ele>0.0000000</ele>
        <time>2010-01-01T04:58:23Z</time>
      </trkpt>
      <trkpt lat="51.01864350" lon="39.38242709">
        <ele>0.0000000</ele>
        <time>2010-01-01T04:58:36Z</time>
      </trkpt>
      <trkpt lat="51.01903495" lon="39.38175117">
        <ele>0.0000000</ele>
        <time>2010-01-01T04:58:59Z</time>
      </trkpt>
      <trkpt lat="51.01933866" lon="39.38130056">
        <ele>0.0000000</ele>
        <time>2010-01-01T04:59:16Z</time>
      </trkpt>
      <trkpt lat="51.01960187" lon="39.38087140">
        <ele>0.0000000</ele>
        <time>2010-01-01T04:59:31Z</time>
      </trkpt>
      <trkpt lat="51.01980434" lon="39.38066756">
        <ele>0.0000000</ele>
        <time>2010-01-01T04:59:40Z</time>
      </trkpt>
      <trkpt lat="51.01993257" lon="39.38039934">
        <ele>0.0000000</ele>
        <time>2010-01-01T04:59:49Z</time>
      </trkpt>
      <trkpt lat="51.01983134" lon="39.38021695">
        <ele>0.0000000</ele>
        <time>2010-01-01T04:59:55Z</time>
      </trkpt>
      <trkpt lat="51.01986508" lon="39.37999164">
        <ele>0.0000000</ele>
        <time>2010-01-01T05:00:01Z</time>
      </trkpt>
      <trkpt lat="51.01993257" lon="39.37969123">
        <ele>0.0000000</ele>
        <time>2010-01-01T05:00:09Z</time>
      </trkpt>
      <trkpt lat="51.02000006" lon="39.37948738">
        <ele>0.0000000</ele>
        <time>2010-01-01T05:00:15Z</time>
      </trkpt>
      <trkpt lat="51.02008105" lon="39.37928354">
        <ele>0.0000000</ele>
        <time>2010-01-01T05:00:21Z</time>
      </trkpt>
      <trkpt lat="51.02024302" lon="39.37860762">
        <ele>0.0000000</ele>
        <time>2010-01-01T05:00:39Z</time>
      </trkpt>
      <trkpt lat="51.02032401" lon="39.37824284">
        <ele>0.0000000</ele>
        <time>2010-01-01T05:00:49Z</time>
      </trkpt>
      <trkpt lat="51.02039825" lon="39.37789952">
        <ele>0.0000000</ele>
        <time>2010-01-01T05:00:58Z</time>
      </trkpt>
      <trkpt lat="51.02043199" lon="39.37772786">
        <ele>0.0000000</ele>
        <time>2010-01-01T05:01:02Z</time>
      </trkpt>
      <trkpt lat="51.02050623" lon="39.37758838">
        <ele>0.0000000</ele>
        <time>2010-01-01T05:01:07Z</time>
      </trkpt>
      <trkpt lat="51.02062096" lon="39.37736307">
        <ele>0.0000000</ele>
        <time>2010-01-01T05:01:14Z</time>
      </trkpt>
      <trkpt lat="51.02067495" lon="39.37713777">
        <ele>0.0000000</ele>
        <time>2010-01-01T05:01:20Z</time>
      </trkpt>
      <trkpt lat="51.02073569" lon="39.37681590">
        <ele>0.0000000</ele>
        <time>2010-01-01T05:01:29Z</time>
      </trkpt>
      <trkpt lat="51.02078294" lon="39.37632238">
        <ele>0.0000000</ele>
        <time>2010-01-01T05:01:41Z</time>
      </trkpt>
      <trkpt lat="51.02078294" lon="39.37568938">
        <ele>0.0000000</ele>
        <time>2010-01-01T05:01:57Z</time>
      </trkpt>
      <trkpt lat="51.02084030" lon="39.37484180">
        <ele>0.0000000</ele>
        <time>2010-01-01T05:02:19Z</time>
      </trkpt>
      <trkpt lat="51.02086392" lon="39.37414979">
        <ele>0.0000000</ele>
        <time>2010-01-01T05:02:36Z</time>
      </trkpt>
      <trkpt lat="51.02086730" lon="39.37318419">
        <ele>0.0000000</ele>
        <time>2010-01-01T05:03:00Z</time>
      </trkpt>
      <trkpt lat="51.02085380" lon="39.37272822">
        <ele>0.0000000</ele>
        <time>2010-01-01T05:03:12Z</time>
      </trkpt>
      <trkpt lat="51.02085380" lon="39.37224542">
        <ele>0.0000000</ele>
        <time>2010-01-01T05:03:24Z</time>
      </trkpt>
      <trkpt lat="51.02077619" lon="39.37152659">
        <ele>0.0000000</ele>
        <time>2010-01-01T05:03:42Z</time>
      </trkpt>
      <trkpt lat="51.02071545" lon="39.37102770">
        <ele>0.0000000</ele>
        <time>2010-01-01T05:03:55Z</time>
      </trkpt>
      <trkpt lat="51.02067833" lon="39.37052881">
        <ele>0.0000000</ele>
        <time>2010-01-01T05:04:08Z</time>
      </trkpt>
      <trkpt lat="51.02065808" lon="39.37004064">
        <ele>0.0000000</ele>
        <time>2010-01-01T05:04:20Z</time>
      </trkpt>
      <trkpt lat="51.02065808" lon="39.36948274">
        <ele>0.0000000</ele>
        <time>2010-01-01T05:04:34Z</time>
      </trkpt>
      <trkpt lat="51.02065808" lon="39.36915015">
        <ele>0.0000000</ele>
        <time>2010-01-01T05:04:43Z</time>
      </trkpt>
      <trkpt lat="51.02069520" lon="39.36884438">
        <ele>0.0000000</ele>
        <time>2010-01-01T05:04:51Z</time>
      </trkpt>
      <trkpt lat="51.02067158" lon="39.36836158">
        <ele>0.0000000</ele>
        <time>2010-01-01T05:05:03Z</time>
      </trkpt>
      <trkpt lat="51.02061421" lon="39.36814164">
        <ele>0.0000000</ele>
        <time>2010-01-01T05:05:09Z</time>
      </trkpt>
      <trkpt lat="51.02048261" lon="39.36799144">
        <ele>0.0000000</ele>
        <time>2010-01-01T05:05:15Z</time>
      </trkpt>
      <trkpt lat="51.02033076" lon="39.36785733">
        <ele>0.0000000</ele>
        <time>2010-01-01T05:05:22Z</time>
      </trkpt>
      <trkpt lat="51.02019578" lon="39.36768566">
        <ele>0.0000000</ele>
        <time>2010-01-01T05:05:29Z</time>
      </trkpt>
      <trkpt lat="51.02002031" lon="39.36725651">
        <ele>0.0000000</ele>
        <time>2010-01-01T05:05:42Z</time>
      </trkpt>
      <trkpt lat="51.01995957" lon="39.36717605">
        <ele>0.0000000</ele>
        <time>2010-01-01T05:05:45Z</time>
      </trkpt>
      <trkpt lat="51.01985833" lon="39.36702584">
        <ele>0.0000000</ele>
        <time>2010-01-01T05:05:51Z</time>
      </trkpt>
      <trkpt lat="51.01976385" lon="39.36685418">
        <ele>0.0000000</ele>
        <time>2010-01-01T05:05:56Z</time>
      </trkpt>
      <trkpt lat="51.01965924" lon="39.36653231">
        <ele>0.0000000</ele>
        <time>2010-01-01T05:06:06Z</time>
      </trkpt>
      <trkpt lat="51.01961537" lon="39.36626409">
        <ele>0.0000000</ele>
        <time>2010-01-01T05:06:13Z</time>
      </trkpt>
      <trkpt lat="51.01954451" lon="39.36577593">
        <ele>0.0000000</ele>
        <time>2010-01-01T05:06:25Z</time>
      </trkpt>
      <trkpt lat="51.01947364" lon="39.36544334">
        <ele>0.0000000</ele>
        <time>2010-01-01T05:06:34Z</time>
      </trkpt>
      <trkpt lat="51.01935216" lon="39.36530923">
        <ele>0.0000000</ele>
        <time>2010-01-01T05:06:40Z</time>
      </trkpt>
      <trkpt lat="51.01911257" lon="39.36501418">
        <ele>0.0000000</ele>
        <time>2010-01-01T05:06:52Z</time>
      </trkpt>
      <trkpt lat="51.01900458" lon="39.36479961">
        <ele>0.0000000</ele>
        <time>2010-01-01T05:06:59Z</time>
      </trkpt>
      <trkpt lat="51.01884260" lon="39.36454748">
        <ele>0.0000000</ele>
        <time>2010-01-01T05:07:08Z</time>
      </trkpt>
      <trkpt lat="51.01865025" lon="39.36439191">
        <ele>0.0000000</ele>
        <time>2010-01-01T05:07:17Z</time>
      </trkpt>
      <trkpt lat="51.01852202" lon="39.36432217">
        <ele>0.0000000</ele>
        <time>2010-01-01T05:07:22Z</time>
      </trkpt>
      <trkpt lat="51.01833304" lon="39.36415588">
        <ele>0.0000000</ele>
        <time>2010-01-01T05:07:31Z</time>
      </trkpt>
      <trkpt lat="51.01809682" lon="39.36397349">
        <ele>0.0000000</ele>
        <time>2010-01-01T05:07:41Z</time>
      </trkpt>
      <trkpt lat="51.01783022" lon="39.36375355">
        <ele>0.0000000</ele>
        <time>2010-01-01T05:07:53Z</time>
      </trkpt>
      <trkpt lat="51.01760074" lon="39.36360871">
        <ele>0.0000000</ele>
        <time>2010-01-01T05:08:03Z</time>
      </trkpt>
      <trkpt lat="51.01734764" lon="39.36346387">
        <ele>0.0000000</ele>
        <time>2010-01-01T05:08:14Z</time>
      </trkpt>
      <trkpt lat="51.01716879" lon="39.36345850">
        <ele>0.0000000</ele>
        <time>2010-01-01T05:08:21Z</time>
      </trkpt>
      <trkpt lat="51.01696293" lon="39.36349069">
        <ele>0.0000000</ele>
        <time>2010-01-01T05:08:29Z</time>
      </trkpt>
      <trkpt lat="51.01659846" lon="39.36350678">
        <ele>0.0000000</ele>
        <time>2010-01-01T05:08:44Z</time>
      </trkpt>
      <trkpt lat="51.01631498" lon="39.36339413">
        <ele>0.0000000</ele>
        <time>2010-01-01T05:08:56Z</time>
      </trkpt>
      <trkpt lat="51.01570077" lon="39.36327611">
        <ele>0.0000000</ele>
        <time>2010-01-01T05:09:20Z</time>
      </trkpt>
      <trkpt lat="51.01542404" lon="39.36319565">
        <ele>0.0000000</ele>
        <time>2010-01-01T05:09:32Z</time>
      </trkpt>
      <trkpt lat="51.01522492" lon="39.36317955">
        <ele>0.0000000</ele>
        <time>2010-01-01T05:09:40Z</time>
      </trkpt>
      <trkpt lat="51.01501906" lon="39.36315810">
        <ele>0.0000000</ele>
        <time>2010-01-01T05:09:48Z</time>
      </trkpt>
      <trkpt lat="51.01484019" lon="39.36316882">
        <ele>0.0000000</ele>
        <time>2010-01-01T05:09:55Z</time>
      </trkpt>
      <trkpt lat="51.01457358" lon="39.36326538">
        <ele>0.0000000</ele>
        <time>2010-01-01T05:10:06Z</time>
      </trkpt>
      <trkpt lat="51.01428334" lon="39.36343168">
        <ele>0.0000000</ele>
        <time>2010-01-01T05:10:18Z</time>
      </trkpt>
      <trkpt lat="51.01401334" lon="39.36346923">
        <ele>0.0000000</ele>
        <time>2010-01-01T05:10:29Z</time>
      </trkpt>
      <trkpt lat="51.01379060" lon="39.36341022">
        <ele>0.0000000</ele>
        <time>2010-01-01T05:10:38Z</time>
      </trkpt>
      <trkpt lat="51.01358135" lon="39.36343705">
        <ele>0.0000000</ele>
        <time>2010-01-01T05:10:47Z</time>
      </trkpt>
      <trkpt lat="51.01336536" lon="39.36347996">
        <ele>0.0000000</ele>
        <time>2010-01-01T05:10:55Z</time>
      </trkpt>
      <trkpt lat="51.01314261" lon="39.36352288">
        <ele>0.0000000</ele>
        <time>2010-01-01T05:11:04Z</time>
      </trkpt>
      <trkpt lat="51.01297048" lon="39.36357652">
        <ele>0.0000000</ele>
        <time>2010-01-01T05:11:11Z</time>
      </trkpt>
      <trkpt lat="51.01272411" lon="39.36364626">
        <ele>0.0000000</ele>
        <time>2010-01-01T05:11:21Z</time>
      </trkpt>
      <trkpt lat="51.01250136" lon="39.36366235">
        <ele>0.0000000</ele>
        <time>2010-01-01T05:11:30Z</time>
      </trkpt>
      <trkpt lat="51.01233598" lon="39.36360871">
        <ele>0.0000000</ele>
        <time>2010-01-01T05:11:37Z</time>
      </trkpt>
      <trkpt lat="51.01218410" lon="39.36344241">
        <ele>0.0000000</ele>
        <time>2010-01-01T05:11:44Z</time>
      </trkpt>
      <trkpt lat="51.01203898" lon="39.36332439">
        <ele>0.0000000</ele>
        <time>2010-01-01T05:11:51Z</time>
      </trkpt>
      <trkpt lat="51.01188035" lon="39.36319565">
        <ele>0.0000000</ele>
        <time>2010-01-01T05:11:58Z</time>
      </trkpt>
      <trkpt lat="51.01172847" lon="39.36311518">
        <ele>0.0000000</ele>
        <time>2010-01-01T05:12:05Z</time>
      </trkpt>
      <trkpt lat="51.01157997" lon="39.36312055">
        <ele>0.0000000</ele>
        <time>2010-01-01T05:12:10Z</time>
      </trkpt>
      <trkpt lat="51.01142471" lon="39.36309372">
        <ele>0.0000000</ele>
        <time>2010-01-01T05:12:17Z</time>
      </trkpt>
      <trkpt lat="51.01110070" lon="39.36305617">
        <ele>0.0000000</ele>
        <time>2010-01-01T05:12:30Z</time>
      </trkpt>
      <trkpt lat="51.01080369" lon="39.36299180">
        <ele>0.0000000</ele>
        <time>2010-01-01T05:12:42Z</time>
      </trkpt>
      <trkpt lat="51.01043917" lon="39.36291670">
        <ele>0.0000000</ele>
        <time>2010-01-01T05:12:56Z</time>
      </trkpt>
      <trkpt lat="51.01005440" lon="39.36284160">
        <ele>0.0000000</ele>
        <time>2010-01-01T05:13:12Z</time>
      </trkpt>
      <trkpt lat="51.00970337" lon="39.36278795">
        <ele>0.0000000</ele>
        <time>2010-01-01T05:13:26Z</time>
      </trkpt>
      <trkpt lat="51.00931185" lon="39.36268066">
        <ele>0.0000000</ele>
        <time>2010-01-01T05:13:42Z</time>
      </trkpt>
      <trkpt lat="51.00898782" lon="39.36254119">
        <ele>0.0000000</ele>
        <time>2010-01-01T05:13:55Z</time>
      </trkpt>
      <trkpt lat="51.00865029" lon="39.36234807">
        <ele>0.0000000</ele>
        <time>2010-01-01T05:14:10Z</time>
      </trkpt>
      <trkpt lat="51.00836001" lon="39.36226224">
        <ele>0.0000000</ele>
        <time>2010-01-01T05:14:22Z</time>
      </trkpt>
      <trkpt lat="51.00806973" lon="39.36198329">
        <ele>0.0000000</ele>
        <time>2010-01-01T05:14:35Z</time>
      </trkpt>
      <trkpt lat="51.00782671" lon="39.36181163">
        <ele>0.0000000</ele>
        <time>2010-01-01T05:14:46Z</time>
      </trkpt>
      <trkpt lat="51.00757018" lon="39.36162924">
        <ele>0.0000000</ele>
        <time>2010-01-01T05:14:57Z</time>
      </trkpt>
      <trkpt lat="51.00733390" lon="39.36146830">
        <ele>0.0000000</ele>
        <time>2010-01-01T05:15:07Z</time>
      </trkpt>
      <trkpt lat="51.00707737" lon="39.36116790">
        <ele>0.0000000</ele>
        <time>2010-01-01T05:15:20Z</time>
      </trkpt>
      <trkpt lat="51.00655755" lon="39.36054562">
        <ele>0.0000000</ele>
        <time>2010-01-01T05:15:46Z</time>
      </trkpt>
      <trkpt lat="51.00612549" lon="39.35978388">
        <ele>0.0000000</ele>
        <time>2010-01-01T05:16:12Z</time>
      </trkpt>
      <trkpt lat="51.00572043" lon="39.35891484">
        <ele>0.0000000</ele>
        <time>2010-01-01T05:16:39Z</time>
      </trkpt>
      <trkpt lat="51.00549089" lon="39.35832476">
        <ele>0.0000000</ele>
        <time>2010-01-01T05:16:57Z</time>
      </trkpt>
      <trkpt lat="51.00534237" lon="39.35773467">
        <ele>0.0000000</ele>
        <time>2010-01-01T05:17:13Z</time>
      </trkpt>
      <trkpt lat="51.00525461" lon="39.35734843">
        <ele>0.0000000</ele>
        <time>2010-01-01T05:17:23Z</time>
      </trkpt>
      <trkpt lat="51.00516009" lon="39.35695146">
        <ele>0.0000000</ele>
        <time>2010-01-01T05:17:34Z</time>
      </trkpt>
      <trkpt lat="51.00516009" lon="39.35656523">
        <ele>0.0000000</ele>
        <time>2010-01-01T05:17:43Z</time>
      </trkpt>
      <trkpt lat="51.00509933" lon="39.35602878">
        <ele>0.0000000</ele>
        <time>2010-01-01T05:17:57Z</time>
      </trkpt>
      <trkpt lat="51.00503857" lon="39.35571765">
        <ele>0.0000000</ele>
        <time>2010-01-01T05:18:05Z</time>
      </trkpt>
      <trkpt lat="51.00495080" lon="39.35533141">
        <ele>0.0000000</ele>
        <time>2010-01-01T05:18:16Z</time>
      </trkpt>
      <trkpt lat="51.00489680" lon="39.35512756">
        <ele>0.0000000</ele>
        <time>2010-01-01T05:18:21Z</time>
      </trkpt>
      <trkpt lat="51.00482253" lon="39.35485934">
        <ele>0.0000000</ele>
        <time>2010-01-01T05:18:29Z</time>
      </trkpt>
      <trkpt lat="51.00477527" lon="39.35447310">
        <ele>0.0000000</ele>
        <time>2010-01-01T05:18:39Z</time>
      </trkpt>
      <trkpt lat="51.00471451" lon="39.35408687">
        <ele>0.0000000</ele>
        <time>2010-01-01T05:18:49Z</time>
      </trkpt>
      <trkpt lat="51.00464700" lon="39.35363625">
        <ele>0.0000000</ele>
        <time>2010-01-01T05:19:00Z</time>
      </trkpt>
      <trkpt lat="51.00453223" lon="39.35338949">
        <ele>0.0000000</ele>
        <time>2010-01-01T05:19:08Z</time>
      </trkpt>
      <trkpt lat="51.00444447" lon="39.35304617">
        <ele>0.0000000</ele>
        <time>2010-01-01T05:19:17Z</time>
      </trkpt>
      <trkpt lat="51.00430000" lon="39.35240268">
        <ele>0.0000000</ele>
        <time>2010-01-01T05:19:35Z</time>
      </trkpt>
      <trkpt lat="51.00419873" lon="39.35211300">
        <ele>0.0000000</ele>
        <time>2010-01-01T05:19:43Z</time>
      </trkpt>
      <trkpt lat="51.00404345" lon="39.35189842">
        <ele>0.0000000</ele>
        <time>2010-01-01T05:19:51Z</time>
      </trkpt>
      <trkpt lat="51.00386792" lon="39.35210227">
        <ele>0.0000000</ele>
        <time>2010-01-01T05:20:00Z</time>
      </trkpt>
      <trkpt lat="51.00359787" lon="39.35215591">
        <ele>0.0000000</ele>
        <time>2010-01-01T05:20:11Z</time>
      </trkpt>
      <trkpt lat="51.00330756" lon="39.35224175">
        <ele>0.0000000</ele>
        <time>2010-01-01T05:20:23Z</time>
      </trkpt>
      <trkpt lat="51.00293623" lon="39.35240268">
        <ele>0.0000000</ele>
        <time>2010-01-01T05:20:38Z</time>
      </trkpt>
      <trkpt lat="51.00261891" lon="39.35241341">
        <ele>0.0000000</ele>
        <time>2010-01-01T05:20:51Z</time>
      </trkpt>
      <trkpt lat="51.00236910" lon="39.35241341">
        <ele>0.0000000</ele>
        <time>2010-01-01T05:21:01Z</time>
      </trkpt>
      <trkpt lat="51.00206528" lon="39.35264944">
        <ele>0.0000000</ele>
        <time>2010-01-01T05:21:14Z</time>
      </trkpt>
      <trkpt lat="51.00193700" lon="39.35279965">
        <ele>0.0000000</ele>
        <time>2010-01-01T05:21:21Z</time>
      </trkpt>
      <trkpt lat="51.00181548" lon="39.35285329">
        <ele>0.0000000</ele>
        <time>2010-01-01T05:21:26Z</time>
      </trkpt>
      <trkpt lat="51.00166694" lon="39.35287475">
        <ele>0.0000000</ele>
        <time>2010-01-01T05:21:32Z</time>
      </trkpt>
      <trkpt lat="51.00147789" lon="39.35285329">
        <ele>0.0000000</ele>
        <time>2010-01-01T05:21:39Z</time>
      </trkpt>
      <trkpt lat="51.00130910" lon="39.35298204">
        <ele>0.0000000</ele>
        <time>2010-01-01T05:21:47Z</time>
      </trkpt>
      <trkpt lat="51.00119432" lon="39.35330390">
        <ele>0.0000000</ele>
        <time>2010-01-01T05:21:56Z</time>
      </trkpt>
      <trkpt lat="51.00120783" lon="39.35362577">
        <ele>0.0000000</ele>
        <time>2010-01-01T05:22:04Z</time>
      </trkpt>
      <trkpt lat="51.00130235" lon="39.35392617">
        <ele>0.0000000</ele>
        <time>2010-01-01T05:22:13Z</time>
      </trkpt>
      <trkpt lat="51.00138337" lon="39.35430168">
        <ele>0.0000000</ele>
        <time>2010-01-01T05:22:23Z</time>
      </trkpt>
      <trkpt lat="51.00145089" lon="39.35473084">
        <ele>0.0000000</ele>
        <time>2010-01-01T05:22:34Z</time>
      </trkpt>
      <trkpt lat="51.00150490" lon="39.35509562">
        <ele>0.0000000</ele>
        <time>2010-01-01T05:22:43Z</time>
      </trkpt>
      <trkpt lat="51.00163993" lon="39.35551404">
        <ele>0.0000000</ele>
        <time>2010-01-01T05:22:55Z</time>
      </trkpt>
      <trkpt lat="51.00178172" lon="39.35566424">
        <ele>0.0000000</ele>
        <time>2010-01-01T05:23:02Z</time>
      </trkpt>
      <trkpt lat="51.00189650" lon="39.35586809">
        <ele>0.0000000</ele>
        <time>2010-01-01T05:23:09Z</time>
      </trkpt>
      <trkpt lat="51.00201127" lon="39.35609340">
        <ele>0.0000000</ele>
        <time>2010-01-01T05:23:16Z</time>
      </trkpt>
      <trkpt lat="51.00212605" lon="39.35623287">
        <ele>0.0000000</ele>
        <time>2010-01-01T05:23:22Z</time>
      </trkpt>
      <trkpt lat="51.00226108" lon="39.35635089">
        <ele>0.0000000</ele>
        <time>2010-01-01T05:23:28Z</time>
      </trkpt>
      <trkpt lat="51.00230834" lon="39.35670494">
        <ele>0.0000000</ele>
        <time>2010-01-01T05:23:37Z</time>
      </trkpt>
      <trkpt lat="51.00220032" lon="39.35693025">
        <ele>0.0000000</ele>
        <time>2010-01-01T05:23:44Z</time>
      </trkpt>
      <trkpt lat="51.00203153" lon="39.35694098">
        <ele>0.0000000</ele>
        <time>2010-01-01T05:23:51Z</time>
      </trkpt>
      <trkpt lat="51.00184923" lon="39.35680150">
        <ele>0.0000000</ele>
        <time>2010-01-01T05:23:59Z</time>
      </trkpt>
      <trkpt lat="51.00165344" lon="39.35646891">
        <ele>0.0000000</ele>
        <time>2010-01-01T05:24:11Z</time>
      </trkpt>
      <trkpt lat="51.00154541" lon="39.35626506">
        <ele>0.0000000</ele>
        <time>2010-01-01T05:24:17Z</time>
      </trkpt>
      <trkpt lat="51.00129560" lon="39.35581445">
        <ele>0.0000000</ele>
        <time>2010-01-01T05:24:32Z</time>
      </trkpt>
      <trkpt lat="51.00104579" lon="39.35550331">
        <ele>0.0000000</ele>
        <time>2010-01-01T05:24:45Z</time>
      </trkpt>
      <trkpt lat="51.00078584" lon="39.35517608">
        <ele>0.0000000</ele>
        <time>2010-01-01T05:24:58Z</time>
      </trkpt>
      <trkpt lat="51.00043475" lon="39.35473620">
        <ele>0.0000000</ele>
        <time>2010-01-01T05:25:16Z</time>
      </trkpt>
      <trkpt lat="51.00017143" lon="39.35391008">
        <ele>0.0000000</ele>
        <time>2010-01-01T05:25:40Z</time>
      </trkpt>
      <trkpt lat="50.99986084" lon="39.35290157">
        <ele>0.0000000</ele>
        <time>2010-01-01T05:26:08Z</time>
      </trkpt>
      <trkpt lat="50.99934094" lon="39.35153901">
        <ele>0.0000000</ele>
        <time>2010-01-01T05:26:48Z</time>
      </trkpt>
      <trkpt lat="50.99888856" lon="39.35041248">
        <ele>0.0000000</ele>
        <time>2010-01-01T05:27:22Z</time>
      </trkpt>
      <trkpt lat="50.99851720" lon="39.34959709">
        <ele>0.0000000</ele>
        <time>2010-01-01T05:27:47Z</time>
      </trkpt>
      <trkpt lat="50.99804455" lon="39.34854566">
        <ele>0.0000000</ele>
        <time>2010-01-01T05:28:20Z</time>
      </trkpt>
      <trkpt lat="50.99743010" lon="39.34689342">
        <ele>0.0000000</ele>
        <time>2010-01-01T05:29:08Z</time>
      </trkpt>
      <trkpt lat="50.99709248" lon="39.34583127">
        <ele>0.0000000</ele>
        <time>2010-01-01T05:29:38Z</time>
      </trkpt>
      <trkpt lat="50.99687641" lon="39.34511243">
        <ele>0.0000000</ele>
        <time>2010-01-01T05:29:58Z</time>
      </trkpt>
      <trkpt lat="50.99667384" lon="39.34447943">
        <ele>0.0000000</ele>
        <time>2010-01-01T05:30:16Z</time>
      </trkpt>
      <trkpt lat="50.99655905" lon="39.34417903">
        <ele>0.0000000</ele>
        <time>2010-01-01T05:30:25Z</time>
      </trkpt>
      <trkpt lat="50.99643075" lon="39.34386789">
        <ele>0.0000000</ele>
        <time>2010-01-01T05:30:34Z</time>
      </trkpt>
      <trkpt lat="50.99630246" lon="39.34371769">
        <ele>0.0000000</ele>
        <time>2010-01-01T05:30:41Z</time>
      </trkpt>
      <trkpt lat="50.99620117" lon="39.34370696">
        <ele>0.0000000</ele>
        <time>2010-01-01T05:30:45Z</time>
      </trkpt>
      <trkpt lat="50.99606612" lon="39.34380352">
        <ele>0.0000000</ele>
        <time>2010-01-01T05:30:51Z</time>
      </trkpt>
      <trkpt lat="50.99584329" lon="39.34380352">
        <ele>0.0000000</ele>
        <time>2010-01-01T05:30:59Z</time>
      </trkpt>
      <trkpt lat="50.99567448" lon="39.34363185">
        <ele>0.0000000</ele>
        <time>2010-01-01T05:31:07Z</time>
      </trkpt>
      <trkpt lat="50.99553943" lon="39.34342801">
        <ele>0.0000000</ele>
        <time>2010-01-01T05:31:15Z</time>
      </trkpt>
      <trkpt lat="50.99532335" lon="39.34305250">
        <ele>0.0000000</ele>
        <time>2010-01-01T05:31:28Z</time>
      </trkpt>
      <trkpt lat="50.99515453" lon="39.34250533">
        <ele>0.0000000</ele>
        <time>2010-01-01T05:31:43Z</time>
      </trkpt>
      <trkpt lat="50.99517479" lon="39.34201180">
        <ele>0.0000000</ele>
        <time>2010-01-01T05:31:56Z</time>
      </trkpt>
      <trkpt lat="50.99520180" lon="39.34148609">
        <ele>0.0000000</ele>
        <time>2010-01-01T05:32:09Z</time>
      </trkpt>
      <trkpt lat="50.99523556" lon="39.34101402">
        <ele>0.0000000</ele>
        <time>2010-01-01T05:32:21Z</time>
      </trkpt>
      <trkpt lat="50.99519505" lon="39.34027373">
        <ele>0.0000000</ele>
        <time>2010-01-01T05:32:40Z</time>
      </trkpt>
      <trkpt lat="50.99520180" lon="39.33986603">
        <ele>0.0000000</ele>
        <time>2010-01-01T05:32:50Z</time>
      </trkpt>
      <trkpt lat="50.99523556" lon="39.33954417">
        <ele>0.0000000</ele>
        <time>2010-01-01T05:32:58Z</time>
      </trkpt>
      <trkpt lat="50.99527608" lon="39.33876096">
        <ele>0.0000000</ele>
        <time>2010-01-01T05:33:18Z</time>
      </trkpt>
      <trkpt lat="50.99530984" lon="39.33862149">
        <ele>0.0000000</ele>
        <time>2010-01-01T05:33:22Z</time>
      </trkpt>
      <trkpt lat="50.99533685" lon="39.33828889">
        <ele>0.0000000</ele>
        <time>2010-01-01T05:33:30Z</time>
      </trkpt>
      <trkpt lat="50.99540438" lon="39.33797776">
        <ele>0.0000000</ele>
        <time>2010-01-01T05:33:38Z</time>
      </trkpt>
      <trkpt lat="50.99546515" lon="39.33764516">
        <ele>0.0000000</ele>
        <time>2010-01-01T05:33:47Z</time>
      </trkpt>
      <trkpt lat="50.99555969" lon="39.33743059">
        <ele>0.0000000</ele>
        <time>2010-01-01T05:33:54Z</time>
      </trkpt>
      <trkpt lat="50.99568798" lon="39.33693706">
        <ele>0.0000000</ele>
        <time>2010-01-01T05:34:07Z</time>
      </trkpt>
      <trkpt lat="50.99574876" lon="39.33658301">
        <ele>0.0000000</ele>
        <time>2010-01-01T05:34:16Z</time>
      </trkpt>
      <trkpt lat="50.99595133" lon="39.33607875">
        <ele>0.0000000</ele>
        <time>2010-01-01T05:34:31Z</time>
      </trkpt>
      <trkpt lat="50.99618767" lon="39.33555304">
        <ele>0.0000000</ele>
        <time>2010-01-01T05:34:48Z</time>
      </trkpt>
      <trkpt lat="50.99628220" lon="39.33495223">
        <ele>0.0000000</ele>
        <time>2010-01-01T05:35:03Z</time>
      </trkpt>
      <trkpt lat="50.99647127" lon="39.33446943">
        <ele>0.0000000</ele>
        <time>2010-01-01T05:35:18Z</time>
      </trkpt>
      <trkpt lat="50.99659281" lon="39.33391153">
        <ele>0.0000000</ele>
        <time>2010-01-01T05:35:33Z</time>
      </trkpt>
      <trkpt lat="50.99672786" lon="39.33326780">
        <ele>0.0000000</ele>
        <time>2010-01-01T05:35:50Z</time>
      </trkpt>
      <trkpt lat="50.99682914" lon="39.33287083">
        <ele>0.0000000</ele>
        <time>2010-01-01T05:36:00Z</time>
      </trkpt>
      <trkpt lat="50.99693043" lon="39.33238803">
        <ele>0.0000000</ele>
        <time>2010-01-01T05:36:13Z</time>
      </trkpt>
      <trkpt lat="50.99704522" lon="39.33191597">
        <ele>0.0000000</ele>
        <time>2010-01-01T05:36:26Z</time>
      </trkpt>
      <trkpt lat="50.99713975" lon="39.33148681">
        <ele>0.0000000</ele>
        <time>2010-01-01T05:36:37Z</time>
      </trkpt>
      <trkpt lat="50.99723428" lon="39.33104693">
        <ele>0.0000000</ele>
        <time>2010-01-01T05:36:49Z</time>
      </trkpt>
      <trkpt lat="50.99734232" lon="39.33073579">
        <ele>0.0000000</ele>
        <time>2010-01-01T05:36:58Z</time>
      </trkpt>
      <trkpt lat="50.99747061" lon="39.33045684">
        <ele>0.0000000</ele>
        <time>2010-01-01T05:37:07Z</time>
      </trkpt>
      <trkpt lat="50.99774070" lon="39.33023154">
        <ele>0.0000000</ele>
        <time>2010-01-01T05:37:19Z</time>
      </trkpt>
      <trkpt lat="50.99797027" lon="39.33007061">
        <ele>0.0000000</ele>
        <time>2010-01-01T05:37:29Z</time>
      </trkpt>
      <trkpt lat="50.99819985" lon="39.32999550">
        <ele>0.0000000</ele>
        <time>2010-01-01T05:37:38Z</time>
      </trkpt>
      <trkpt lat="50.99836190" lon="39.32986676">
        <ele>0.0000000</ele>
        <time>2010-01-01T05:37:46Z</time>
      </trkpt>
      <trkpt lat="50.99853745" lon="39.32943760">
        <ele>0.0000000</ele>
        <time>2010-01-01T05:37:59Z</time>
      </trkpt>
      <trkpt lat="50.99868600" lon="39.32914793">
        <ele>0.0000000</ele>
        <time>2010-01-01T05:38:08Z</time>
      </trkpt>
      <trkpt lat="50.99892232" lon="39.32881533">
        <ele>0.0000000</ele>
        <time>2010-01-01T05:38:21Z</time>
      </trkpt>
      <trkpt lat="50.99917890" lon="39.32861148">
        <ele>0.0000000</ele>
        <time>2010-01-01T05:38:32Z</time>
      </trkpt>
      <trkpt lat="50.99934094" lon="39.32848274">
        <ele>0.0000000</ele>
        <time>2010-01-01T05:38:39Z</time>
      </trkpt>
      <trkpt lat="50.99948274" lon="39.32842909">
        <ele>0.0000000</ele>
        <time>2010-01-01T05:38:45Z</time>
      </trkpt>
      <trkpt lat="50.99962453" lon="39.32836472">
        <ele>0.0000000</ele>
        <time>2010-01-01T05:38:51Z</time>
      </trkpt>
      <trkpt lat="50.99976632" lon="39.32830035">
        <ele>0.0000000</ele>
        <time>2010-01-01T05:38:57Z</time>
      </trkpt>
      <trkpt lat="50.99988110" lon="39.32820379">
        <ele>0.0000000</ele>
        <time>2010-01-01T05:39:02Z</time>
      </trkpt>
      <trkpt lat="51.00000263" lon="39.32796775">
        <ele>0.0000000</ele>
        <time>2010-01-01T05:39:10Z</time>
      </trkpt>
      <trkpt lat="51.00012417" lon="39.32761370">
        <ele>0.0000000</ele>
        <time>2010-01-01T05:39:20Z</time>
      </trkpt>
      <trkpt lat="51.00022544" lon="39.32715236">
        <ele>0.0000000</ele>
        <time>2010-01-01T05:39:32Z</time>
      </trkpt>
      <trkpt lat="51.00027946" lon="39.32683050">
        <ele>0.0000000</ele>
        <time>2010-01-01T05:39:41Z</time>
      </trkpt>
      <trkpt lat="51.00036048" lon="39.32649790">
        <ele>0.0000000</ele>
        <time>2010-01-01T05:39:50Z</time>
      </trkpt>
      <trkpt lat="51.00040099" lon="39.32630478">
        <ele>0.0000000</ele>
        <time>2010-01-01T05:39:55Z</time>
      </trkpt>
      <trkpt lat="51.00050227" lon="39.32576834">
        <ele>0.0000000</ele>
        <time>2010-01-01T05:40:09Z</time>
      </trkpt>
      <trkpt lat="51.00056979" lon="39.32534992">
        <ele>0.0000000</ele>
        <time>2010-01-01T05:40:20Z</time>
      </trkpt>
      <trkpt lat="51.00062380" lon="39.32492076">
        <ele>0.0000000</ele>
        <time>2010-01-01T05:40:31Z</time>
      </trkpt>
      <trkpt lat="51.00072508" lon="39.32459890">
        <ele>0.0000000</ele>
        <time>2010-01-01T05:40:40Z</time>
      </trkpt>
      <trkpt lat="51.00083311" lon="39.32416975">
        <ele>0.0000000</ele>
        <time>2010-01-01T05:40:52Z</time>
      </trkpt>
      <trkpt lat="51.00094113" lon="39.32388007">
        <ele>0.0000000</ele>
        <time>2010-01-01T05:41:00Z</time>
      </trkpt>
      <trkpt lat="51.00106267" lon="39.32362258">
        <ele>0.0000000</ele>
        <time>2010-01-01T05:41:08Z</time>
      </trkpt>
      <trkpt lat="51.00112343" lon="39.32331144">
        <ele>0.0000000</ele>
        <time>2010-01-01T05:41:16Z</time>
      </trkpt>
      <trkpt lat="51.00123483" lon="39.32308613">
        <ele>0.0000000</ele>
        <time>2010-01-01T05:41:24Z</time>
      </trkpt>
      <trkpt lat="51.00129897" lon="39.32293057">
        <ele>0.0000000</ele>
        <time>2010-01-01T05:41:28Z</time>
      </trkpt>
      <trkpt lat="51.00139687" lon="39.32272135">
        <ele>0.0000000</ele>
        <time>2010-01-01T05:41:35Z</time>
      </trkpt>
      <trkpt lat="51.00145089" lon="39.32260870">
        <ele>0.0000000</ele>
        <time>2010-01-01T05:41:38Z</time>
      </trkpt>
      <trkpt lat="51.00148465" lon="39.32249605">
        <ele>0.0000000</ele>
        <time>2010-01-01T05:41:42Z</time>
      </trkpt>
      <trkpt lat="51.00140363" lon="39.32234584">
        <ele>0.0000000</ele>
        <time>2010-01-01T05:41:47Z</time>
      </trkpt>
      <trkpt lat="51.00125171" lon="39.32247459">
        <ele>0.0000000</ele>
        <time>2010-01-01T05:41:53Z</time>
      </trkpt>
      <trkpt lat="51.00112681" lon="39.32230293">
        <ele>0.0000000</ele>
        <time>2010-01-01T05:42:00Z</time>
      </trkpt>
      <trkpt lat="51.00104579" lon="39.32216882">
        <ele>0.0000000</ele>
        <time>2010-01-01T05:42:05Z</time>
      </trkpt>
      <trkpt lat="51.00096139" lon="39.32191669">
        <ele>0.0000000</ele>
        <time>2010-01-01T05:42:12Z</time>
      </trkpt>
      <trkpt lat="51.00093101" lon="39.32168066">
        <ele>0.0000000</ele>
        <time>2010-01-01T05:42:18Z</time>
      </trkpt>
      <trkpt lat="51.00089725" lon="39.32143389">
        <ele>0.0000000</ele>
        <time>2010-01-01T05:42:24Z</time>
      </trkpt>
      <trkpt lat="51.00083986" lon="39.32121932">
        <ele>0.0000000</ele>
        <time>2010-01-01T05:42:30Z</time>
      </trkpt>
      <trkpt lat="51.00083986" lon="39.32113885">
        <ele>0.0000000</ele>
        <time>2010-01-01T05:42:32Z</time>
      </trkpt>
      <trkpt lat="51.00084323" lon="39.32099938">
        <ele>0.0000000</ele>
        <time>2010-01-01T05:42:36Z</time>
      </trkpt>
      <trkpt lat="51.00083311" lon="39.32086526">
        <ele>0.0000000</ele>
        <time>2010-01-01T05:42:39Z</time>
      </trkpt>
      <trkpt lat="51.00078584" lon="39.32081162">
        <ele>0.0000000</ele>
        <time>2010-01-01T05:42:42Z</time>
      </trkpt>
      <trkpt lat="51.00070820" lon="39.32067751">
        <ele>0.0000000</ele>
        <time>2010-01-01T05:42:46Z</time>
      </trkpt>
      <trkpt lat="51.00068794" lon="39.32055413">
        <ele>0.0000000</ele>
        <time>2010-01-01T05:42:49Z</time>
      </trkpt>
      <trkpt lat="51.00067444" lon="39.32020544">
        <ele>0.0000000</ele>
        <time>2010-01-01T05:42:58Z</time>
      </trkpt>
      <trkpt lat="51.00066431" lon="39.31993186">
        <ele>0.0000000</ele>
        <time>2010-01-01T05:43:05Z</time>
      </trkpt>
      <trkpt lat="51.00064743" lon="39.31972264">
        <ele>0.0000000</ele>
        <time>2010-01-01T05:43:10Z</time>
      </trkpt>
      <trkpt lat="51.00061705" lon="39.31949197">
        <ele>0.0000000</ele>
        <time>2010-01-01T05:43:16Z</time>
      </trkpt>
      <trkpt lat="51.00057654" lon="39.31937932">
        <ele>0.0000000</ele>
        <time>2010-01-01T05:43:20Z</time>
      </trkpt>
      <trkpt lat="51.00052590" lon="39.31921302">
        <ele>0.0000000</ele>
        <time>2010-01-01T05:43:24Z</time>
      </trkpt>
      <trkpt lat="51.00047526" lon="39.31906818">
        <ele>0.0000000</ele>
        <time>2010-01-01T05:43:28Z</time>
      </trkpt>
      <trkpt lat="51.00044488" lon="39.31893944">
        <ele>0.0000000</ele>
        <time>2010-01-01T05:43:32Z</time>
      </trkpt>
      <trkpt lat="51.00042125" lon="39.31883751">
        <ele>0.0000000</ele>
        <time>2010-01-01T05:43:35Z</time>
      </trkpt>
      <trkpt lat="51.00039086" lon="39.31871413">
        <ele>0.0000000</ele>
        <time>2010-01-01T05:43:38Z</time>
      </trkpt>
      <trkpt lat="51.00038411" lon="39.31855856">
        <ele>0.0000000</ele>
        <time>2010-01-01T05:43:42Z</time>
      </trkpt>
      <trkpt lat="51.00034360" lon="39.31839227">
        <ele>0.0000000</ele>
        <time>2010-01-01T05:43:46Z</time>
      </trkpt>
      <trkpt lat="51.00027946" lon="39.31825816">
        <ele>0.0000000</ele>
        <time>2010-01-01T05:43:51Z</time>
      </trkpt>
      <trkpt lat="51.00021532" lon="39.31809722">
        <ele>0.0000000</ele>
        <time>2010-01-01T05:43:55Z</time>
      </trkpt>
      <trkpt lat="51.00014780" lon="39.31797921">
        <ele>0.0000000</ele>
        <time>2010-01-01T05:43:59Z</time>
      </trkpt>
      <trkpt lat="51.00007690" lon="39.31780218">
        <ele>0.0000000</ele>
        <time>2010-01-01T05:44:05Z</time>
      </trkpt>
      <trkpt lat="51.00001951" lon="39.31765198">
        <ele>0.0000000</ele>
        <time>2010-01-01T05:44:09Z</time>
      </trkpt>
      <trkpt lat="50.99995875" lon="39.31748032">
        <ele>0.0000000</ele>
        <time>2010-01-01T05:44:14Z</time>
      </trkpt>
      <trkpt lat="50.99990135" lon="39.31734621">
        <ele>0.0000000</ele>
        <time>2010-01-01T05:44:18Z</time>
      </trkpt>
      <trkpt lat="50.99985409" lon="39.31722282">
        <ele>0.0000000</ele>
        <time>2010-01-01T05:44:22Z</time>
      </trkpt>
      <trkpt lat="50.99982371" lon="39.31711017">
        <ele>0.0000000</ele>
        <time>2010-01-01T05:44:25Z</time>
      </trkpt>
      <trkpt lat="50.99982371" lon="39.31698679">
        <ele>0.0000000</ele>
        <time>2010-01-01T05:44:28Z</time>
      </trkpt>
      <trkpt lat="50.99984396" lon="39.31686877">
        <ele>0.0000000</ele>
        <time>2010-01-01T05:44:31Z</time>
      </trkpt>
      <trkpt lat="50.99983721" lon="39.31670248">
        <ele>0.0000000</ele>
        <time>2010-01-01T05:44:35Z</time>
      </trkpt>
      <trkpt lat="50.99981020" lon="39.31648254">
        <ele>0.0000000</ele>
        <time>2010-01-01T05:44:41Z</time>
      </trkpt>
      <trkpt lat="50.99975281" lon="39.31627869">
        <ele>0.0000000</ele>
        <time>2010-01-01T05:44:47Z</time>
      </trkpt>
      <trkpt lat="50.99969205" lon="39.31618213">
        <ele>0.0000000</ele>
        <time>2010-01-01T05:44:50Z</time>
      </trkpt>
      <trkpt lat="50.99960765" lon="39.31614994">
        <ele>0.0000000</ele>
        <time>2010-01-01T05:44:53Z</time>
      </trkpt>
      <trkpt lat="50.99954350" lon="39.31611239">
        <ele>0.0000000</ele>
        <time>2010-01-01T05:44:56Z</time>
      </trkpt>
      <trkpt lat="50.99936458" lon="39.31601047">
        <ele>0.0000000</ele>
        <time>2010-01-01T05:45:04Z</time>
      </trkpt>
      <trkpt lat="50.99926667" lon="39.31597292">
        <ele>0.0000000</ele>
        <time>2010-01-01T05:45:08Z</time>
      </trkpt>
      <trkpt lat="50.99918227" lon="39.31592464">
        <ele>0.0000000</ele>
        <time>2010-01-01T05:45:11Z</time>
      </trkpt>
      <trkpt lat="50.99906074" lon="39.31589781">
        <ele>0.0000000</ele>
        <time>2010-01-01T05:45:16Z</time>
      </trkpt>
      <trkpt lat="50.99894933" lon="39.31584417">
        <ele>0.0000000</ele>
        <time>2010-01-01T05:45:21Z</time>
      </trkpt>
      <trkpt lat="50.99887506" lon="39.31579053">
        <ele>0.0000000</ele>
        <time>2010-01-01T05:45:24Z</time>
      </trkpt>
      <trkpt lat="50.99870625" lon="39.31561350">
        <ele>0.0000000</ele>
        <time>2010-01-01T05:45:32Z</time>
      </trkpt>
      <trkpt lat="50.99855771" lon="39.31547402">
        <ele>0.0000000</ele>
        <time>2010-01-01T05:45:39Z</time>
      </trkpt>
      <trkpt lat="50.99842267" lon="39.31529163">
        <ele>0.0000000</ele>
        <time>2010-01-01T05:45:46Z</time>
      </trkpt>
      <trkpt lat="50.99824711" lon="39.31525945">
        <ele>0.0000000</ele>
        <time>2010-01-01T05:45:53Z</time>
      </trkpt>
      <trkpt lat="50.99809181" lon="39.31523799">
        <ele>0.0000000</ele>
        <time>2010-01-01T05:46:00Z</time>
      </trkpt>
      <trkpt lat="50.99796352" lon="39.31518435">
        <ele>0.0000000</ele>
        <time>2010-01-01T05:46:05Z</time>
      </trkpt>
      <trkpt lat="50.99780822" lon="39.31502341">
        <ele>0.0000000</ele>
        <time>2010-01-01T05:46:12Z</time>
      </trkpt>
      <trkpt lat="50.99763942" lon="39.31486248">
        <ele>0.0000000</ele>
        <time>2010-01-01T05:46:20Z</time>
      </trkpt>
      <trkpt lat="50.99746386" lon="39.31468009">
        <ele>0.0000000</ele>
        <time>2010-01-01T05:46:29Z</time>
      </trkpt>
      <trkpt lat="50.99734907" lon="39.31449770">
        <ele>0.0000000</ele>
        <time>2010-01-01T05:46:35Z</time>
      </trkpt>
      <trkpt lat="50.99721402" lon="39.31424021">
        <ele>0.0000000</ele>
        <time>2010-01-01T05:46:44Z</time>
      </trkpt>
      <trkpt lat="50.99707223" lon="39.31397199">
        <ele>0.0000000</ele>
        <time>2010-01-01T05:46:52Z</time>
      </trkpt>
      <trkpt lat="50.99690342" lon="39.31370377">
        <ele>0.0000000</ele>
        <time>2010-01-01T05:47:02Z</time>
      </trkpt>
      <trkpt lat="50.99673461" lon="39.31336044">
        <ele>0.0000000</ele>
        <time>2010-01-01T05:47:13Z</time>
      </trkpt>
      <trkpt lat="50.99653879" lon="39.31297421">
        <ele>0.0000000</ele>
        <time>2010-01-01T05:47:25Z</time>
      </trkpt>
      <trkpt lat="50.99632947" lon="39.31257724">
        <ele>0.0000000</ele>
        <time>2010-01-01T05:47:39Z</time>
      </trkpt>
      <trkpt lat="50.99608638" lon="39.31197642">
        <ele>0.0000000</ele>
        <time>2010-01-01T05:47:57Z</time>
      </trkpt>
      <trkpt lat="50.99576226" lon="39.31147217">
        <ele>0.0000000</ele>
        <time>2010-01-01T05:48:15Z</time>
      </trkpt>
      <trkpt lat="50.99547866" lon="39.31101083">
        <ele>0.0000000</ele>
        <time>2010-01-01T05:48:31Z</time>
      </trkpt>
      <trkpt lat="50.99524907" lon="39.31048512">
        <ele>0.0000000</ele>
        <time>2010-01-01T05:48:47Z</time>
      </trkpt>
      <trkpt lat="50.99500598" lon="39.30994867">
        <ele>0.0000000</ele>
        <time>2010-01-01T05:49:04Z</time>
      </trkpt>
      <trkpt lat="50.99475613" lon="39.30951952">
        <ele>0.0000000</ele>
        <time>2010-01-01T05:49:18Z</time>
      </trkpt>
      <trkpt lat="50.99455355" lon="39.30900454">
        <ele>0.0000000</ele>
        <time>2010-01-01T05:49:34Z</time>
      </trkpt>
      <trkpt lat="50.99439824" lon="39.30873632">
        <ele>0.0000000</ele>
        <time>2010-01-01T05:49:43Z</time>
      </trkpt>
      <trkpt lat="50.99434084" lon="39.30850028">
        <ele>0.0000000</ele>
        <time>2010-01-01T05:49:49Z</time>
      </trkpt>
      <trkpt lat="50.99421592" lon="39.30811404">
        <ele>0.0000000</ele>
        <time>2010-01-01T05:50:00Z</time>
      </trkpt>
      <trkpt lat="50.99416189" lon="39.30780827">
        <ele>0.0000000</ele>
        <time>2010-01-01T05:50:08Z</time>
      </trkpt>
      <trkpt lat="50.99409774" lon="39.30750786">
        <ele>0.0000000</ele>
        <time>2010-01-01T05:50:16Z</time>
      </trkpt>
      <trkpt lat="50.99401333" lon="39.30732547">
        <ele>0.0000000</ele>
        <time>2010-01-01T05:50:22Z</time>
      </trkpt>
      <trkpt lat="50.99394243" lon="39.30718600">
        <ele>0.0000000</ele>
        <time>2010-01-01T05:50:26Z</time>
      </trkpt>
      <trkpt lat="50.99388165" lon="39.30705189">
        <ele>0.0000000</ele>
        <time>2010-01-01T05:50:31Z</time>
      </trkpt>
      <trkpt lat="50.99380062" lon="39.30687486">
        <ele>0.0000000</ele>
        <time>2010-01-01T05:50:36Z</time>
      </trkpt>
      <trkpt lat="50.99376686" lon="39.30675685">
        <ele>0.0000000</ele>
        <time>2010-01-01T05:50:39Z</time>
      </trkpt>
      <trkpt lat="50.99372296" lon="39.30657982">
        <ele>0.0000000</ele>
        <time>2010-01-01T05:50:44Z</time>
      </trkpt>
      <trkpt lat="50.99369595" lon="39.30631696">
        <ele>0.0000000</ele>
        <time>2010-01-01T05:50:51Z</time>
      </trkpt>
      <trkpt lat="50.99368920" lon="39.30614530">
        <ele>0.0000000</ele>
        <time>2010-01-01T05:50:55Z</time>
      </trkpt>
      <trkpt lat="50.99365881" lon="39.30598973">
        <ele>0.0000000</ele>
        <time>2010-01-01T05:50:59Z</time>
      </trkpt>
      <trkpt lat="50.99351700" lon="39.30573224">
        <ele>0.0000000</ele>
        <time>2010-01-01T05:51:08Z</time>
      </trkpt>
      <trkpt lat="50.99334143" lon="39.30560886">
        <ele>0.0000000</ele>
        <time>2010-01-01T05:51:16Z</time>
      </trkpt>
      <trkpt lat="50.99312872" lon="39.30560350">
        <ele>0.0000000</ele>
        <time>2010-01-01T05:51:24Z</time>
      </trkpt>
      <trkpt lat="50.99294639" lon="39.30557131">
        <ele>0.0000000</ele>
        <time>2010-01-01T05:51:31Z</time>
      </trkpt>
      <trkpt lat="50.99273705" lon="39.30547475">
        <ele>0.0000000</ele>
        <time>2010-01-01T05:51:40Z</time>
      </trkpt>
      <trkpt lat="50.99255809" lon="39.30532991">
        <ele>0.0000000</ele>
        <time>2010-01-01T05:51:48Z</time>
      </trkpt>
      <trkpt lat="50.99235888" lon="39.30521189">
        <ele>0.0000000</ele>
        <time>2010-01-01T05:51:57Z</time>
      </trkpt>
      <trkpt lat="50.99213266" lon="39.30498659">
        <ele>0.0000000</ele>
        <time>2010-01-01T05:52:07Z</time>
      </trkpt>
      <trkpt lat="50.99201110" lon="39.30484175">
        <ele>0.0000000</ele>
        <time>2010-01-01T05:52:14Z</time>
      </trkpt>
      <trkpt lat="50.99182539" lon="39.30465399">
        <ele>0.0000000</ele>
        <time>2010-01-01T05:52:22Z</time>
      </trkpt>
      <trkpt lat="50.99164644" lon="39.30441259">
        <ele>0.0000000</ele>
        <time>2010-01-01T05:52:32Z</time>
      </trkpt>
      <trkpt lat="50.99149787" lon="39.30419802">
        <ele>0.0000000</ele>
        <time>2010-01-01T05:52:40Z</time>
      </trkpt>
      <trkpt lat="50.99122774" lon="39.30391370">
        <ele>0.0000000</ele>
        <time>2010-01-01T05:52:53Z</time>
      </trkpt>
      <trkpt lat="50.99096437" lon="39.30355429">
        <ele>0.0000000</ele>
        <time>2010-01-01T05:53:07Z</time>
      </trkpt>
      <trkpt lat="50.99074151" lon="39.30315196">
        <ele>0.0000000</ele>
        <time>2010-01-01T05:53:20Z</time>
      </trkpt>
      <trkpt lat="50.99057606" lon="39.30281400">
        <ele>0.0000000</ele>
        <time>2010-01-01T05:53:31Z</time>
      </trkpt>
      <trkpt lat="50.99037346" lon="39.30249213">
        <ele>0.0000000</ele>
        <time>2010-01-01T05:53:42Z</time>
      </trkpt>
      <trkpt lat="50.99025865" lon="39.30218100">
        <ele>0.0000000</ele>
        <time>2010-01-01T05:53:52Z</time>
      </trkpt>
      <trkpt lat="50.99016411" lon="39.30189668">
        <ele>0.0000000</ele>
        <time>2010-01-01T05:54:00Z</time>
      </trkpt>
      <trkpt lat="50.99008982" lon="39.30149972">
        <ele>0.0000000</ele>
        <time>2010-01-01T05:54:10Z</time>
      </trkpt>
      <trkpt lat="50.99007969" lon="39.30126905">
        <ele>0.0000000</ele>
        <time>2010-01-01T05:54:16Z</time>
      </trkpt>
      <trkpt lat="50.99012021" lon="39.30103301">
        <ele>0.0000000</ele>
        <time>2010-01-01T05:54:22Z</time>
      </trkpt>
      <trkpt lat="50.99017086" lon="39.30092036">
        <ele>0.0000000</ele>
        <time>2010-01-01T05:54:26Z</time>
      </trkpt>
      <trkpt lat="50.99027554" lon="39.30079698">
        <ele>0.0000000</ele>
        <time>2010-01-01T05:54:31Z</time>
      </trkpt>
      <trkpt lat="50.99052879" lon="39.30071651">
        <ele>0.0000000</ele>
        <time>2010-01-01T05:54:41Z</time>
      </trkpt>
      <trkpt lat="50.99070775" lon="39.30058240">
        <ele>0.0000000</ele>
        <time>2010-01-01T05:54:49Z</time>
      </trkpt>
      <trkpt lat="50.99083943" lon="39.30048048">
        <ele>0.0000000</ele>
        <time>2010-01-01T05:54:55Z</time>
      </trkpt>
      <trkpt lat="50.99092047" lon="39.30038392">
        <ele>0.0000000</ele>
        <time>2010-01-01T05:54:59Z</time>
      </trkpt>
      <trkpt lat="50.99098125" lon="39.30021762">
        <ele>0.0000000</ele>
        <time>2010-01-01T05:55:04Z</time>
      </trkpt>
      <trkpt lat="50.99101839" lon="39.30009424">
        <ele>0.0000000</ele>
        <time>2010-01-01T05:55:07Z</time>
      </trkpt>
      <trkpt lat="50.99102515" lon="39.29994403">
        <ele>0.0000000</ele>
        <time>2010-01-01T05:55:11Z</time>
      </trkpt>
      <trkpt lat="50.99098125" lon="39.29974019">
        <ele>0.0000000</ele>
        <time>2010-01-01T05:55:16Z</time>
      </trkpt>
      <trkpt lat="50.99090359" lon="39.29936468">
        <ele>0.0000000</ele>
        <time>2010-01-01T05:55:26Z</time>
      </trkpt>
      <trkpt lat="50.99083606" lon="39.29905354">
        <ele>0.0000000</ele>
        <time>2010-01-01T05:55:35Z</time>
      </trkpt>
      <trkpt lat="50.99085632" lon="39.29878532">
        <ele>0.0000000</ele>
        <time>2010-01-01T05:55:41Z</time>
      </trkpt>
      <trkpt lat="50.99090697" lon="39.29856001">
        <ele>0.0000000</ele>
        <time>2010-01-01T05:55:48Z</time>
      </trkpt>
      <trkpt lat="50.99093060" lon="39.29845809">
        <ele>0.0000000</ele>
        <time>2010-01-01T05:55:50Z</time>
      </trkpt>
      <trkpt lat="50.99095086" lon="39.29836690">
        <ele>0.0000000</ele>
        <time>2010-01-01T05:55:53Z</time>
      </trkpt>
      <trkpt lat="50.99100151" lon="39.29829179">
        <ele>0.0000000</ele>
        <time>2010-01-01T05:55:55Z</time>
      </trkpt>
      <trkpt lat="50.99103190" lon="39.29821669">
        <ele>0.0000000</ele>
        <time>2010-01-01T05:55:58Z</time>
      </trkpt>
      <trkpt lat="50.99103190" lon="39.29812013">
        <ele>0.0000000</ele>
        <time>2010-01-01T05:56:00Z</time>
      </trkpt>
      <trkpt lat="50.99097450" lon="39.29811477">
        <ele>0.0000000</ele>
        <time>2010-01-01T05:56:02Z</time>
      </trkpt>
      <trkpt lat="50.99086982" lon="39.29816841">
        <ele>0.0000000</ele>
        <time>2010-01-01T05:56:07Z</time>
      </trkpt>
      <trkpt lat="50.99080567" lon="39.29816841">
        <ele>0.0000000</ele>
        <time>2010-01-01T05:56:09Z</time>
      </trkpt>
      <trkpt lat="50.99077866" lon="39.29809867">
        <ele>0.0000000</ele>
        <time>2010-01-01T05:56:11Z</time>
      </trkpt>
      <trkpt lat="50.99077866" lon="39.29789483">
        <ele>0.0000000</ele>
        <time>2010-01-01T05:56:17Z</time>
      </trkpt>
      <trkpt lat="50.99079216" lon="39.29779827">
        <ele>0.0000000</ele>
        <time>2010-01-01T05:56:19Z</time>
      </trkpt>
      <trkpt lat="50.99081242" lon="39.29768561">
        <ele>0.0000000</ele>
        <time>2010-01-01T05:56:22Z</time>
      </trkpt>
      <trkpt lat="50.99083606" lon="39.29761051">
        <ele>0.0000000</ele>
        <time>2010-01-01T05:56:24Z</time>
      </trkpt>
      <trkpt lat="50.99083943" lon="39.29751395">
        <ele>0.0000000</ele>
        <time>2010-01-01T05:56:27Z</time>
      </trkpt>
      <trkpt lat="50.99076515" lon="39.29733693">
        <ele>0.0000000</ele>
        <time>2010-01-01T05:56:32Z</time>
      </trkpt>
      <trkpt lat="50.99072801" lon="39.29717063">
        <ele>0.0000000</ele>
        <time>2010-01-01T05:56:36Z</time>
      </trkpt>
      <trkpt lat="50.99071112" lon="39.29709016">
        <ele>0.0000000</ele>
        <time>2010-01-01T05:56:39Z</time>
      </trkpt>
      <trkpt lat="50.99062333" lon="39.29693460">
        <ele>0.0000000</ele>
        <time>2010-01-01T05:56:44Z</time>
      </trkpt>
      <trkpt lat="50.99054229" lon="39.29683804">
        <ele>0.0000000</ele>
        <time>2010-01-01T05:56:48Z</time>
      </trkpt>
      <trkpt lat="50.99046801" lon="39.29662346">
        <ele>0.0000000</ele>
        <time>2010-01-01T05:56:54Z</time>
      </trkpt>
      <trkpt lat="50.99042411" lon="39.29632842">
        <ele>0.0000000</ele>
        <time>2010-01-01T05:57:02Z</time>
      </trkpt>
      <trkpt lat="50.99038697" lon="39.29606556">
        <ele>0.0000000</ele>
        <time>2010-01-01T05:57:08Z</time>
      </trkpt>
      <trkpt lat="50.99034982" lon="39.29580270">
        <ele>0.0000000</ele>
        <time>2010-01-01T05:57:15Z</time>
      </trkpt>
      <trkpt lat="50.99029917" lon="39.29551839">
        <ele>0.0000000</ele>
        <time>2010-01-01T05:57:23Z</time>
      </trkpt>
      <trkpt lat="50.99022826" lon="39.29511606">
        <ele>0.0000000</ele>
        <time>2010-01-01T05:57:33Z</time>
      </trkpt>
      <trkpt lat="50.99018437" lon="39.29476201">
        <ele>0.0000000</ele>
        <time>2010-01-01T05:57:42Z</time>
      </trkpt>
      <trkpt lat="50.99008645" lon="39.29408609">
        <ele>0.0000000</ele>
        <time>2010-01-01T05:58:00Z</time>
      </trkpt>
      <trkpt lat="50.99001891" lon="39.29359793">
        <ele>0.0000000</ele>
        <time>2010-01-01T05:58:12Z</time>
      </trkpt>
      <trkpt lat="50.98995476" lon="39.29315268">
        <ele>0.0000000</ele>
        <time>2010-01-01T05:58:24Z</time>
      </trkpt>
      <trkpt lat="50.98988047" lon="39.29268598">
        <ele>0.0000000</ele>
        <time>2010-01-01T05:58:36Z</time>
      </trkpt>
      <trkpt lat="50.98986021" lon="39.29225682">
        <ele>0.0000000</ele>
        <time>2010-01-01T05:58:47Z</time>
      </trkpt>
      <trkpt lat="50.98985683" lon="39.29195105">
        <ele>0.0000000</ele>
        <time>2010-01-01T05:58:55Z</time>
      </trkpt>
      <trkpt lat="50.98990411" lon="39.29161846">
        <ele>0.0000000</ele>
        <time>2010-01-01T05:59:03Z</time>
      </trkpt>
      <trkpt lat="50.98996826" lon="39.29129659">
        <ele>0.0000000</ele>
        <time>2010-01-01T05:59:12Z</time>
      </trkpt>
      <trkpt lat="50.99001891" lon="39.29116248">
        <ele>0.0000000</ele>
        <time>2010-01-01T05:59:16Z</time>
      </trkpt>
      <trkpt lat="50.99009995" lon="39.29081379">
        <ele>0.0000000</ele>
        <time>2010-01-01T05:59:25Z</time>
      </trkpt>
      <trkpt lat="50.99016749" lon="39.29055094">
        <ele>0.0000000</ele>
        <time>2010-01-01T05:59:32Z</time>
      </trkpt>
      <trkpt lat="50.99022826" lon="39.29036318">
        <ele>0.0000000</ele>
        <time>2010-01-01T05:59:37Z</time>
      </trkpt>
      <trkpt lat="50.99031268" lon="39.29010033">
        <ele>0.0000000</ele>
        <time>2010-01-01T05:59:45Z</time>
      </trkpt>
      <trkpt lat="50.99047138" lon="39.28980528">
        <ele>0.0000000</ele>
        <time>2010-01-01T05:59:55Z</time>
      </trkpt>
      <trkpt lat="50.99060307" lon="39.28946733">
        <ele>0.0000000</ele>
        <time>2010-01-01T06:00:05Z</time>
      </trkpt>
      <trkpt lat="50.99068411" lon="39.28913473">
        <ele>0.0000000</ele>
        <time>2010-01-01T06:00:14Z</time>
      </trkpt>
      <trkpt lat="50.99076177" lon="39.28876459">
        <ele>0.0000000</ele>
        <time>2010-01-01T06:00:24Z</time>
      </trkpt>
      <trkpt lat="50.99083943" lon="39.28858756">
        <ele>0.0000000</ele>
        <time>2010-01-01T06:00:29Z</time>
      </trkpt>
      <trkpt lat="50.99089008" lon="39.28844272">
        <ele>0.0000000</ele>
        <time>2010-01-01T06:00:33Z</time>
      </trkpt>
      <trkpt lat="50.99092047" lon="39.28822815">
        <ele>0.0000000</ele>
        <time>2010-01-01T06:00:39Z</time>
      </trkpt>
      <trkpt lat="50.99087995" lon="39.28801893">
        <ele>0.0000000</ele>
        <time>2010-01-01T06:00:44Z</time>
      </trkpt>
      <trkpt lat="50.99075840" lon="39.28776144">
        <ele>0.0000000</ele>
        <time>2010-01-01T06:00:52Z</time>
      </trkpt>
      <trkpt lat="50.99063684" lon="39.28770243">
        <ele>0.0000000</ele>
        <time>2010-01-01T06:00:57Z</time>
      </trkpt>
      <trkpt lat="50.99047814" lon="39.28761660">
        <ele>0.0000000</ele>
        <time>2010-01-01T06:01:04Z</time>
      </trkpt>
      <trkpt lat="50.99038359" lon="39.28756832">
        <ele>0.0000000</ele>
        <time>2010-01-01T06:01:08Z</time>
      </trkpt>
      <trkpt lat="50.99011008" lon="39.28743421">
        <ele>0.0000000</ele>
        <time>2010-01-01T06:01:20Z</time>
      </trkpt>
      <trkpt lat="50.98991761" lon="39.28735375">
        <ele>0.0000000</ele>
        <time>2010-01-01T06:01:27Z</time>
      </trkpt>
      <trkpt lat="50.98979943" lon="39.28733765">
        <ele>0.0000000</ele>
        <time>2010-01-01T06:01:32Z</time>
      </trkpt>
      <trkpt lat="50.98967787" lon="39.28732692">
        <ele>0.0000000</ele>
        <time>2010-01-01T06:01:37Z</time>
      </trkpt>
      <trkpt lat="50.98954280" lon="39.28733229">
        <ele>0.0000000</ele>
        <time>2010-01-01T06:01:43Z</time>
      </trkpt>
      <trkpt lat="50.98945163" lon="39.28733229">
        <ele>0.0000000</ele>
        <time>2010-01-01T06:01:46Z</time>
      </trkpt>
      <trkpt lat="50.98935370" lon="39.28728937">
        <ele>0.0000000</ele>
        <time>2010-01-01T06:01:50Z</time>
      </trkpt>
      <trkpt lat="50.98926929" lon="39.28724646">
        <ele>0.0000000</ele>
        <time>2010-01-01T06:01:54Z</time>
      </trkpt>
      <trkpt lat="50.98921864" lon="39.28717135">
        <ele>0.0000000</ele>
        <time>2010-01-01T06:01:57Z</time>
      </trkpt>
      <trkpt lat="50.98933682" lon="39.28712844">
        <ele>0.0000000</ele>
        <time>2010-01-01T06:02:01Z</time>
      </trkpt>
      <trkpt lat="50.98942799" lon="39.28714453">
        <ele>0.0000000</ele>
        <time>2010-01-01T06:02:05Z</time>
      </trkpt>
      <trkpt lat="50.98950903" lon="39.28713380">
        <ele>0.0000000</ele>
        <time>2010-01-01T06:02:08Z</time>
      </trkpt>
      <trkpt lat="50.98956306" lon="39.28709625">
        <ele>0.0000000</ele>
        <time>2010-01-01T06:02:11Z</time>
      </trkpt>
      <trkpt lat="50.98959345" lon="39.28696751">
        <ele>0.0000000</ele>
        <time>2010-01-01T06:02:14Z</time>
      </trkpt>
      <trkpt lat="50.98952592" lon="39.28694069">
        <ele>0.0000000</ele>
        <time>2010-01-01T06:02:17Z</time>
      </trkpt>
      <trkpt lat="50.98946514" lon="39.28699433">
        <ele>0.0000000</ele>
        <time>2010-01-01T06:02:20Z</time>
      </trkpt>
      <trkpt lat="50.98938072" lon="39.28697824">
        <ele>0.0000000</ele>
        <time>2010-01-01T06:02:23Z</time>
      </trkpt>
      <trkpt lat="50.98931656" lon="39.28696214">
        <ele>0.0000000</ele>
        <time>2010-01-01T06:02:26Z</time>
      </trkpt>
      <trkpt lat="50.98920851" lon="39.28689777">
        <ele>0.0000000</ele>
        <time>2010-01-01T06:02:30Z</time>
      </trkpt>
      <trkpt lat="50.98913422" lon="39.28686558">
        <ele>0.0000000</ele>
        <time>2010-01-01T06:02:33Z</time>
      </trkpt>
      <trkpt lat="50.98906668" lon="39.28683340">
        <ele>0.0000000</ele>
        <time>2010-01-01T06:02:36Z</time>
      </trkpt>
      <trkpt lat="50.98899915" lon="39.28674757">
        <ele>0.0000000</ele>
        <time>2010-01-01T06:02:40Z</time>
      </trkpt>
      <trkpt lat="50.98894850" lon="39.28665637">
        <ele>0.0000000</ele>
        <time>2010-01-01T06:02:43Z</time>
      </trkpt>
      <trkpt lat="50.98888772" lon="39.28654908">
        <ele>0.0000000</ele>
        <time>2010-01-01T06:02:46Z</time>
      </trkpt>
      <trkpt lat="50.98888434" lon="39.28644716">
        <ele>0.0000000</ele>
        <time>2010-01-01T06:02:49Z</time>
      </trkpt>
      <trkpt lat="50.98893837" lon="39.28634523">
        <ele>0.0000000</ele>
        <time>2010-01-01T06:02:52Z</time>
      </trkpt>
      <trkpt lat="50.98900928" lon="39.28627013">
        <ele>0.0000000</ele>
        <time>2010-01-01T06:02:56Z</time>
      </trkpt>
      <trkpt lat="50.98910720" lon="39.28623258">
        <ele>0.0000000</ele>
        <time>2010-01-01T06:03:00Z</time>
      </trkpt>
      <trkpt lat="50.98916798" lon="39.28622722">
        <ele>0.0000000</ele>
        <time>2010-01-01T06:03:02Z</time>
      </trkpt>
      <trkpt lat="50.98931656" lon="39.28617894">
        <ele>0.0000000</ele>
        <time>2010-01-01T06:03:08Z</time>
      </trkpt>
      <trkpt lat="50.98936046" lon="39.28609311">
        <ele>0.0000000</ele>
        <time>2010-01-01T06:03:11Z</time>
      </trkpt>
      <trkpt lat="50.98948202" lon="39.28615748">
        <ele>0.0000000</ele>
        <time>2010-01-01T06:03:16Z</time>
      </trkpt>
      <trkpt lat="50.98956981" lon="39.28630232">
        <ele>0.0000000</ele>
        <time>2010-01-01T06:03:21Z</time>
      </trkpt>
      <trkpt lat="50.98967449" lon="39.28635060">
        <ele>0.0000000</ele>
        <time>2010-01-01T06:03:26Z</time>
      </trkpt>
      <trkpt lat="50.98976566" lon="39.28636669">
        <ele>0.0000000</ele>
        <time>2010-01-01T06:03:29Z</time>
      </trkpt>
      <trkpt lat="50.98984670" lon="39.28634523">
        <ele>0.0000000</ele>
        <time>2010-01-01T06:03:33Z</time>
      </trkpt>
      <trkpt lat="50.98993787" lon="39.28628623">
        <ele>0.0000000</ele>
        <time>2010-01-01T06:03:37Z</time>
      </trkpt>
      <trkpt lat="50.98999528" lon="39.28618967">
        <ele>0.0000000</ele>
        <time>2010-01-01T06:03:40Z</time>
      </trkpt>
      <trkpt lat="50.98998177" lon="39.28602873">
        <ele>0.0000000</ele>
        <time>2010-01-01T06:03:44Z</time>
      </trkpt>
      <trkpt lat="50.98990073" lon="39.28583561">
        <ele>0.0000000</ele>
        <time>2010-01-01T06:03:50Z</time>
      </trkpt>
      <trkpt lat="50.98978592" lon="39.28559958">
        <ele>0.0000000</ele>
        <time>2010-01-01T06:03:57Z</time>
      </trkpt>
      <trkpt lat="50.98967111" lon="39.28547083">
        <ele>0.0000000</ele>
        <time>2010-01-01T06:04:03Z</time>
      </trkpt>
      <trkpt lat="50.98954618" lon="39.28537964">
        <ele>0.0000000</ele>
        <time>2010-01-01T06:04:08Z</time>
      </trkpt>
      <trkpt lat="50.98945501" lon="39.28528844">
        <ele>0.0000000</ele>
        <time>2010-01-01T06:04:13Z</time>
      </trkpt>
      <trkpt lat="50.98937059" lon="39.28508460">
        <ele>0.0000000</ele>
        <time>2010-01-01T06:04:19Z</time>
      </trkpt>
      <trkpt lat="50.98929630" lon="39.28497194">
        <ele>0.0000000</ele>
        <time>2010-01-01T06:04:23Z</time>
      </trkpt>
      <trkpt lat="50.98922201" lon="39.28478419">
        <ele>0.0000000</ele>
        <time>2010-01-01T06:04:29Z</time>
      </trkpt>
      <trkpt lat="50.98915110" lon="39.28459643">
        <ele>0.0000000</ele>
        <time>2010-01-01T06:04:34Z</time>
      </trkpt>
      <trkpt lat="50.98905655" lon="39.28445160">
        <ele>0.0000000</ele>
        <time>2010-01-01T06:04:39Z</time>
      </trkpt>
      <trkpt lat="50.98897551" lon="39.28434431">
        <ele>0.0000000</ele>
        <time>2010-01-01T06:04:44Z</time>
      </trkpt>
      <trkpt lat="50.98887759" lon="39.28424775">
        <ele>0.0000000</ele>
        <time>2010-01-01T06:04:48Z</time>
      </trkpt>
      <trkpt lat="50.98879654" lon="39.28410291">
        <ele>0.0000000</ele>
        <time>2010-01-01T06:04:53Z</time>
      </trkpt>
      <trkpt lat="50.98867498" lon="39.28402781">
        <ele>0.0000000</ele>
        <time>2010-01-01T06:04:58Z</time>
      </trkpt>
      <trkpt lat="50.98857705" lon="39.28391515">
        <ele>0.0000000</ele>
        <time>2010-01-01T06:05:03Z</time>
      </trkpt>
      <trkpt lat="50.98849601" lon="39.28374349">
        <ele>0.0000000</ele>
        <time>2010-01-01T06:05:09Z</time>
      </trkpt>
      <trkpt lat="50.98846224" lon="39.28360938">
        <ele>0.0000000</ele>
        <time>2010-01-01T06:05:12Z</time>
      </trkpt>
      <trkpt lat="50.98844874" lon="39.28338408">
        <ele>0.0000000</ele>
        <time>2010-01-01T06:05:18Z</time>
      </trkpt>
      <trkpt lat="50.98845211" lon="39.28323387">
        <ele>0.0000000</ele>
        <time>2010-01-01T06:05:22Z</time>
      </trkpt>
      <trkpt lat="50.98842172" lon="39.28305148">
        <ele>0.0000000</ele>
        <time>2010-01-01T06:05:26Z</time>
      </trkpt>
      <trkpt lat="50.98836432" lon="39.28282081">
        <ele>0.0000000</ele>
        <time>2010-01-01T06:05:33Z</time>
      </trkpt>
      <trkpt lat="50.98832380" lon="39.28263842">
        <ele>0.0000000</ele>
        <time>2010-01-01T06:05:38Z</time>
      </trkpt>
      <trkpt lat="50.98822925" lon="39.28252040">
        <ele>0.0000000</ele>
        <time>2010-01-01T06:05:42Z</time>
      </trkpt>
      <trkpt lat="50.98804690" lon="39.28243457">
        <ele>0.0000000</ele>
        <time>2010-01-01T06:05:50Z</time>
      </trkpt>
      <trkpt lat="50.98796248" lon="39.28233265">
        <ele>0.0000000</ele>
        <time>2010-01-01T06:05:54Z</time>
      </trkpt>
      <trkpt lat="50.98785780" lon="39.28215562">
        <ele>0.0000000</ele>
        <time>2010-01-01T06:06:00Z</time>
      </trkpt>
      <trkpt lat="50.98777675" lon="39.28198933">
        <ele>0.0000000</ele>
        <time>2010-01-01T06:06:06Z</time>
      </trkpt>
      <trkpt lat="50.98770246" lon="39.28190350">
        <ele>0.0000000</ele>
        <time>2010-01-01T06:06:09Z</time>
      </trkpt>
      <trkpt lat="50.98755388" lon="39.28176939">
        <ele>0.0000000</ele>
        <time>2010-01-01T06:06:16Z</time>
      </trkpt>
      <trkpt lat="50.98746271" lon="39.28159772">
        <ele>0.0000000</ele>
        <time>2010-01-01T06:06:22Z</time>
      </trkpt>
      <trkpt lat="50.98738504" lon="39.28142606">
        <ele>0.0000000</ele>
        <time>2010-01-01T06:06:27Z</time>
      </trkpt>
      <trkpt lat="50.98727698" lon="39.28127586">
        <ele>0.0000000</ele>
        <time>2010-01-01T06:06:33Z</time>
      </trkpt>
      <trkpt lat="50.98718918" lon="39.28114711">
        <ele>0.0000000</ele>
        <time>2010-01-01T06:06:38Z</time>
      </trkpt>
      <trkpt lat="50.98712164" lon="39.28103446">
        <ele>0.0000000</ele>
        <time>2010-01-01T06:06:42Z</time>
      </trkpt>
      <trkpt lat="50.98703722" lon="39.28086816">
        <ele>0.0000000</ele>
        <time>2010-01-01T06:06:47Z</time>
      </trkpt>
      <trkpt lat="50.98693254" lon="39.28077697">
        <ele>0.0000000</ele>
        <time>2010-01-01T06:06:52Z</time>
      </trkpt>
      <trkpt lat="50.98683123" lon="39.28064822">
        <ele>0.0000000</ele>
        <time>2010-01-01T06:06:57Z</time>
      </trkpt>
      <trkpt lat="50.98669953" lon="39.28050875">
        <ele>0.0000000</ele>
        <time>2010-01-01T06:07:03Z</time>
      </trkpt>
      <trkpt lat="50.98662862" lon="39.28038537">
        <ele>0.0000000</ele>
        <time>2010-01-01T06:07:08Z</time>
      </trkpt>
      <trkpt lat="50.98657796" lon="39.28026735">
        <ele>0.0000000</ele>
        <time>2010-01-01T06:07:11Z</time>
      </trkpt>
      <trkpt lat="50.98652731" lon="39.28011178">
        <ele>0.0000000</ele>
        <time>2010-01-01T06:07:16Z</time>
      </trkpt>
      <trkpt lat="50.98647666" lon="39.27997231">
        <ele>0.0000000</ele>
        <time>2010-01-01T06:07:20Z</time>
      </trkpt>
      <trkpt lat="50.98636522" lon="39.27996694">
        <ele>0.0000000</ele>
        <time>2010-01-01T06:07:24Z</time>
      </trkpt>
      <trkpt lat="50.98630106" lon="39.27993476">
        <ele>0.0000000</ele>
        <time>2010-01-01T06:07:27Z</time>
      </trkpt>
      <trkpt lat="50.98621326" lon="39.27992939">
        <ele>0.0000000</ele>
        <time>2010-01-01T06:07:30Z</time>
      </trkpt>
      <trkpt lat="50.98613559" lon="39.27990793">
        <ele>0.0000000</ele>
        <time>2010-01-01T06:07:33Z</time>
      </trkpt>
      <trkpt lat="50.98606129" lon="39.27984356">
        <ele>0.0000000</ele>
        <time>2010-01-01T06:07:37Z</time>
      </trkpt>
      <trkpt lat="50.98601064" lon="39.27973627">
        <ele>0.0000000</ele>
        <time>2010-01-01T06:07:40Z</time>
      </trkpt>
      <trkpt lat="50.98595323" lon="39.27955388">
        <ele>0.0000000</ele>
        <time>2010-01-01T06:07:45Z</time>
      </trkpt>
      <trkpt lat="50.98591608" lon="39.27937149">
        <ele>0.0000000</ele>
        <time>2010-01-01T06:07:50Z</time>
      </trkpt>
      <trkpt lat="50.98592959" lon="39.27917301">
        <ele>0.0000000</ele>
        <time>2010-01-01T06:07:55Z</time>
      </trkpt>
      <trkpt lat="50.98596336" lon="39.27886187">
        <ele>0.0000000</ele>
        <time>2010-01-01T06:08:03Z</time>
      </trkpt>
      <trkpt lat="50.98598700" lon="39.27865266">
        <ele>0.0000000</ele>
        <time>2010-01-01T06:08:09Z</time>
      </trkpt>
      <trkpt lat="50.98601402" lon="39.27841126">
        <ele>0.0000000</ele>
        <time>2010-01-01T06:08:15Z</time>
      </trkpt>
      <trkpt lat="50.98605116" lon="39.27818595">
        <ele>0.0000000</ele>
        <time>2010-01-01T06:08:21Z</time>
      </trkpt>
      <trkpt lat="50.98608155" lon="39.27789628">
        <ele>0.0000000</ele>
        <time>2010-01-01T06:08:28Z</time>
      </trkpt>
      <trkpt lat="50.98611532" lon="39.27771389">
        <ele>0.0000000</ele>
        <time>2010-01-01T06:08:33Z</time>
      </trkpt>
      <trkpt lat="50.98614572" lon="39.27748322">
        <ele>0.0000000</ele>
        <time>2010-01-01T06:08:39Z</time>
      </trkpt>
      <trkpt lat="50.98615247" lon="39.27720963">
        <ele>0.0000000</ele>
        <time>2010-01-01T06:08:46Z</time>
      </trkpt>
      <trkpt lat="50.98613221" lon="39.27710771">
        <ele>0.0000000</ele>
        <time>2010-01-01T06:08:48Z</time>
      </trkpt>
      <trkpt lat="50.98607818" lon="39.27693068">
        <ele>0.0000000</ele>
        <time>2010-01-01T06:08:53Z</time>
      </trkpt>
      <trkpt lat="50.98594985" lon="39.27676975">
        <ele>0.0000000</ele>
        <time>2010-01-01T06:09:00Z</time>
      </trkpt>
      <trkpt lat="50.98582828" lon="39.27653371">
        <ele>0.0000000</ele>
        <time>2010-01-01T06:09:08Z</time>
      </trkpt>
      <trkpt lat="50.98570671" lon="39.27624404">
        <ele>0.0000000</ele>
        <time>2010-01-01T06:09:16Z</time>
      </trkpt>
      <trkpt lat="50.98560540" lon="39.27606165">
        <ele>0.0000000</ele>
        <time>2010-01-01T06:09:22Z</time>
      </trkpt>
      <trkpt lat="50.98540954" lon="39.27592217">
        <ele>0.0000000</ele>
        <time>2010-01-01T06:09:31Z</time>
      </trkpt>
      <trkpt lat="50.98526433" lon="39.27588998">
        <ele>0.0000000</ele>
        <time>2010-01-01T06:09:37Z</time>
      </trkpt>
      <trkpt lat="50.98510561" lon="39.27598654">
        <ele>0.0000000</ele>
        <time>2010-01-01T06:09:44Z</time>
      </trkpt>
      <trkpt lat="50.98498741" lon="39.27606165">
        <ele>0.0000000</ele>
        <time>2010-01-01T06:09:49Z</time>
      </trkpt>
      <trkpt lat="50.98489285" lon="39.27627086">
        <ele>0.0000000</ele>
        <time>2010-01-01T06:09:55Z</time>
      </trkpt>
      <trkpt lat="50.98482869" lon="39.27650153">
        <ele>0.0000000</ele>
        <time>2010-01-01T06:10:02Z</time>
      </trkpt>
      <trkpt lat="50.98478479" lon="39.27668928">
        <ele>0.0000000</ele>
        <time>2010-01-01T06:10:07Z</time>
      </trkpt>
      <trkpt lat="50.98475777" lon="39.27703260">
        <ele>0.0000000</ele>
        <time>2010-01-01T06:10:15Z</time>
      </trkpt>
      <trkpt lat="50.98472400" lon="39.27723645">
        <ele>0.0000000</ele>
        <time>2010-01-01T06:10:21Z</time>
      </trkpt>
      <trkpt lat="50.98468348" lon="39.27744030">
        <ele>0.0000000</ele>
        <time>2010-01-01T06:10:26Z</time>
      </trkpt>
      <trkpt lat="50.98463957" lon="39.27772461">
        <ele>0.0000000</ele>
        <time>2010-01-01T06:10:33Z</time>
      </trkpt>
      <trkpt lat="50.98458892" lon="39.27806794">
        <ele>0.0000000</ele>
        <time>2010-01-01T06:10:42Z</time>
      </trkpt>
      <trkpt lat="50.98458554" lon="39.27830934">
        <ele>0.0000000</ele>
        <time>2010-01-01T06:10:48Z</time>
      </trkpt>
      <trkpt lat="50.98461594" lon="39.27841662">
        <ele>0.0000000</ele>
        <time>2010-01-01T06:10:51Z</time>
      </trkpt>
      <trkpt lat="50.98466997" lon="39.27851855">
        <ele>0.0000000</ele>
        <time>2010-01-01T06:10:55Z</time>
      </trkpt>
      <trkpt lat="50.98473751" lon="39.27882968">
        <ele>0.0000000</ele>
        <time>2010-01-01T06:11:03Z</time>
      </trkpt>
      <trkpt lat="50.98467166" lon="39.27949487">
        <ele>0.0000000</ele>
        <time>2010-01-01T06:11:20Z</time>
      </trkpt>
      <trkpt lat="50.98450787" lon="39.27922129">
        <ele>0.0000000</ele>
        <time>2010-01-01T06:11:30Z</time>
      </trkpt>
      <trkpt lat="50.98451462" lon="39.27914082">
        <ele>0.0000000</ele>
        <time>2010-01-01T06:11:32Z</time>
      </trkpt>
      <trkpt lat="50.98444877" lon="39.27892088">
        <ele>0.0000000</ele>
        <time>2010-01-01T06:11:38Z</time>
      </trkpt>
      <trkpt lat="50.98440318" lon="39.27863657">
        <ele>0.0000000</ele>
        <time>2010-01-01T06:11:45Z</time>
      </trkpt>
      <trkpt lat="50.98424952" lon="39.27819937">
        <ele>0.0000000</ele>
        <time>2010-01-01T06:11:58Z</time>
      </trkpt>
      <trkpt lat="50.98415665" lon="39.27793114">
        <ele>0.0000000</ele>
        <time>2010-01-01T06:12:05Z</time>
      </trkpt>
      <trkpt lat="50.98401988" lon="39.27763074">
        <ele>0.0000000</ele>
        <time>2010-01-01T06:12:15Z</time>
      </trkpt>
      <trkpt lat="50.98386116" lon="39.27736252">
        <ele>0.0000000</ele>
        <time>2010-01-01T06:12:24Z</time>
      </trkpt>
      <trkpt lat="50.98362476" lon="39.27693336">
        <ele>0.0000000</ele>
        <time>2010-01-01T06:12:38Z</time>
      </trkpt>
      <trkpt lat="50.98345590" lon="39.27659272">
        <ele>0.0000000</ele>
        <time>2010-01-01T06:12:49Z</time>
      </trkpt>
      <trkpt lat="50.98327185" lon="39.27620380">
        <ele>0.0000000</ele>
        <time>2010-01-01T06:13:02Z</time>
      </trkpt>
      <trkpt lat="50.98310637" lon="39.27582829">
        <ele>0.0000000</ele>
        <time>2010-01-01T06:13:13Z</time>
      </trkpt>
      <trkpt lat="50.98292569" lon="39.27546083">
        <ele>0.0000000</ele>
        <time>2010-01-01T06:13:25Z</time>
      </trkpt>
      <trkpt lat="50.98284632" lon="39.27534550">
        <ele>0.0000000</ele>
        <time>2010-01-01T06:13:29Z</time>
      </trkpt>
      <trkpt lat="50.98270786" lon="39.27522211">
        <ele>0.0000000</ele>
        <time>2010-01-01T06:13:36Z</time>
      </trkpt>
      <trkpt lat="50.98257108" lon="39.27517383">
        <ele>0.0000000</ele>
        <time>2010-01-01T06:13:41Z</time>
      </trkpt>
      <trkpt lat="50.98243937" lon="39.27513897">
        <ele>0.0000000</ele>
        <time>2010-01-01T06:13:47Z</time>
      </trkpt>
      <trkpt lat="50.98240222" lon="39.27495389">
        <ele>0.0000000</ele>
        <time>2010-01-01T06:13:51Z</time>
      </trkpt>
      <trkpt lat="50.98258121" lon="39.27424043">
        <ele>0.0000000</ele>
        <time>2010-01-01T06:14:11Z</time>
      </trkpt>
      <trkpt lat="50.98283113" lon="39.27354842">
        <ele>0.0000000</ele>
        <time>2010-01-01T06:14:31Z</time>
      </trkpt>
      <trkpt lat="50.98302700" lon="39.27283495">
        <ele>0.0000000</ele>
        <time>2010-01-01T06:14:51Z</time>
      </trkpt>
      <trkpt lat="50.98321950" lon="39.27243262">
        <ele>0.0000000</ele>
        <time>2010-01-01T06:15:03Z</time>
      </trkpt>
      <trkpt lat="50.98340187" lon="39.27186935">
        <ele>0.0000000</ele>
        <time>2010-01-01T06:15:19Z</time>
      </trkpt>
      <trkpt lat="50.98362138" lon="39.27126317">
        <ele>0.0000000</ele>
        <time>2010-01-01T06:15:37Z</time>
      </trkpt>
      <trkpt lat="50.98381725" lon="39.27063017">
        <ele>0.0000000</ele>
        <time>2010-01-01T06:15:55Z</time>
      </trkpt>
      <trkpt lat="50.98391857" lon="39.27024930">
        <ele>0.0000000</ele>
        <time>2010-01-01T06:16:05Z</time>
      </trkpt>
      <trkpt lat="50.98403001" lon="39.26983087">
        <ele>0.0000000</ele>
        <time>2010-01-01T06:16:16Z</time>
      </trkpt>
      <trkpt lat="50.98420900" lon="39.26947146">
        <ele>0.0000000</ele>
        <time>2010-01-01T06:16:28Z</time>
      </trkpt>
      <trkpt lat="50.98434746" lon="39.26928907">
        <ele>0.0000000</ele>
        <time>2010-01-01T06:16:35Z</time>
      </trkpt>
      <trkpt lat="50.98465477" lon="39.26888674">
        <ele>0.0000000</ele>
        <time>2010-01-01T06:16:51Z</time>
      </trkpt>
      <trkpt lat="50.98493169" lon="39.26859169">
        <ele>0.0000000</ele>
        <time>2010-01-01T06:17:05Z</time>
      </trkpt>
      <trkpt lat="50.98510392" lon="39.26831274">
        <ele>0.0000000</ele>
        <time>2010-01-01T06:17:14Z</time>
      </trkpt>
      <trkpt lat="50.98522549" lon="39.26814108">
        <ele>0.0000000</ele>
        <time>2010-01-01T06:17:21Z</time>
      </trkpt>
      <trkpt lat="50.98534706" lon="39.26804452">
        <ele>0.0000000</ele>
        <time>2010-01-01T06:17:26Z</time>
      </trkpt>
      <trkpt lat="50.98552942" lon="39.26801234">
        <ele>0.0000000</ele>
        <time>2010-01-01T06:17:34Z</time>
      </trkpt>
      <trkpt lat="50.98577594" lon="39.26814108">
        <ele>0.0000000</ele>
        <time>2010-01-01T06:17:44Z</time>
      </trkpt>
      <trkpt lat="50.98622508" lon="39.26815181">
        <ele>0.0000000</ele>
        <time>2010-01-01T06:18:02Z</time>
      </trkpt>
      <trkpt lat="50.98658978" lon="39.26808207">
        <ele>0.0000000</ele>
        <time>2010-01-01T06:18:17Z</time>
      </trkpt>
      <trkpt lat="50.98706930" lon="39.26788895">
        <ele>0.0000000</ele>
        <time>2010-01-01T06:18:37Z</time>
      </trkpt>
      <trkpt lat="50.98747115" lon="39.26768511">
        <ele>0.0000000</ele>
        <time>2010-01-01T06:18:53Z</time>
      </trkpt>
      <trkpt lat="50.98799793" lon="39.26735251">
        <ele>0.0000000</ele>
        <time>2010-01-01T06:19:16Z</time>
      </trkpt>
      <trkpt lat="50.98857199" lon="39.26701455">
        <ele>0.0000000</ele>
        <time>2010-01-01T06:19:41Z</time>
      </trkpt>
      <trkpt lat="50.98887590" lon="39.26679461">
        <ele>0.0000000</ele>
        <time>2010-01-01T06:19:54Z</time>
      </trkpt>
      <trkpt lat="50.98911565" lon="39.26654785">
        <ele>0.0000000</ele>
        <time>2010-01-01T06:20:05Z</time>
      </trkpt>
      <trkpt lat="50.98938241" lon="39.26629036">
        <ele>0.0000000</ele>
        <time>2010-01-01T06:20:18Z</time>
      </trkpt>
      <trkpt lat="50.98973021" lon="39.26585584">
        <ele>0.0000000</ele>
        <time>2010-01-01T06:20:36Z</time>
      </trkpt>
      <trkpt lat="50.98998683" lon="39.26561444">
        <ele>0.0000000</ele>
        <time>2010-01-01T06:20:48Z</time>
      </trkpt>
      <trkpt lat="50.99029073" lon="39.26537841">
        <ele>0.0000000</ele>
        <time>2010-01-01T06:21:01Z</time>
      </trkpt>
      <trkpt lat="50.99046294" lon="39.26517456">
        <ele>0.0000000</ele>
        <time>2010-01-01T06:21:10Z</time>
      </trkpt>
      <trkpt lat="50.99057437" lon="39.26500826">
        <ele>0.0000000</ele>
        <time>2010-01-01T06:21:16Z</time>
      </trkpt>
      <trkpt lat="50.99066892" lon="39.26484733">
        <ele>0.0000000</ele>
        <time>2010-01-01T06:21:21Z</time>
      </trkpt>
      <trkpt lat="50.99077697" lon="39.26457374">
        <ele>0.0000000</ele>
        <time>2010-01-01T06:21:30Z</time>
      </trkpt>
      <trkpt lat="50.99083437" lon="39.26431089">
        <ele>0.0000000</ele>
        <time>2010-01-01T06:21:37Z</time>
      </trkpt>
      <trkpt lat="50.99089515" lon="39.26403194">
        <ele>0.0000000</ele>
        <time>2010-01-01T06:21:44Z</time>
      </trkpt>
      <trkpt lat="50.99096268" lon="39.26376372">
        <ele>0.0000000</ele>
        <time>2010-01-01T06:21:51Z</time>
      </trkpt>
      <trkpt lat="50.99103697" lon="39.26344722">
        <ele>0.0000000</ele>
        <time>2010-01-01T06:22:00Z</time>
      </trkpt>
      <trkpt lat="50.99108424" lon="39.26314681">
        <ele>0.0000000</ele>
        <time>2010-01-01T06:22:08Z</time>
      </trkpt>
      <trkpt lat="50.99108424" lon="39.26287859">
        <ele>0.0000000</ele>
        <time>2010-01-01T06:22:14Z</time>
      </trkpt>
      <trkpt lat="50.99105047" lon="39.26252454">
        <ele>0.0000000</ele>
        <time>2010-01-01T06:22:23Z</time>
      </trkpt>
      <trkpt lat="50.99099982" lon="39.26223486">
        <ele>0.0000000</ele>
        <time>2010-01-01T06:22:31Z</time>
      </trkpt>
      <trkpt lat="50.99093904" lon="39.26201492">
        <ele>0.0000000</ele>
        <time>2010-01-01T06:22:37Z</time>
      </trkpt>
      <trkpt lat="50.99090190" lon="39.26184862">
        <ele>0.0000000</ele>
        <time>2010-01-01T06:22:41Z</time>
      </trkpt>
      <trkpt lat="50.99082762" lon="39.26156431">
        <ele>0.0000000</ele>
        <time>2010-01-01T06:22:49Z</time>
      </trkpt>
      <trkpt lat="50.99081073" lon="39.26148920">
        <ele>0.0000000</ele>
        <time>2010-01-01T06:22:51Z</time>
      </trkpt>
      <trkpt lat="50.99067567" lon="39.26107078">
        <ele>0.0000000</ele>
        <time>2010-01-01T06:23:03Z</time>
      </trkpt>
      <trkpt lat="50.99047645" lon="39.26048069">
        <ele>0.0000000</ele>
        <time>2010-01-01T06:23:20Z</time>
      </trkpt>
      <trkpt lat="50.99038190" lon="39.25998180">
        <ele>0.0000000</ele>
        <time>2010-01-01T06:23:33Z</time>
      </trkpt>
      <trkpt lat="50.99033463" lon="39.25972431">
        <ele>0.0000000</ele>
        <time>2010-01-01T06:23:40Z</time>
      </trkpt>
      <trkpt lat="50.99033125" lon="39.25954728">
        <ele>0.0000000</ele>
        <time>2010-01-01T06:23:44Z</time>
      </trkpt>
      <trkpt lat="50.99037853" lon="39.25923078">
        <ele>0.0000000</ele>
        <time>2010-01-01T06:23:52Z</time>
      </trkpt>
      <trkpt lat="50.99036502" lon="39.25903766">
        <ele>0.0000000</ele>
        <time>2010-01-01T06:23:57Z</time>
      </trkpt>
      <trkpt lat="50.99028736" lon="39.25868898">
        <ele>0.0000000</ele>
        <time>2010-01-01T06:24:07Z</time>
      </trkpt>
      <trkpt lat="50.99024008" lon="39.25861388">
        <ele>0.0000000</ele>
        <time>2010-01-01T06:24:09Z</time>
      </trkpt>
      <trkpt lat="50.99015567" lon="39.25853341">
        <ele>0.0000000</ele>
        <time>2010-01-01T06:24:13Z</time>
      </trkpt>
      <trkpt lat="50.98996657" lon="39.25835102">
        <ele>0.0000000</ele>
        <time>2010-01-01T06:24:22Z</time>
      </trkpt>
      <trkpt lat="50.98979099" lon="39.25820618">
        <ele>0.0000000</ele>
        <time>2010-01-01T06:24:30Z</time>
      </trkpt>
      <trkpt lat="50.98965930" lon="39.25793796">
        <ele>0.0000000</ele>
        <time>2010-01-01T06:24:39Z</time>
      </trkpt>
      <trkpt lat="50.98948033" lon="39.25764292">
        <ele>0.0000000</ele>
        <time>2010-01-01T06:24:49Z</time>
      </trkpt>
      <trkpt lat="50.98915954" lon="39.25694018">
        <ele>0.0000000</ele>
        <time>2010-01-01T06:25:11Z</time>
      </trkpt>
      <trkpt lat="50.98869355" lon="39.25607114">
        <ele>0.0000000</ele>
        <time>2010-01-01T06:25:40Z</time>
      </trkpt>
      <trkpt lat="50.98852471" lon="39.25578146">
        <ele>0.0000000</ele>
        <time>2010-01-01T06:25:50Z</time>
      </trkpt>
      <trkpt lat="50.98807898" lon="39.25478368">
        <ele>0.0000000</ele>
        <time>2010-01-01T06:26:20Z</time>
      </trkpt>
      <trkpt lat="50.98763324" lon="39.25401120">
        <ele>0.0000000</ele>
        <time>2010-01-01T06:26:47Z</time>
      </trkpt>
      <trkpt lat="50.98717399" lon="39.25313144">
        <ele>0.0000000</ele>
        <time>2010-01-01T06:27:16Z</time>
      </trkpt>
      <trkpt lat="50.98709969" lon="39.25283103">
        <ele>0.0000000</ele>
        <time>2010-01-01T06:27:24Z</time>
      </trkpt>
      <trkpt lat="50.98669447" lon="39.25137191">
        <ele>0.0000000</ele>
        <time>2010-01-01T06:28:04Z</time>
      </trkpt>
      <trkpt lat="50.98636353" lon="39.25047069">
        <ele>0.0000000</ele>
        <time>2010-01-01T06:28:30Z</time>
      </trkpt>
      <trkpt lat="50.98616091" lon="39.24983769">
        <ele>0.0000000</ele>
        <time>2010-01-01T06:28:48Z</time>
      </trkpt>
      <trkpt lat="50.98596505" lon="39.24916177">
        <ele>0.0000000</ele>
        <time>2010-01-01T06:29:07Z</time>
      </trkpt>
      <trkpt lat="50.98574217" lon="39.24865752">
        <ele>0.0000000</ele>
        <time>2010-01-01T06:29:22Z</time>
      </trkpt>
      <trkpt lat="50.98554293" lon="39.24796551">
        <ele>0.0000000</ele>
        <time>2010-01-01T06:29:42Z</time>
      </trkpt>
      <trkpt lat="50.98544500" lon="39.24752562">
        <ele>0.0000000</ele>
        <time>2010-01-01T06:29:53Z</time>
      </trkpt>
      <trkpt lat="50.98541798" lon="39.24721985">
        <ele>0.0000000</ele>
        <time>2010-01-01T06:30:01Z</time>
      </trkpt>
      <trkpt lat="50.98535719" lon="39.24693554">
        <ele>0.0000000</ele>
        <time>2010-01-01T06:30:09Z</time>
      </trkpt>
      <trkpt lat="50.98532680" lon="39.24658685">
        <ele>0.0000000</ele>
        <time>2010-01-01T06:30:17Z</time>
      </trkpt>
      <trkpt lat="50.98530992" lon="39.24622207">
        <ele>0.0000000</ele>
        <time>2010-01-01T06:30:27Z</time>
      </trkpt>
      <trkpt lat="50.98527615" lon="39.24590557">
        <ele>0.0000000</ele>
        <time>2010-01-01T06:30:35Z</time>
      </trkpt>
      <trkpt lat="50.98522887" lon="39.24558370">
        <ele>0.0000000</ele>
        <time>2010-01-01T06:30:43Z</time>
      </trkpt>
      <trkpt lat="50.98510054" lon="39.24499898">
        <ele>0.0000000</ele>
        <time>2010-01-01T06:30:59Z</time>
      </trkpt>
      <trkpt lat="50.98508028" lon="39.24439280">
        <ele>0.0000000</ele>
        <time>2010-01-01T06:31:14Z</time>
      </trkpt>
      <trkpt lat="50.98499923" lon="39.24385636">
        <ele>0.0000000</ele>
        <time>2010-01-01T06:31:28Z</time>
      </trkpt>
      <trkpt lat="50.98496546" lon="39.24320190">
        <ele>0.0000000</ele>
        <time>2010-01-01T06:31:44Z</time>
      </trkpt>
      <trkpt lat="50.98489116" lon="39.24278884">
        <ele>0.0000000</ele>
        <time>2010-01-01T06:31:55Z</time>
      </trkpt>
      <trkpt lat="50.98480336" lon="39.24230604">
        <ele>0.0000000</ele>
        <time>2010-01-01T06:32:08Z</time>
      </trkpt>
      <trkpt lat="50.98474257" lon="39.24201100">
        <ele>0.0000000</ele>
        <time>2010-01-01T06:32:16Z</time>
      </trkpt>
      <trkpt lat="50.98473244" lon="39.24177497">
        <ele>0.0000000</ele>
        <time>2010-01-01T06:32:22Z</time>
      </trkpt>
      <trkpt lat="50.98472907" lon="39.24159258">
        <ele>0.0000000</ele>
        <time>2010-01-01T06:32:26Z</time>
      </trkpt>
      <trkpt lat="50.98471556" lon="39.24112051">
        <ele>0.0000000</ele>
        <time>2010-01-01T06:32:38Z</time>
      </trkpt>
      <trkpt lat="50.98463451" lon="39.24037485">
        <ele>0.0000000</ele>
        <time>2010-01-01T06:32:57Z</time>
      </trkpt>
      <trkpt lat="50.98456359" lon="39.23997252">
        <ele>0.0000000</ele>
        <time>2010-01-01T06:33:08Z</time>
      </trkpt>
      <trkpt lat="50.98453995" lon="39.23963456">
        <ele>0.0000000</ele>
        <time>2010-01-01T06:33:16Z</time>
      </trkpt>
      <trkpt lat="50.98449943" lon="39.23937171">
        <ele>0.0000000</ele>
        <time>2010-01-01T06:33:23Z</time>
      </trkpt>
      <trkpt lat="50.98450618" lon="39.23908203">
        <ele>0.0000000</ele>
        <time>2010-01-01T06:33:31Z</time>
      </trkpt>
      <trkpt lat="50.98452982" lon="39.23878699">
        <ele>0.0000000</ele>
        <time>2010-01-01T06:33:38Z</time>
      </trkpt>
      <trkpt lat="50.98456359" lon="39.23856168">
        <ele>0.0000000</ele>
        <time>2010-01-01T06:33:44Z</time>
      </trkpt>
      <trkpt lat="50.98463451" lon="39.23825054">
        <ele>0.0000000</ele>
        <time>2010-01-01T06:33:52Z</time>
      </trkpt>
      <trkpt lat="50.98470880" lon="39.23799842">
        <ele>0.0000000</ele>
        <time>2010-01-01T06:33:59Z</time>
      </trkpt>
      <trkpt lat="50.98476621" lon="39.23778920">
        <ele>0.0000000</ele>
        <time>2010-01-01T06:34:05Z</time>
      </trkpt>
      <trkpt lat="50.98479998" lon="39.23737078">
        <ele>0.0000000</ele>
        <time>2010-01-01T06:34:16Z</time>
      </trkpt>
      <trkpt lat="50.98486415" lon="39.23710256">
        <ele>0.0000000</ele>
        <time>2010-01-01T06:34:23Z</time>
      </trkpt>
      <trkpt lat="50.98492494" lon="39.23697381">
        <ele>0.0000000</ele>
        <time>2010-01-01T06:34:27Z</time>
      </trkpt>
      <trkpt lat="50.98496546" lon="39.23672169">
        <ele>0.0000000</ele>
        <time>2010-01-01T06:34:33Z</time>
      </trkpt>
      <trkpt lat="50.98495195" lon="39.23653393">
        <ele>0.0000000</ele>
        <time>2010-01-01T06:34:38Z</time>
      </trkpt>
      <trkpt lat="50.98492494" lon="39.23630863">
        <ele>0.0000000</ele>
        <time>2010-01-01T06:34:44Z</time>
      </trkpt>
      <trkpt lat="50.98491818" lon="39.23616379">
        <ele>0.0000000</ele>
        <time>2010-01-01T06:34:48Z</time>
      </trkpt>
      <trkpt lat="50.98495195" lon="39.23606723">
        <ele>0.0000000</ele>
        <time>2010-01-01T06:34:50Z</time>
      </trkpt>
      <trkpt lat="50.98501274" lon="39.23579364">
        <ele>0.0000000</ele>
        <time>2010-01-01T06:34:58Z</time>
      </trkpt>
      <trkpt lat="50.98502287" lon="39.23548787">
        <ele>0.0000000</ele>
        <time>2010-01-01T06:35:05Z</time>
      </trkpt>
      <trkpt lat="50.98496884" lon="39.23530548">
        <ele>0.0000000</ele>
        <time>2010-01-01T06:35:11Z</time>
      </trkpt>
      <trkpt lat="50.98489792" lon="39.23516600">
        <ele>0.0000000</ele>
        <time>2010-01-01T06:35:15Z</time>
      </trkpt>
      <trkpt lat="50.98489792" lon="39.23508017">
        <ele>0.0000000</ele>
        <time>2010-01-01T06:35:17Z</time>
      </trkpt>
      <trkpt lat="50.98489792" lon="39.23490315">
        <ele>0.0000000</ele>
        <time>2010-01-01T06:35:22Z</time>
      </trkpt>
      <trkpt lat="50.98488103" lon="39.23474758">
        <ele>0.0000000</ele>
        <time>2010-01-01T06:35:26Z</time>
      </trkpt>
      <trkpt lat="50.98472907" lon="39.23456519">
        <ele>0.0000000</ele>
        <time>2010-01-01T06:35:33Z</time>
      </trkpt>
      <trkpt lat="50.98468854" lon="39.23444717">
        <ele>0.0000000</ele>
        <time>2010-01-01T06:35:37Z</time>
      </trkpt>
      <trkpt lat="50.98464464" lon="39.23430770">
        <ele>0.0000000</ele>
        <time>2010-01-01T06:35:41Z</time>
      </trkpt>
      <trkpt lat="50.98456697" lon="39.23417359">
        <ele>0.0000000</ele>
        <time>2010-01-01T06:35:45Z</time>
      </trkpt>
      <trkpt lat="50.98448930" lon="39.23412531">
        <ele>0.0000000</ele>
        <time>2010-01-01T06:35:49Z</time>
      </trkpt>
      <trkpt lat="50.98441500" lon="39.23404484">
        <ele>0.0000000</ele>
        <time>2010-01-01T06:35:52Z</time>
      </trkpt>
      <trkpt lat="50.98430693" lon="39.23383026">
        <ele>0.0000000</ele>
        <time>2010-01-01T06:35:59Z</time>
      </trkpt>
      <trkpt lat="50.98431369" lon="39.23371225">
        <ele>0.0000000</ele>
        <time>2010-01-01T06:36:02Z</time>
      </trkpt>
      <trkpt lat="50.98436097" lon="39.23344939">
        <ele>0.0000000</ele>
        <time>2010-01-01T06:36:09Z</time>
      </trkpt>
      <trkpt lat="50.98440487" lon="39.23319190">
        <ele>0.0000000</ele>
        <time>2010-01-01T06:36:16Z</time>
      </trkpt>
      <trkpt lat="50.98442513" lon="39.23298269">
        <ele>0.0000000</ele>
        <time>2010-01-01T06:36:21Z</time>
      </trkpt>
      <trkpt lat="50.98438798" lon="39.23275738">
        <ele>0.0000000</ele>
        <time>2010-01-01T06:36:27Z</time>
      </trkpt>
      <trkpt lat="50.98434070" lon="39.23258572">
        <ele>0.0000000</ele>
        <time>2010-01-01T06:36:32Z</time>
      </trkpt>
      <trkpt lat="50.98433733" lon="39.23244088">
        <ele>0.0000000</ele>
        <time>2010-01-01T06:36:35Z</time>
      </trkpt>
      <trkpt lat="50.98435759" lon="39.23235505">
        <ele>0.0000000</ele>
        <time>2010-01-01T06:36:38Z</time>
      </trkpt>
      <trkpt lat="50.98439474" lon="39.23222630">
        <ele>0.0000000</ele>
        <time>2010-01-01T06:36:41Z</time>
      </trkpt>
      <trkpt lat="50.98448592" lon="39.23209219">
        <ele>0.0000000</ele>
        <time>2010-01-01T06:36:46Z</time>
      </trkpt>
      <trkpt lat="50.98459061" lon="39.23201173">
        <ele>0.0000000</ele>
        <time>2010-01-01T06:36:51Z</time>
      </trkpt>
      <trkpt lat="50.98473582" lon="39.23188834">
        <ele>0.0000000</ele>
        <time>2010-01-01T06:36:57Z</time>
      </trkpt>
      <trkpt lat="50.98483038" lon="39.23174351">
        <ele>0.0000000</ele>
        <time>2010-01-01T06:37:03Z</time>
      </trkpt>
      <trkpt lat="50.98492156" lon="39.23155039">
        <ele>0.0000000</ele>
        <time>2010-01-01T06:37:09Z</time>
      </trkpt>
      <trkpt lat="50.98507352" lon="39.23126071">
        <ele>0.0000000</ele>
        <time>2010-01-01T06:37:18Z</time>
      </trkpt>
      <trkpt lat="50.98512756" lon="39.23108905">
        <ele>0.0000000</ele>
        <time>2010-01-01T06:37:23Z</time>
      </trkpt>
      <trkpt lat="50.98518497" lon="39.23083155">
        <ele>0.0000000</ele>
        <time>2010-01-01T06:37:30Z</time>
      </trkpt>
      <trkpt lat="50.98519172" lon="39.23060088">
        <ele>0.0000000</ele>
        <time>2010-01-01T06:37:36Z</time>
      </trkpt>
      <trkpt lat="50.98519510" lon="39.23042386">
        <ele>0.0000000</ele>
        <time>2010-01-01T06:37:40Z</time>
      </trkpt>
      <trkpt lat="50.98526601" lon="39.23020392">
        <ele>0.0000000</ele>
        <time>2010-01-01T06:37:46Z</time>
      </trkpt>
      <trkpt lat="50.98533693" lon="39.23006444">
        <ele>0.0000000</ele>
        <time>2010-01-01T06:37:51Z</time>
      </trkpt>
      <trkpt lat="50.98538759" lon="39.22987132">
        <ele>0.0000000</ele>
        <time>2010-01-01T06:37:56Z</time>
      </trkpt>
      <trkpt lat="50.98545513" lon="39.22963529">
        <ele>0.0000000</ele>
        <time>2010-01-01T06:38:03Z</time>
      </trkpt>
      <trkpt lat="50.98550240" lon="39.22944753">
        <ele>0.0000000</ele>
        <time>2010-01-01T06:38:08Z</time>
      </trkpt>
      <trkpt lat="50.98557670" lon="39.22924369">
        <ele>0.0000000</ele>
        <time>2010-01-01T06:38:14Z</time>
      </trkpt>
      <trkpt lat="50.98564086" lon="39.22901838">
        <ele>0.0000000</ele>
        <time>2010-01-01T06:38:20Z</time>
      </trkpt>
      <trkpt lat="50.98572866" lon="39.22882526">
        <ele>0.0000000</ele>
        <time>2010-01-01T06:38:26Z</time>
      </trkpt>
      <trkpt lat="50.98587387" lon="39.22864824">
        <ele>0.0000000</ele>
        <time>2010-01-01T06:38:33Z</time>
      </trkpt>
      <trkpt lat="50.98593128" lon="39.22855168">
        <ele>0.0000000</ele>
        <time>2010-01-01T06:38:37Z</time>
      </trkpt>
      <trkpt lat="50.98598869" lon="39.22832637">
        <ele>0.0000000</ele>
        <time>2010-01-01T06:38:43Z</time>
      </trkpt>
      <trkpt lat="50.98603934" lon="39.22812252">
        <ele>0.0000000</ele>
        <time>2010-01-01T06:38:48Z</time>
      </trkpt>
      <trkpt lat="50.98608662" lon="39.22793477">
        <ele>0.0000000</ele>
        <time>2010-01-01T06:38:53Z</time>
      </trkpt>
      <trkpt lat="50.98613727" lon="39.22763973">
        <ele>0.0000000</ele>
        <time>2010-01-01T06:39:01Z</time>
      </trkpt>
      <trkpt lat="50.98614403" lon="39.22733932">
        <ele>0.0000000</ele>
        <time>2010-01-01T06:39:09Z</time>
      </trkpt>
      <trkpt lat="50.98614403" lon="39.22713547">
        <ele>0.0000000</ele>
        <time>2010-01-01T06:39:14Z</time>
      </trkpt>
      <trkpt lat="50.98616429" lon="39.22701209">
        <ele>0.0000000</ele>
        <time>2010-01-01T06:39:17Z</time>
      </trkpt>
      <trkpt lat="50.98629261" lon="39.22686189">
        <ele>0.0000000</ele>
        <time>2010-01-01T06:39:23Z</time>
      </trkpt>
      <trkpt lat="50.98643107" lon="39.22671168">
        <ele>0.0000000</ele>
        <time>2010-01-01T06:39:30Z</time>
      </trkpt>
      <trkpt lat="50.98647497" lon="39.22656148">
        <ele>0.0000000</ele>
        <time>2010-01-01T06:39:34Z</time>
      </trkpt>
      <trkpt lat="50.98649185" lon="39.22629326">
        <ele>0.0000000</ele>
        <time>2010-01-01T06:39:41Z</time>
      </trkpt>
      <trkpt lat="50.98649185" lon="39.22606259">
        <ele>0.0000000</ele>
        <time>2010-01-01T06:39:47Z</time>
      </trkpt>
      <trkpt lat="50.98649523" lon="39.22586410">
        <ele>0.0000000</ele>
        <time>2010-01-01T06:39:52Z</time>
      </trkpt>
      <trkpt lat="50.98653913" lon="39.22560125">
        <ele>0.0000000</ele>
        <time>2010-01-01T06:39:59Z</time>
      </trkpt>
      <trkpt lat="50.98658978" lon="39.22538131">
        <ele>0.0000000</ele>
        <time>2010-01-01T06:40:05Z</time>
      </trkpt>
      <trkpt lat="50.98664381" lon="39.22524720">
        <ele>0.0000000</ele>
        <time>2010-01-01T06:40:09Z</time>
      </trkpt>
      <trkpt lat="50.98670460" lon="39.22507017">
        <ele>0.0000000</ele>
        <time>2010-01-01T06:40:14Z</time>
      </trkpt>
      <trkpt lat="50.98675863" lon="39.22487169">
        <ele>0.0000000</ele>
        <time>2010-01-01T06:40:19Z</time>
      </trkpt>
      <trkpt lat="50.98679240" lon="39.22437280">
        <ele>0.0000000</ele>
        <time>2010-01-01T06:40:32Z</time>
      </trkpt>
      <trkpt lat="50.98680591" lon="39.22420113">
        <ele>0.0000000</ele>
        <time>2010-01-01T06:40:36Z</time>
      </trkpt>
      <trkpt lat="50.98685318" lon="39.22362714">
        <ele>0.0000000</ele>
        <time>2010-01-01T06:40:51Z</time>
      </trkpt>
      <trkpt lat="50.98693423" lon="39.22317653">
        <ele>0.0000000</ele>
        <time>2010-01-01T06:41:03Z</time>
      </trkpt>
      <trkpt lat="50.98695111" lon="39.22287076">
        <ele>0.0000000</ele>
        <time>2010-01-01T06:41:10Z</time>
      </trkpt>
      <trkpt lat="50.98697475" lon="39.22255426">
        <ele>0.0000000</ele>
        <time>2010-01-01T06:41:18Z</time>
      </trkpt>
      <trkpt lat="50.98699501" lon="39.22221630">
        <ele>0.0000000</ele>
        <time>2010-01-01T06:41:27Z</time>
      </trkpt>
      <trkpt lat="50.98703891" lon="39.22177105">
        <ele>0.0000000</ele>
        <time>2010-01-01T06:41:38Z</time>
      </trkpt>
      <trkpt lat="50.98706255" lon="39.22155648">
        <ele>0.0000000</ele>
        <time>2010-01-01T06:41:44Z</time>
      </trkpt>
      <trkpt lat="50.98713009" lon="39.22073036">
        <ele>0.0000000</ele>
        <time>2010-01-01T06:42:05Z</time>
      </trkpt>
      <trkpt lat="50.98714359" lon="39.22016173">
        <ele>0.0000000</ele>
        <time>2010-01-01T06:42:19Z</time>
      </trkpt>
      <trkpt lat="50.98721113" lon="39.21946435">
        <ele>0.0000000</ele>
        <time>2010-01-01T06:42:37Z</time>
      </trkpt>
      <trkpt lat="50.98724490" lon="39.21889572">
        <ele>0.0000000</ele>
        <time>2010-01-01T06:42:51Z</time>
      </trkpt>
      <trkpt lat="50.98730568" lon="39.21838074">
        <ele>0.0000000</ele>
        <time>2010-01-01T06:43:05Z</time>
      </trkpt>
      <trkpt lat="50.98737322" lon="39.21784430">
        <ele>0.0000000</ele>
        <time>2010-01-01T06:43:18Z</time>
      </trkpt>
      <trkpt lat="50.98733945" lon="39.21684652">
        <ele>0.0000000</ele>
        <time>2010-01-01T06:43:43Z</time>
      </trkpt>
      <trkpt lat="50.98731919" lon="39.21618133">
        <ele>0.0000000</ele>
        <time>2010-01-01T06:44:00Z</time>
      </trkpt>
      <trkpt lat="50.98727191" lon="39.21514063">
        <ele>0.0000000</ele>
        <time>2010-01-01T06:44:27Z</time>
      </trkpt>
      <trkpt lat="50.98727867" lon="39.21388536">
        <ele>0.0000000</ele>
        <time>2010-01-01T06:44:58Z</time>
      </trkpt>
      <trkpt lat="50.98727867" lon="39.21316653">
        <ele>0.0000000</ele>
        <time>2010-01-01T06:45:16Z</time>
      </trkpt>
      <trkpt lat="50.98729218" lon="39.21263008">
        <ele>0.0000000</ele>
        <time>2010-01-01T06:45:30Z</time>
      </trkpt>
      <trkpt lat="50.98748128" lon="39.21176105">
        <ele>0.0000000</ele>
        <time>2010-01-01T06:45:53Z</time>
      </trkpt>
      <trkpt lat="50.98756908" lon="39.21041994">
        <ele>0.0000000</ele>
        <time>2010-01-01T06:46:27Z</time>
      </trkpt>
      <trkpt lat="50.98769740" lon="39.20950799">
        <ele>0.0000000</ele>
        <time>2010-01-01T06:46:51Z</time>
      </trkpt>
      <trkpt lat="50.98780546" lon="39.20895009">
        <ele>0.0000000</ele>
        <time>2010-01-01T06:47:05Z</time>
      </trkpt>
      <trkpt lat="50.98793378" lon="39.20827418">
        <ele>0.0000000</ele>
        <time>2010-01-01T06:47:23Z</time>
      </trkpt>
      <trkpt lat="50.98794728" lon="39.20764118">
        <ele>0.0000000</ele>
        <time>2010-01-01T06:47:39Z</time>
      </trkpt>
      <trkpt lat="50.98797430" lon="39.20706182">
        <ele>0.0000000</ele>
        <time>2010-01-01T06:47:54Z</time>
      </trkpt>
      <trkpt lat="50.98800131" lon="39.20654683">
        <ele>0.0000000</ele>
        <time>2010-01-01T06:48:07Z</time>
      </trkpt>
      <trkpt lat="50.98818366" lon="39.20577436">
        <ele>0.0000000</ele>
        <time>2010-01-01T06:48:27Z</time>
      </trkpt>
      <trkpt lat="50.98829172" lon="39.20518427">
        <ele>0.0000000</ele>
        <time>2010-01-01T06:48:43Z</time>
      </trkpt>
      <trkpt lat="50.98836601" lon="39.20475512">
        <ele>0.0000000</ele>
        <time>2010-01-01T06:48:54Z</time>
      </trkpt>
      <trkpt lat="50.98851458" lon="39.20421868">
        <ele>0.0000000</ele>
        <time>2010-01-01T06:49:09Z</time>
      </trkpt>
      <trkpt lat="50.98861589" lon="39.20386463">
        <ele>0.0000000</ele>
        <time>2010-01-01T06:49:19Z</time>
      </trkpt>
      <trkpt lat="50.98877122" lon="39.20331745">
        <ele>0.0000000</ele>
        <time>2010-01-01T06:49:34Z</time>
      </trkpt>
      <trkpt lat="50.98890629" lon="39.20280247">
        <ele>0.0000000</ele>
        <time>2010-01-01T06:49:48Z</time>
      </trkpt>
      <trkpt lat="50.98897382" lon="39.20250206">
        <ele>0.0000000</ele>
        <time>2010-01-01T06:49:56Z</time>
      </trkpt>
      <trkpt lat="50.98910214" lon="39.20204072">
        <ele>0.0000000</ele>
        <time>2010-01-01T06:50:09Z</time>
      </trkpt>
      <trkpt lat="50.98918993" lon="39.20162230">
        <ele>0.0000000</ele>
        <time>2010-01-01T06:50:20Z</time>
      </trkpt>
      <trkpt lat="50.98927773" lon="39.20126825">
        <ele>0.0000000</ele>
        <time>2010-01-01T06:50:29Z</time>
      </trkpt>
      <trkpt lat="50.98939929" lon="39.20090347">
        <ele>0.0000000</ele>
        <time>2010-01-01T06:50:40Z</time>
      </trkpt>
      <trkpt lat="50.98950059" lon="39.20061379">
        <ele>0.0000000</ele>
        <time>2010-01-01T06:50:48Z</time>
      </trkpt>
      <trkpt lat="50.98967618" lon="39.20030265">
        <ele>0.0000000</ele>
        <time>2010-01-01T06:50:59Z</time>
      </trkpt>
      <trkpt lat="50.98989229" lon="39.20025974">
        <ele>0.0000000</ele>
        <time>2010-01-01T06:51:07Z</time>
      </trkpt>
      <trkpt lat="50.99002735" lon="39.20040994">
        <ele>0.0000000</ele>
        <time>2010-01-01T06:51:14Z</time>
      </trkpt>
      <trkpt lat="50.99019619" lon="39.20060306">
        <ele>0.0000000</ele>
        <time>2010-01-01T06:51:22Z</time>
      </trkpt>
      <trkpt lat="50.99029749" lon="39.20054941">
        <ele>0.0000000</ele>
        <time>2010-01-01T06:51:27Z</time>
      </trkpt>
      <trkpt lat="50.99048658" lon="39.20037775">
        <ele>0.0000000</ele>
        <time>2010-01-01T06:51:35Z</time>
      </trkpt>
      <trkpt lat="50.99060814" lon="39.20020609">
        <ele>0.0000000</ele>
        <time>2010-01-01T06:51:42Z</time>
      </trkpt>
      <trkpt lat="50.99070943" lon="39.19989496">
        <ele>0.0000000</ele>
        <time>2010-01-01T06:51:51Z</time>
      </trkpt>
      <trkpt lat="50.99077021" lon="39.19962673">
        <ele>0.0000000</ele>
        <time>2010-01-01T06:51:58Z</time>
      </trkpt>
      <trkpt lat="50.99080398" lon="39.19922977">
        <ele>0.0000000</ele>
        <time>2010-01-01T06:52:08Z</time>
      </trkpt>
      <trkpt lat="50.99064190" lon="39.19904738">
        <ele>0.0000000</ele>
        <time>2010-01-01T06:52:16Z</time>
      </trkpt>
      <trkpt lat="50.99013541" lon="39.19944434">
        <ele>0.0000000</ele>
        <time>2010-01-01T06:52:38Z</time>
      </trkpt>
      <trkpt lat="50.98995307" lon="39.19950872">
        <ele>0.0000000</ele>
        <time>2010-01-01T06:52:46Z</time>
      </trkpt>
      <trkpt lat="50.98973696" lon="39.19953018">
        <ele>0.0000000</ele>
        <time>2010-01-01T06:52:55Z</time>
      </trkpt>
      <trkpt lat="50.98950059" lon="39.19939070">
        <ele>0.0000000</ele>
        <time>2010-01-01T06:53:05Z</time>
      </trkpt>
      <trkpt lat="50.98927097" lon="39.19916539">
        <ele>0.0000000</ele>
        <time>2010-01-01T06:53:15Z</time>
      </trkpt>
      <trkpt lat="50.98905486" lon="39.19900446">
        <ele>0.0000000</ele>
        <time>2010-01-01T06:53:25Z</time>
      </trkpt>
      <trkpt lat="50.98888603" lon="39.19887572">
        <ele>0.0000000</ele>
        <time>2010-01-01T06:53:32Z</time>
      </trkpt>
      <trkpt lat="50.98862264" lon="39.19868260">
        <ele>0.0000000</ele>
        <time>2010-01-01T06:53:44Z</time>
      </trkpt>
      <trkpt lat="50.98848082" lon="39.19855385">
        <ele>0.0000000</ele>
        <time>2010-01-01T06:53:51Z</time>
      </trkpt>
      <trkpt lat="50.98824444" lon="39.19833927">
        <ele>0.0000000</ele>
        <time>2010-01-01T06:54:02Z</time>
      </trkpt>
      <trkpt lat="50.98809586" lon="39.19812470">
        <ele>0.0000000</ele>
        <time>2010-01-01T06:54:10Z</time>
      </trkpt>
      <trkpt lat="50.98796079" lon="39.19791012">
        <ele>0.0000000</ele>
        <time>2010-01-01T06:54:17Z</time>
      </trkpt>
      <trkpt lat="50.98775143" lon="39.19744878">
        <ele>0.0000000</ele>
        <time>2010-01-01T06:54:32Z</time>
      </trkpt>
      <trkpt lat="50.98766363" lon="39.19712692">
        <ele>0.0000000</ele>
        <time>2010-01-01T06:54:40Z</time>
      </trkpt>
      <trkpt lat="50.98765688" lon="39.19686942">
        <ele>0.0000000</ele>
        <time>2010-01-01T06:54:47Z</time>
      </trkpt>
      <trkpt lat="50.98765688" lon="39.19663339">
        <ele>0.0000000</ele>
        <time>2010-01-01T06:54:53Z</time>
      </trkpt>
      <trkpt lat="50.98767038" lon="39.19638663">
        <ele>0.0000000</ele>
        <time>2010-01-01T06:54:59Z</time>
      </trkpt>
      <trkpt lat="50.98773117" lon="39.19608622">
        <ele>0.0000000</ele>
        <time>2010-01-01T06:55:07Z</time>
      </trkpt>
      <trkpt lat="50.98779870" lon="39.19585018">
        <ele>0.0000000</ele>
        <time>2010-01-01T06:55:14Z</time>
      </trkpt>
      <trkpt lat="50.98775143" lon="39.19561415">
        <ele>0.0000000</ele>
        <time>2010-01-01T06:55:20Z</time>
      </trkpt>
      <trkpt lat="50.98764337" lon="39.19546395">
        <ele>0.0000000</ele>
        <time>2010-01-01T06:55:26Z</time>
      </trkpt>
      <trkpt lat="50.98747453" lon="39.19519573">
        <ele>0.0000000</ele>
        <time>2010-01-01T06:55:35Z</time>
      </trkpt>
      <trkpt lat="50.98717061" lon="39.19489532">
        <ele>0.0000000</ele>
        <time>2010-01-01T06:55:49Z</time>
      </trkpt>
      <trkpt lat="50.98704229" lon="39.19492750">
        <ele>0.0000000</ele>
        <time>2010-01-01T06:55:55Z</time>
      </trkpt>
      <trkpt lat="50.98668434" lon="39.19472366">
        <ele>0.0000000</ele>
        <time>2010-01-01T06:56:10Z</time>
      </trkpt>
      <trkpt lat="50.98622508" lon="39.19444471">
        <ele>0.0000000</ele>
        <time>2010-01-01T06:56:30Z</time>
      </trkpt>
      <trkpt lat="50.98583335" lon="39.19417649">
        <ele>0.0000000</ele>
        <time>2010-01-01T06:56:47Z</time>
      </trkpt>
      <trkpt lat="50.98544162" lon="39.19392972">
        <ele>0.0000000</ele>
        <time>2010-01-01T06:57:03Z</time>
      </trkpt>
      <trkpt lat="50.98502287" lon="39.19364004">
        <ele>0.0000000</ele>
        <time>2010-01-01T06:57:22Z</time>
      </trkpt>
      <trkpt lat="50.98482700" lon="39.19341474">
        <ele>0.0000000</ele>
        <time>2010-01-01T06:57:31Z</time>
      </trkpt>
    </trkseg>
  </trk>
</gpx>

